Wetterdaten: Sonntag, 13.10.2024
Datum Zeit Temp. I. Temp. A. Feuchte I. Feuchte A. Luftdruck Regen Wind Richtung Richtung Sonnenschein Solar Taupunkt Windchill Windböen
13.10.2024 00:00 21,7 °C 9,8 °C 61 % 86 % 1008,2 hPa 0,0 l/m² 0,0 km/h (0 Bft) O-NO 76 ° 0 min 0 W/m² 7,6 °C 9,8 °C 0,0 km/h (0 Bft)
13.10.2024 00:01 21,8 °C 9,8 °C 62 % 87 % 1008,1 hPa 0,0 l/m² 0,0 km/h (0 Bft) O-NO 76 ° 0 min 0 W/m² 7,7 °C 9,8 °C 0,0 km/h (0 Bft)
13.10.2024 00:02 21,8 °C 9,8 °C 62 % 87 % 1008,1 hPa 0,0 l/m² 0,0 km/h (0 Bft) O-NO 76 ° 0 min 0 W/m² 7,7 °C 9,8 °C 0,0 km/h (0 Bft)
13.10.2024 00:04 21,7 °C 9,8 °C 61 % 87 % 1008,0 hPa 0,0 l/m² 0,2 km/h (0 Bft) O-NO 74 ° 0 min 0 W/m² 7,7 °C 9,8 °C 1,6 km/h (1 Bft)
13.10.2024 00:06 21,7 °C 9,7 °C 62 % 87 % 1008,0 hPa 0,0 l/m² 3,4 km/h (1 Bft) O-NO 74 ° 0 min 0 W/m² 7,6 °C 9,7 °C 4,8 km/h (1 Bft)
13.10.2024 00:08 21,7 °C 9,7 °C 62 % 87 % 1008,0 hPa 0,0 l/m² 4,2 km/h (1 Bft) O-NO 76 ° 0 min 0 W/m² 7,6 °C 9,7 °C 4,8 km/h (1 Bft)
13.10.2024 00:10 21,7 °C 9,7 °C 62 % 87 % 1007,9 hPa 0,0 l/m² 4,6 km/h (1 Bft) O-NO 66 ° 0 min 0 W/m² 7,6 °C 9,7 °C 6,4 km/h (2 Bft)
13.10.2024 00:11 21,7 °C 9,6 °C 62 % 87 % 1007,8 hPa 0,0 l/m² 3,8 km/h (1 Bft) O 81 ° 0 min 0 W/m² 7,5 °C 9,6 °C 4,8 km/h (1 Bft)
13.10.2024 00:13 21,7 °C 9,7 °C 62 % 88 % 1007,8 hPa 0,0 l/m² 3,5 km/h (1 Bft) O-NO 69 ° 0 min 0 W/m² 7,8 °C 9,7 °C 4,8 km/h (1 Bft)
13.10.2024 00:15 21,7 °C 9,6 °C 62 % 87 % 1007,6 hPa 0,0 l/m² 3,2 km/h (1 Bft) O-NO 74 ° 0 min 0 W/m² 7,5 °C 9,6 °C 6,4 km/h (2 Bft)
13.10.2024 00:17 21,7 °C 9,6 °C 62 % 88 % 1007,6 hPa 0,0 l/m² 2,9 km/h (1 Bft) O-NO 59 ° 0 min 0 W/m² 7,7 °C 9,6 °C 4,8 km/h (1 Bft)
13.10.2024 00:19 21,7 °C 9,6 °C 62 % 88 % 1007,6 hPa 0,0 l/m² 1,7 km/h (1 Bft) NO 49 ° 0 min 0 W/m² 7,7 °C 9,6 °C 4,8 km/h (1 Bft)
13.10.2024 00:21 21,7 °C 9,6 °C 62 % 88 % 1007,5 hPa 0,0 l/m² 0,5 km/h (0 Bft) NO 51 ° 0 min 0 W/m² 7,7 °C 9,6 °C 1,6 km/h (1 Bft)
13.10.2024 00:22 21,7 °C 9,7 °C 62 % 88 % 1007,4 hPa 0,0 l/m² 2,3 km/h (1 Bft) NO 36 ° 0 min 0 W/m² 7,8 °C 9,7 °C 3,2 km/h (1 Bft)
13.10.2024 00:23 21,7 °C 9,6 °C 62 % 88 % 1007,3 hPa 0,0 l/m² 2,0 km/h (1 Bft) NO 37 ° 0 min 0 W/m² 7,7 °C 9,6 °C 3,2 km/h (1 Bft)
13.10.2024 00:25 21,7 °C 9,7 °C 62 % 88 % 1007,3 hPa 0,0 l/m² 2,5 km/h (1 Bft) NO 55 ° 0 min 0 W/m² 7,8 °C 9,7 °C 4,8 km/h (1 Bft)
13.10.2024 00:27 21,7 °C 9,7 °C 62 % 88 % 1007,3 hPa 0,0 l/m² 2,1 km/h (1 Bft) O-NO 57 ° 0 min 0 W/m² 7,8 °C 9,7 °C 4,8 km/h (1 Bft)
13.10.2024 00:29 21,7 °C 9,7 °C 62 % 88 % 1007,3 hPa 0,0 l/m² 1,9 km/h (1 Bft) NO 54 ° 0 min 0 W/m² 7,8 °C 9,7 °C 4,8 km/h (1 Bft)
13.10.2024 00:31 21,7 °C 9,7 °C 62 % 88 % 1007,3 hPa 0,0 l/m² 1,8 km/h (1 Bft) NO 44 ° 0 min 0 W/m² 7,8 °C 9,7 °C 4,8 km/h (1 Bft)
13.10.2024 00:32 21,7 °C 9,7 °C 62 % 88 % 1007,3 hPa 0,0 l/m² 3,3 km/h (1 Bft) O-NO 66 ° 0 min 0 W/m² 7,8 °C 9,7 °C 4,8 km/h (1 Bft)
13.10.2024 00:33 21,7 °C 9,7 °C 62 % 88 % 1007,3 hPa 0,0 l/m² 0,5 km/h (0 Bft) O-NO 67 ° 0 min 0 W/m² 7,8 °C 9,7 °C 3,2 km/h (1 Bft)
13.10.2024 00:35 21,7 °C 9,7 °C 62 % 88 % 1007,2 hPa 0,0 l/m² 0,0 km/h (0 Bft) O-NO 67 ° 0 min 0 W/m² 7,8 °C 9,7 °C 0,0 km/h (0 Bft)
13.10.2024 00:37 21,7 °C 9,7 °C 62 % 88 % 1007,1 hPa 0,0 l/m² 0,0 km/h (0 Bft) O-NO 67 ° 0 min 0 W/m² 7,8 °C 9,7 °C 0,0 km/h (0 Bft)
13.10.2024 00:39 21,7 °C 9,7 °C 62 % 88 % 1007,0 hPa 0,0 l/m² 0,6 km/h (0 Bft) O-NO 72 ° 0 min 0 W/m² 7,8 °C 9,7 °C 3,2 km/h (1 Bft)
13.10.2024 00:41 21,7 °C 9,7 °C 62 % 88 % 1007,0 hPa 0,0 l/m² 0,4 km/h (0 Bft) O-NO 67 ° 0 min 0 W/m² 7,8 °C 9,7 °C 1,6 km/h (1 Bft)
13.10.2024 00:43 21,7 °C 9,7 °C 62 % 88 % 1006,9 hPa 0,0 l/m² 0,0 km/h (0 Bft) O-NO 72 ° 0 min 0 W/m² 7,8 °C 9,7 °C 0,0 km/h (0 Bft)
13.10.2024 00:46 21,7 °C 9,7 °C 62 % 88 % 1006,9 hPa 0,0 l/m² 0,3 km/h (0 Bft) O-NO 68 ° 0 min 0 W/m² 7,8 °C 9,7 °C 3,2 km/h (1 Bft)
13.10.2024 00:47 21,7 °C 9,7 °C 62 % 88 % 1006,9 hPa 0,0 l/m² 0,0 km/h (0 Bft) O-NO 68 ° 0 min 0 W/m² 7,8 °C 9,7 °C 0,0 km/h (0 Bft)
13.10.2024 00:48 21,6 °C 9,7 °C 62 % 88 % 1006,9 hPa 0,0 l/m² 0,0 km/h (0 Bft) O-NO 68 ° 0 min 0 W/m² 7,8 °C 9,7 °C 0,0 km/h (0 Bft)
13.10.2024 00:49 21,7 °C 9,7 °C 62 % 88 % 1006,8 hPa 0,0 l/m² 0,0 km/h (0 Bft) O-NO 68 ° 0 min 0 W/m² 7,8 °C 9,7 °C 0,0 km/h (0 Bft)
13.10.2024 00:51 21,6 °C 9,7 °C 62 % 88 % 1006,7 hPa 0,0 l/m² 0,0 km/h (0 Bft) O-NO 68 ° 0 min 0 W/m² 7,8 °C 9,7 °C 0,0 km/h (0 Bft)
13.10.2024 00:53 21,6 °C 9,8 °C 62 % 88 % 1006,6 hPa 0,0 l/m² 0,1 km/h (0 Bft) O-NO 69 ° 0 min 0 W/m² 7,9 °C 9,8 °C 1,6 km/h (1 Bft)
13.10.2024 00:54 21,6 °C 9,8 °C 62 % 88 % 1006,6 hPa 0,0 l/m² 0,8 km/h (0 Bft) O-NO 74 ° 0 min 0 W/m² 7,9 °C 9,8 °C 3,2 km/h (1 Bft)
13.10.2024 00:55 21,6 °C 9,8 °C 62 % 88 % 1006,5 hPa 0,0 l/m² 2,3 km/h (1 Bft) O-NO 74 ° 0 min 0 W/m² 7,9 °C 9,8 °C 3,2 km/h (1 Bft)
13.10.2024 00:56 21,6 °C 9,8 °C 62 % 88 % 1006,6 hPa 0,0 l/m² 0,6 km/h (0 Bft) O-NO 74 ° 0 min 0 W/m² 7,9 °C 9,8 °C 1,6 km/h (1 Bft)
13.10.2024 00:57 21,7 °C 9,7 °C 62 % 88 % 1006,6 hPa 0,0 l/m² 1,9 km/h (1 Bft) O 84 ° 0 min 0 W/m² 7,8 °C 9,7 °C 3,2 km/h (1 Bft)
13.10.2024 00:58 21,6 °C 9,8 °C 62 % 88 % 1006,6 hPa 0,0 l/m² 1,7 km/h (1 Bft) O 84 ° 0 min 0 W/m² 7,9 °C 9,8 °C 3,2 km/h (1 Bft)
13.10.2024 00:59 21,6 °C 9,8 °C 62 % 89 % 1006,6 hPa 0,0 l/m² 0,0 km/h (0 Bft) O 84 ° 0 min 0 W/m² 8,1 °C 9,8 °C 0,0 km/h (0 Bft)
13.10.2024 01:00 21,6 °C 9,8 °C 62 % 89 % 1006,6 hPa 0,0 l/m² 0,0 km/h (0 Bft) O 84 ° 0 min 0 W/m² 8,1 °C 9,8 °C 0,0 km/h (0 Bft)
13.10.2024 01:02 21,6 °C 9,8 °C 62 % 89 % 1006,3 hPa 0,0 l/m² 0,0 km/h (0 Bft) O 84 ° 0 min 0 W/m² 8,1 °C 9,8 °C 0,0 km/h (0 Bft)
13.10.2024 01:03 21,6 °C 9,8 °C 62 % 89 % 1006,4 hPa 0,0 l/m² 0,0 km/h (0 Bft) O 84 ° 0 min 0 W/m² 8,1 °C 9,8 °C 0,0 km/h (0 Bft)
13.10.2024 01:04 21,6 °C 9,8 °C 62 % 89 % 1006,4 hPa 0,0 l/m² 0,0 km/h (0 Bft) O 84 ° 0 min 0 W/m² 8,1 °C 9,8 °C 0,0 km/h (0 Bft)
13.10.2024 01:05 21,6 °C 9,8 °C 62 % 89 % 1006,4 hPa 0,0 l/m² 0,4 km/h (0 Bft) O-NO 71 ° 0 min 0 W/m² 8,1 °C 9,8 °C 1,6 km/h (1 Bft)
13.10.2024 01:06 21,6 °C 9,8 °C 62 % 89 % 1006,4 hPa 0,0 l/m² 0,0 km/h (0 Bft) O-NO 71 ° 0 min 0 W/m² 8,1 °C 9,8 °C 0,0 km/h (0 Bft)
13.10.2024 01:07 21,6 °C 9,8 °C 62 % 89 % 1006,4 hPa 0,0 l/m² 0,0 km/h (0 Bft) O-NO 71 ° 0 min 0 W/m² 8,1 °C 9,8 °C 0,0 km/h (0 Bft)
13.10.2024 01:08 21,6 °C 9,8 °C 62 % 89 % 1006,4 hPa 0,0 l/m² 1,0 km/h (0 Bft) O-SO 112 ° 0 min 0 W/m² 8,1 °C 9,8 °C 4,8 km/h (1 Bft)
13.10.2024 01:09 21,6 °C 9,8 °C 62 % 89 % 1006,4 hPa 0,0 l/m² 2,3 km/h (1 Bft) S-SO 157 ° 0 min 0 W/m² 8,1 °C 9,8 °C 6,4 km/h (2 Bft)
13.10.2024 01:11 21,6 °C 9,9 °C 62 % 89 % 1006,3 hPa 0,0 l/m² 4,6 km/h (1 Bft) SO 143 ° 0 min 0 W/m² 8,2 °C 9,9 °C 8,0 km/h (2 Bft)
13.10.2024 01:13 21,6 °C 10,1 °C 62 % 89 % 1006,2 hPa 0,0 l/m² 4,0 km/h (1 Bft) S-SO 151 ° 0 min 0 W/m² 8,4 °C 10,1 °C 8,0 km/h (2 Bft)
13.10.2024 01:14 21,6 °C 10,2 °C 62 % 89 % 1006,2 hPa 0,0 l/m² 7,9 km/h (2 Bft) S 179 ° 0 min 0 W/m² 8,5 °C 9,1 °C 9,7 km/h (2 Bft)
13.10.2024 01:15 21,6 °C 10,3 °C 62 % 89 % 1006,2 hPa 0,0 l/m² 4,7 km/h (1 Bft) O-SO 119 ° 0 min 0 W/m² 8,6 °C 10,3 °C 6,4 km/h (2 Bft)
13.10.2024 01:16 21,6 °C 10,3 °C 62 % 89 % 1006,2 hPa 0,0 l/m² 4,6 km/h (1 Bft) S-SO 160 ° 0 min 0 W/m² 8,6 °C 10,3 °C 8,0 km/h (2 Bft)
13.10.2024 01:17 21,6 °C 10,4 °C 62 % 88 % 1006,1 hPa 0,0 l/m² 6,6 km/h (2 Bft) S-SO 153 ° 0 min 0 W/m² 8,5 °C 10,3 °C 8,0 km/h (2 Bft)
13.10.2024 01:18 21,6 °C 10,5 °C 62 % 88 % 1006,1 hPa 0,0 l/m² 5,6 km/h (2 Bft) S-SO 162 ° 0 min 0 W/m² 8,6 °C 10,5 °C 8,0 km/h (2 Bft)
13.10.2024 01:19 21,6 °C 10,6 °C 62 % 88 % 1006,1 hPa 0,0 l/m² 5,6 km/h (2 Bft) S-SO 154 ° 0 min 0 W/m² 8,7 °C 10,6 °C 8,0 km/h (2 Bft)
13.10.2024 01:21 21,6 °C 10,7 °C 62 % 87 % 1006,1 hPa 0,0 l/m² 7,8 km/h (2 Bft) SO 146 ° 0 min 0 W/m² 8,6 °C 9,7 °C 14,5 km/h (3 Bft)
13.10.2024 01:23 21,6 °C 10,8 °C 62 % 87 % 1006,0 hPa 0,0 l/m² 7,1 km/h (2 Bft) SO 138 ° 0 min 0 W/m² 8,7 °C 10,3 °C 11,3 km/h (2 Bft)
13.10.2024 01:24 21,6 °C 10,8 °C 62 % 87 % 1006,1 hPa 0,0 l/m² 7,8 km/h (2 Bft) S-SO 165 ° 0 min 0 W/m² 8,7 °C 9,8 °C 12,9 km/h (3 Bft)
13.10.2024 01:25 21,6 °C 10,9 °C 62 % 87 % 1006,1 hPa 0,0 l/m² 11,3 km/h (2 Bft) S 173 ° 0 min 0 W/m² 8,8 °C 7,9 °C 17,7 km/h (3 Bft)
13.10.2024 01:26 21,6 °C 10,9 °C 62 % 86 % 1006,0 hPa 0,0 l/m² 8,3 km/h (2 Bft) SO 144 ° 0 min 0 W/m² 8,7 °C 9,6 °C 12,9 km/h (3 Bft)
13.10.2024 01:27 21,6 °C 11,0 °C 62 % 86 % 1006,1 hPa 0,0 l/m² 8,7 km/h (2 Bft) SO 144 ° 0 min 0 W/m² 8,7 °C 9,5 °C 14,5 km/h (3 Bft)
13.10.2024 01:28 21,6 °C 11,0 °C 62 % 86 % 1006,0 hPa 0,0 l/m² 8,5 km/h (2 Bft) S-SO 147 ° 0 min 0 W/m² 8,7 °C 9,6 °C 12,9 km/h (3 Bft)
13.10.2024 01:29 21,6 °C 11,1 °C 62 % 86 % 1006,0 hPa 0,0 l/m² 9,3 km/h (2 Bft) S-SO 147 ° 0 min 0 W/m² 8,8 °C 9,2 °C 16,1 km/h (3 Bft)
13.10.2024 01:31 21,6 °C 11,1 °C 62 % 86 % 1006,0 hPa 0,0 l/m² 9,8 km/h (2 Bft) SO 145 ° 0 min 0 W/m² 8,8 °C 8,9 °C 14,5 km/h (3 Bft)
13.10.2024 01:33 21,6 °C 11,1 °C 62 % 85 % 1005,9 hPa 0,0 l/m² 7,2 km/h (2 Bft) O-SO 123 ° 0 min 0 W/m² 8,7 °C 10,5 °C 9,7 km/h (2 Bft)
13.10.2024 01:34 21,6 °C 11,2 °C 62 % 85 % 1005,9 hPa 0,0 l/m² 10,9 km/h (2 Bft) S 169 ° 0 min 0 W/m² 8,8 °C 8,4 °C 16,1 km/h (3 Bft)
13.10.2024 01:35 21,6 °C 11,2 °C 62 % 85 % 1006,0 hPa 0,0 l/m² 10,1 km/h (2 Bft) S-SO 162 ° 0 min 0 W/m² 8,8 °C 8,9 °C 12,9 km/h (3 Bft)
13.10.2024 01:36 21,6 °C 11,2 °C 62 % 85 % 1005,9 hPa 0,0 l/m² 6,9 km/h (2 Bft) SO 132 ° 0 min 0 W/m² 8,8 °C 10,9 °C 12,9 km/h (3 Bft)
13.10.2024 01:37 21,6 °C 11,2 °C 62 % 85 % 1006,0 hPa 0,0 l/m² 11,5 km/h (2 Bft) S-SO 167 ° 0 min 0 W/m² 8,8 °C 8,1 °C 16,1 km/h (3 Bft)
13.10.2024 01:38 21,6 °C 11,3 °C 62 % 85 % 1005,9 hPa 0,0 l/m² 7,8 km/h (2 Bft) S-SO 148 ° 0 min 0 W/m² 8,9 °C 10,3 °C 12,9 km/h (3 Bft)
13.10.2024 01:39 21,6 °C 11,3 °C 62 % 85 % 1006,0 hPa 0,0 l/m² 6,7 km/h (2 Bft) SO 134 ° 0 min 0 W/m² 8,9 °C 11,1 °C 9,7 km/h (2 Bft)
13.10.2024 01:41 21,6 °C 11,3 °C 62 % 85 % 1005,9 hPa 0,0 l/m² 8,5 km/h (2 Bft) SO 134 ° 0 min 0 W/m² 8,9 °C 9,9 °C 12,9 km/h (3 Bft)
13.10.2024 01:43 21,6 °C 11,3 °C 62 % 85 % 1005,8 hPa 0,0 l/m² 6,3 km/h (2 Bft) O-SO 113 ° 0 min 0 W/m² 8,9 °C 11,3 °C 12,9 km/h (3 Bft)
13.10.2024 01:44 21,6 °C 11,3 °C 62 % 85 % 1005,8 hPa 0,0 l/m² 3,7 km/h (1 Bft) SO 134 ° 0 min 0 W/m² 8,9 °C 11,3 °C 6,4 km/h (2 Bft)
13.10.2024 01:45 21,6 °C 11,3 °C 62 % 85 % 1005,7 hPa 0,0 l/m² 4,1 km/h (1 Bft) SO 132 ° 0 min 0 W/m² 8,9 °C 11,3 °C 4,8 km/h (1 Bft)
13.10.2024 01:46 21,6 °C 11,3 °C 62 % 85 % 1005,7 hPa 0,0 l/m² 6,2 km/h (2 Bft) O-SO 108 ° 0 min 0 W/m² 8,9 °C 11,3 °C 11,3 km/h (2 Bft)
13.10.2024 01:47 21,6 °C 11,3 °C 62 % 85 % 1005,8 hPa 0,0 l/m² 8,4 km/h (2 Bft) SO 142 ° 0 min 0 W/m² 8,9 °C 10,0 °C 11,3 km/h (2 Bft)
13.10.2024 01:48 21,6 °C 11,3 °C 62 % 85 % 1005,8 hPa 0,0 l/m² 4,6 km/h (1 Bft) SO 139 ° 0 min 0 W/m² 8,9 °C 11,3 °C 6,4 km/h (2 Bft)
13.10.2024 01:49 21,6 °C 11,3 °C 62 % 85 % 1005,8 hPa 0,0 l/m² 4,5 km/h (1 Bft) SO 128 ° 0 min 0 W/m² 8,9 °C 11,3 °C 6,4 km/h (2 Bft)
13.10.2024 01:50 21,5 °C 11,3 °C 62 % 85 % 1005,9 hPa 0,0 l/m² 2,3 km/h (1 Bft) SO 127 ° 0 min 0 W/m² 8,9 °C 11,3 °C 3,2 km/h (1 Bft)
13.10.2024 01:51 21,6 °C 11,3 °C 62 % 85 % 1005,8 hPa 0,0 l/m² 1,9 km/h (1 Bft) SO 128 ° 0 min 0 W/m² 8,9 °C 11,3 °C 4,8 km/h (1 Bft)
13.10.2024 01:52 21,5 °C 11,3 °C 62 % 85 % 1005,8 hPa 0,0 l/m² 0,0 km/h (0 Bft) SO 128 ° 0 min 0 W/m² 8,9 °C 11,3 °C 0,0 km/h (0 Bft)
13.10.2024 01:53 21,6 °C 11,3 °C 62 % 85 % 1005,7 hPa 0,0 l/m² 0,7 km/h (0 Bft) SO 128 ° 0 min 0 W/m² 8,9 °C 11,3 °C 3,2 km/h (1 Bft)
13.10.2024 01:54 21,6 °C 11,3 °C 62 % 85 % 1005,8 hPa 0,0 l/m² 1,4 km/h (1 Bft) SO 128 ° 0 min 0 W/m² 8,9 °C 11,3 °C 3,2 km/h (1 Bft)
13.10.2024 01:55 21,6 °C 11,2 °C 62 % 85 % 1005,8 hPa 0,0 l/m² 4,1 km/h (1 Bft) SO 131 ° 0 min 0 W/m² 8,8 °C 11,2 °C 9,7 km/h (2 Bft)
13.10.2024 01:56 21,6 °C 11,2 °C 62 % 85 % 1005,7 hPa 0,0 l/m² 3,0 km/h (1 Bft) SO 146 ° 0 min 0 W/m² 8,8 °C 11,2 °C 4,8 km/h (1 Bft)
13.10.2024 01:57 21,5 °C 11,2 °C 62 % 86 % 1005,8 hPa 0,0 l/m² 2,9 km/h (1 Bft) SO 130 ° 0 min 0 W/m² 8,9 °C 11,2 °C 4,8 km/h (1 Bft)
13.10.2024 01:58 21,6 °C 11,2 °C 62 % 86 % 1005,7 hPa 0,0 l/m² 1,4 km/h (1 Bft) SO 130 ° 0 min 0 W/m² 8,9 °C 11,2 °C 3,2 km/h (1 Bft)
13.10.2024 01:59 21,6 °C 11,2 °C 62 % 86 % 1005,7 hPa 0,0 l/m² 1,9 km/h (1 Bft) SO 128 ° 0 min 0 W/m² 8,9 °C 11,2 °C 3,2 km/h (1 Bft)
13.10.2024 02:01 21,6 °C 11,2 °C 62 % 86 % 1005,6 hPa 0,0 l/m² 3,1 km/h (1 Bft) SO 130 ° 0 min 0 W/m² 8,9 °C 11,2 °C 6,4 km/h (2 Bft)
13.10.2024 02:03 21,5 °C 11,1 °C 62 % 86 % 1005,6 hPa 0,0 l/m² 3,8 km/h (1 Bft) SO 130 ° 0 min 0 W/m² 8,8 °C 11,1 °C 8,0 km/h (2 Bft)
13.10.2024 02:04 21,5 °C 11,1 °C 62 % 86 % 1005,6 hPa 0,0 l/m² 2,3 km/h (1 Bft) SO 130 ° 0 min 0 W/m² 8,8 °C 11,1 °C 4,8 km/h (1 Bft)
13.10.2024 02:05 21,6 °C 11,1 °C 62 % 86 % 1005,6 hPa 0,0 l/m² 3,9 km/h (1 Bft) SO 128 ° 0 min 0 W/m² 8,8 °C 11,1 °C 8,0 km/h (2 Bft)
13.10.2024 02:06 21,5 °C 11,1 °C 62 % 86 % 1005,5 hPa 0,0 l/m² 3,6 km/h (1 Bft) SO 127 ° 0 min 0 W/m² 8,8 °C 11,1 °C 8,0 km/h (2 Bft)
13.10.2024 02:07 21,6 °C 11,1 °C 62 % 86 % 1005,4 hPa 0,0 l/m² 6,0 km/h (2 Bft) SO 124 ° 0 min 0 W/m² 8,8 °C 11,1 °C 8,0 km/h (2 Bft)
13.10.2024 02:08 21,5 °C 11,1 °C 62 % 86 % 1005,4 hPa 0,0 l/m² 7,9 km/h (2 Bft) SO 127 ° 0 min 0 W/m² 8,8 °C 10,1 °C 11,3 km/h (2 Bft)
13.10.2024 02:09 21,5 °C 11,1 °C 62 % 86 % 1005,4 hPa 0,0 l/m² 6,2 km/h (2 Bft) SO 142 ° 0 min 0 W/m² 8,8 °C 11,1 °C 12,9 km/h (3 Bft)
13.10.2024 02:11 21,5 °C 11,1 °C 62 % 87 % 1005,3 hPa 0,0 l/m² 7,8 km/h (2 Bft) SO 126 ° 0 min 0 W/m² 9,0 °C 10,1 °C 14,5 km/h (3 Bft)
13.10.2024 02:13 21,4 °C 11,1 °C 62 % 87 % 1005,2 hPa 0,0 l/m² 5,5 km/h (2 Bft) S-SO 149 ° 0 min 0 W/m² 9,0 °C 11,1 °C 9,7 km/h (2 Bft)
13.10.2024 02:14 21,5 °C 11,1 °C 62 % 87 % 1005,3 hPa 0,0 l/m² 8,9 km/h (2 Bft) O-SO 120 ° 0 min 0 W/m² 9,0 °C 9,4 °C 14,5 km/h (3 Bft)
13.10.2024 02:15 21,5 °C 11,2 °C 62 % 87 % 1005,2 hPa 0,0 l/m² 6,9 km/h (2 Bft) SO 142 ° 0 min 0 W/m² 9,1 °C 10,9 °C 11,3 km/h (2 Bft)
13.10.2024 02:16 21,5 °C 11,1 °C 62 % 87 % 1005,3 hPa 0,0 l/m² 11,7 km/h (2 Bft) SO 143 ° 0 min 0 W/m² 9,0 °C 7,9 °C 17,7 km/h (3 Bft)
13.10.2024 02:17 21,5 °C 11,1 °C 62 % 87 % 1005,2 hPa 0,0 l/m² 7,5 km/h (2 Bft) S-SO 160 ° 0 min 0 W/m² 9,0 °C 10,3 °C 11,3 km/h (2 Bft)
13.10.2024 02:18 21,5 °C 11,1 °C 62 % 87 % 1005,2 hPa 0,0 l/m² 6,5 km/h (2 Bft) S-SO 155 ° 0 min 0 W/m² 9,0 °C 11,1 °C 9,7 km/h (2 Bft)
13.10.2024 02:20 21,5 °C 11,1 °C 62 % 87 % 1005,2 hPa 0,0 l/m² 10,8 km/h (2 Bft) SO 140 ° 0 min 0 W/m² 9,0 °C 8,4 °C 17,7 km/h (3 Bft)
13.10.2024 02:21 21,5 °C 11,2 °C 62 % 87 % 1005,1 hPa 0,0 l/m² 11,3 km/h (2 Bft) S-SO 158 ° 0 min 0 W/m² 9,1 °C 8,2 °C 16,1 km/h (3 Bft)
13.10.2024 02:22 21,4 °C 11,1 °C 62 % 87 % 1005,1 hPa 0,0 l/m² 12,1 km/h (2 Bft) SO 135 ° 0 min 0 W/m² 9,0 °C 7,7 °C 14,5 km/h (3 Bft)
13.10.2024 02:23 21,5 °C 11,2 °C 62 % 87 % 1005,0 hPa 0,0 l/m² 9,2 km/h (2 Bft) S-SO 161 ° 0 min 0 W/m² 9,1 °C 9,4 °C 12,9 km/h (3 Bft)
13.10.2024 02:24 21,5 °C 11,2 °C 62 % 87 % 1005,1 hPa 0,0 l/m² 10,8 km/h (2 Bft) S-SO 150 ° 0 min 0 W/m² 9,1 °C 8,5 °C 12,9 km/h (3 Bft)
13.10.2024 02:25 21,5 °C 11,2 °C 62 % 87 % 1005,1 hPa 0,0 l/m² 8,9 km/h (2 Bft) SO 138 ° 0 min 0 W/m² 9,1 °C 9,6 °C 14,5 km/h (3 Bft)
13.10.2024 02:26 21,4 °C 11,2 °C 62 % 87 % 1005,0 hPa 0,0 l/m² 10,9 km/h (2 Bft) O-SO 116 ° 0 min 0 W/m² 9,1 °C 8,4 °C 17,7 km/h (3 Bft)
13.10.2024 02:27 21,4 °C 11,2 °C 62 % 87 % 1005,0 hPa 0,0 l/m² 11,3 km/h (2 Bft) S-SO 159 ° 0 min 0 W/m² 9,1 °C 8,2 °C 14,5 km/h (3 Bft)
13.10.2024 02:28 21,4 °C 11,2 °C 62 % 87 % 1004,9 hPa 0,0 l/m² 9,3 km/h (2 Bft) S-SO 151 ° 0 min 0 W/m² 9,1 °C 9,3 °C 12,9 km/h (3 Bft)
13.10.2024 02:29 21,4 °C 11,2 °C 62 % 87 % 1004,9 hPa 0,0 l/m² 12,1 km/h (2 Bft) S-SO 149 ° 0 min 0 W/m² 9,1 °C 7,8 °C 16,1 km/h (3 Bft)
13.10.2024 02:31 21,5 °C 11,2 °C 62 % 87 % 1004,9 hPa 0,0 l/m² 13,3 km/h (3 Bft) SO 142 ° 0 min 0 W/m² 9,1 °C 7,3 °C 16,1 km/h (3 Bft)
13.10.2024 02:33 21,5 °C 11,2 °C 62 % 87 % 1004,8 hPa 0,0 l/m² 9,3 km/h (2 Bft) S-SO 161 ° 0 min 0 W/m² 9,1 °C 9,3 °C 14,5 km/h (3 Bft)
13.10.2024 02:34 21,4 °C 11,2 °C 62 % 87 % 1004,8 hPa 0,0 l/m² 11,7 km/h (2 Bft) S-SO 153 ° 0 min 0 W/m² 9,1 °C 8,0 °C 17,7 km/h (3 Bft)
13.10.2024 02:35 21,4 °C 11,2 °C 62 % 87 % 1004,8 hPa 0,0 l/m² 11,3 km/h (2 Bft) S-SO 147 ° 0 min 0 W/m² 9,1 °C 8,2 °C 16,1 km/h (3 Bft)
13.10.2024 02:36 21,4 °C 11,2 °C 62 % 87 % 1004,6 hPa 0,0 l/m² 9,6 km/h (2 Bft) SO 143 ° 0 min 0 W/m² 9,1 °C 9,1 °C 14,5 km/h (3 Bft)
13.10.2024 02:37 21,4 °C 11,2 °C 62 % 87 % 1004,6 hPa 0,0 l/m² 13,0 km/h (3 Bft) S-SO 154 ° 0 min 0 W/m² 9,1 °C 7,4 °C 17,7 km/h (3 Bft)
13.10.2024 02:38 21,4 °C 11,2 °C 62 % 87 % 1004,6 hPa 0,0 l/m² 10,1 km/h (2 Bft) SO 134 ° 0 min 0 W/m² 9,1 °C 8,9 °C 12,9 km/h (3 Bft)
13.10.2024 02:39 21,4 °C 11,2 °C 62 % 87 % 1004,6 hPa 0,0 l/m² 14,5 km/h (3 Bft) S-SO 153 ° 0 min 0 W/m² 9,1 °C 6,8 °C 19,3 km/h (3 Bft)
13.10.2024 02:41 21,4 °C 11,2 °C 62 % 88 % 1004,5 hPa 0,0 l/m² 11,4 km/h (2 Bft) SO 139 ° 0 min 0 W/m² 9,3 °C 8,2 °C 16,1 km/h (3 Bft)
13.10.2024 02:43 21,4 °C 11,2 °C 62 % 88 % 1004,5 hPa 0,0 l/m² 11,6 km/h (2 Bft) S-SO 152 ° 0 min 0 W/m² 9,3 °C 8,1 °C 16,1 km/h (3 Bft)
13.10.2024 02:44 21,5 °C 11,2 °C 62 % 88 % 1004,6 hPa 0,0 l/m² 13,0 km/h (3 Bft) S-SO 165 ° 0 min 0 W/m² 9,3 °C 7,4 °C 16,1 km/h (3 Bft)
13.10.2024 02:45 21,5 °C 11,2 °C 62 % 88 % 1004,5 hPa 0,0 l/m² 11,6 km/h (2 Bft) SO 144 ° 0 min 0 W/m² 9,3 °C 8,1 °C 14,5 km/h (3 Bft)
13.10.2024 02:46 21,4 °C 11,2 °C 61 % 88 % 1004,6 hPa 0,0 l/m² 10,4 km/h (2 Bft) S-SO 159 ° 0 min 0 W/m² 9,3 °C 8,7 °C 12,9 km/h (3 Bft)
13.10.2024 02:47 21,4 °C 11,2 °C 62 % 88 % 1004,6 hPa 0,0 l/m² 14,1 km/h (3 Bft) S-SO 158 ° 0 min 0 W/m² 9,3 °C 7,0 °C 19,3 km/h (3 Bft)
13.10.2024 02:48 21,4 °C 11,2 °C 62 % 88 % 1004,7 hPa 0,0 l/m² 10,5 km/h (2 Bft) S-SO 165 ° 0 min 0 W/m² 9,3 °C 8,7 °C 12,9 km/h (3 Bft)
13.10.2024 02:49 21,4 °C 11,2 °C 62 % 88 % 1004,6 hPa 0,0 l/m² 11,5 km/h (2 Bft) SO 140 ° 0 min 0 W/m² 9,3 °C 8,1 °C 16,1 km/h (3 Bft)
13.10.2024 02:51 21,5 °C 11,2 °C 61 % 87 % 1004,6 hPa 0,0 l/m² 13,0 km/h (3 Bft) S-SO 150 ° 0 min 0 W/m² 9,1 °C 7,4 °C 17,7 km/h (3 Bft)
13.10.2024 02:53 21,5 °C 11,2 °C 61 % 88 % 1004,6 hPa 0,0 l/m² 8,9 km/h (2 Bft) SO 138 ° 0 min 0 W/m² 9,3 °C 9,6 °C 14,5 km/h (3 Bft)
13.10.2024 02:54 21,4 °C 11,2 °C 62 % 88 % 1004,6 hPa 0,0 l/m² 8,2 km/h (2 Bft) SO 139 ° 0 min 0 W/m² 9,3 °C 10,0 °C 11,3 km/h (2 Bft)
13.10.2024 02:55 21,5 °C 11,2 °C 61 % 87 % 1004,7 hPa 0,0 l/m² 10,0 km/h (2 Bft) S-SO 161 ° 0 min 0 W/m² 9,1 °C 8,9 °C 16,1 km/h (3 Bft)
13.10.2024 02:56 21,5 °C 11,3 °C 61 % 87 % 1004,6 hPa 0,0 l/m² 9,3 km/h (2 Bft) S-SO 150 ° 0 min 0 W/m² 9,2 °C 9,4 °C 12,9 km/h (3 Bft)
13.10.2024 02:57 21,5 °C 11,2 °C 61 % 88 % 1004,7 hPa 0,0 l/m² 6,4 km/h (2 Bft) SO 144 ° 0 min 0 W/m² 9,3 °C 11,2 °C 8,0 km/h (2 Bft)
13.10.2024 02:58 21,6 °C 11,2 °C 61 % 88 % 1004,7 hPa 0,0 l/m² 7,8 km/h (2 Bft) S-SO 166 ° 0 min 0 W/m² 9,3 °C 10,2 °C 11,3 km/h (2 Bft)
13.10.2024 02:59 21,5 °C 11,2 °C 61 % 88 % 1004,7 hPa 0,0 l/m² 8,4 km/h (2 Bft) SO 144 ° 0 min 0 W/m² 9,3 °C 9,9 °C 12,9 km/h (3 Bft)
13.10.2024 03:00 21,5 °C 11,2 °C 61 % 88 % 1004,5 hPa 0,0 l/m² 8,5 km/h (2 Bft) S-SO 155 ° 0 min 0 W/m² 9,3 °C 9,8 °C 11,3 km/h (2 Bft)
13.10.2024 03:01 21,5 °C 11,2 °C 61 % 88 % 1004,5 hPa 0,0 l/m² 6,4 km/h (2 Bft) S-SO 157 ° 0 min 0 W/m² 9,3 °C 11,2 °C 9,7 km/h (2 Bft)
13.10.2024 03:10 21,5 °C 11,3 °C 61 % 88 % 1004,3 hPa 0,0 l/m² 3,7 km/h (1 Bft) S-SO 150 ° 0 min 0 W/m² 9,4 °C 11,3 °C 4,8 km/h (1 Bft)
13.10.2024 03:12 21,5 °C 11,3 °C 61 % 88 % 1004,3 hPa 0,0 l/m² 4,8 km/h (1 Bft) SO 146 ° 0 min 0 W/m² 9,4 °C 11,3 °C 9,7 km/h (2 Bft)
13.10.2024 03:13 21,5 °C 11,3 °C 61 % 88 % 1004,3 hPa 0,0 l/m² 5,4 km/h (2 Bft) S-SO 162 ° 0 min 0 W/m² 9,4 °C 11,3 °C 8,0 km/h (2 Bft)
13.10.2024 03:15 21,5 °C 11,3 °C 61 % 87 % 1004,4 hPa 0,0 l/m² 4,8 km/h (1 Bft) S-SO 154 ° 0 min 0 W/m² 9,2 °C 11,3 °C 6,4 km/h (2 Bft)
13.10.2024 03:17 21,5 °C 11,4 °C 61 % 87 % 1004,3 hPa 0,0 l/m² 3,6 km/h (1 Bft) S-SO 147 ° 0 min 0 W/m² 9,3 °C 11,4 °C 11,3 km/h (2 Bft)
13.10.2024 03:19 21,5 °C 11,4 °C 61 % 87 % 1004,4 hPa 0,0 l/m² 5,6 km/h (2 Bft) SO 132 ° 0 min 0 W/m² 9,3 °C 11,4 °C 8,0 km/h (2 Bft)
13.10.2024 03:20 21,6 °C 11,3 °C 61 % 87 % 1004,3 hPa 0,0 l/m² 3,9 km/h (1 Bft) SO 142 ° 0 min 0 W/m² 9,2 °C 11,3 °C 6,4 km/h (2 Bft)
13.10.2024 03:22 21,5 °C 11,4 °C 61 % 87 % 1004,2 hPa 0,0 l/m² 4,5 km/h (1 Bft) S-SO 151 ° 0 min 0 W/m² 9,3 °C 11,4 °C 8,0 km/h (2 Bft)
13.10.2024 03:23 21,5 °C 11,4 °C 61 % 87 % 1004,3 hPa 0,0 l/m² 3,8 km/h (1 Bft) S-SO 153 ° 0 min 0 W/m² 9,3 °C 11,4 °C 8,0 km/h (2 Bft)
13.10.2024 03:25 21,5 °C 11,4 °C 61 % 87 % 1004,2 hPa 0,0 l/m² 6,1 km/h (2 Bft) S 169 ° 0 min 0 W/m² 9,3 °C 11,4 °C 9,7 km/h (2 Bft)
13.10.2024 03:27 21,5 °C 11,4 °C 61 % 87 % 1004,2 hPa 0,0 l/m² 4,8 km/h (1 Bft) S-SO 158 ° 0 min 0 W/m² 9,3 °C 11,4 °C 8,0 km/h (2 Bft)
13.10.2024 03:29 21,5 °C 11,4 °C 61 % 87 % 1004,1 hPa 0,0 l/m² 3,4 km/h (1 Bft) S-SO 153 ° 0 min 0 W/m² 9,3 °C 11,4 °C 6,4 km/h (2 Bft)
13.10.2024 03:30 21,6 °C 11,4 °C 61 % 87 % 1004,2 hPa 0,0 l/m² 6,8 km/h (2 Bft) SO 144 ° 0 min 0 W/m² 9,3 °C 11,1 °C 9,7 km/h (2 Bft)
13.10.2024 03:32 21,5 °C 11,4 °C 61 % 87 % 1004,1 hPa 0,0 l/m² 4,9 km/h (1 Bft) SO 139 ° 0 min 0 W/m² 9,3 °C 11,4 °C 8,0 km/h (2 Bft)
13.10.2024 03:33 21,5 °C 11,4 °C 61 % 87 % 1004,1 hPa 0,0 l/m² 4,4 km/h (1 Bft) S-SO 150 ° 0 min 0 W/m² 9,3 °C 11,4 °C 6,4 km/h (2 Bft)
13.10.2024 03:35 21,5 °C 11,4 °C 61 % 87 % 1004,2 hPa 0,0 l/m² 4,8 km/h (1 Bft) S-SO 163 ° 0 min 0 W/m² 9,3 °C 11,4 °C 8,0 km/h (2 Bft)
13.10.2024 03:37 21,5 °C 11,4 °C 61 % 87 % 1004,1 hPa 0,0 l/m² 4,1 km/h (1 Bft) SO 144 ° 0 min 0 W/m² 9,3 °C 11,4 °C 8,0 km/h (2 Bft)
13.10.2024 03:39 21,5 °C 11,4 °C 61 % 87 % 1004,1 hPa 0,0 l/m² 5,3 km/h (1 Bft) S-SO 155 ° 0 min 0 W/m² 9,3 °C 11,4 °C 9,7 km/h (2 Bft)
13.10.2024 03:40 21,5 °C 11,4 °C 61 % 87 % 1004,1 hPa 0,0 l/m² 5,2 km/h (1 Bft) S-SO 161 ° 0 min 0 W/m² 9,3 °C 11,4 °C 8,0 km/h (2 Bft)
13.10.2024 03:42 21,5 °C 11,4 °C 61 % 87 % 1004,1 hPa 0,0 l/m² 3,3 km/h (1 Bft) S-SO 158 ° 0 min 0 W/m² 9,3 °C 11,4 °C 6,4 km/h (2 Bft)
13.10.2024 03:43 21,5 °C 11,4 °C 61 % 87 % 1004,1 hPa 0,0 l/m² 5,4 km/h (2 Bft) S-SO 155 ° 0 min 0 W/m² 9,3 °C 11,4 °C 8,0 km/h (2 Bft)
13.10.2024 03:45 21,5 °C 11,4 °C 61 % 87 % 1004,0 hPa 0,0 l/m² 5,4 km/h (2 Bft) S-SO 148 ° 0 min 0 W/m² 9,3 °C 11,4 °C 11,3 km/h (2 Bft)
13.10.2024 03:47 21,5 °C 11,5 °C 61 % 87 % 1004,0 hPa 0,0 l/m² 4,2 km/h (1 Bft) SO 140 ° 0 min 0 W/m² 9,4 °C 11,5 °C 6,4 km/h (2 Bft)
13.10.2024 03:48 21,6 °C 11,5 °C 61 % 87 % 1004,0 hPa 0,0 l/m² 3,9 km/h (1 Bft) SO 141 ° 0 min 0 W/m² 9,4 °C 11,5 °C 6,4 km/h (2 Bft)
13.10.2024 03:50 21,6 °C 11,5 °C 61 % 87 % 1003,9 hPa 0,0 l/m² 2,2 km/h (1 Bft) S-SO 149 ° 0 min 0 W/m² 9,4 °C 11,5 °C 4,8 km/h (1 Bft)
13.10.2024 03:51 21,5 °C 11,5 °C 61 % 87 % 1004,0 hPa 0,0 l/m² 1,8 km/h (1 Bft) SO 137 ° 0 min 0 W/m² 9,4 °C 11,5 °C 3,2 km/h (1 Bft)
13.10.2024 03:52 21,5 °C 11,5 °C 61 % 87 % 1003,9 hPa 0,0 l/m² 0,1 km/h (0 Bft) SO 141 ° 0 min 0 W/m² 9,4 °C 11,5 °C 1,6 km/h (1 Bft)
13.10.2024 03:54 21,5 °C 11,6 °C 61 % 87 % 1003,9 hPa 0,0 l/m² 3,5 km/h (1 Bft) S-SO 161 ° 0 min 0 W/m² 9,5 °C 11,6 °C 4,8 km/h (1 Bft)
13.10.2024 03:56 21,5 °C 11,6 °C 61 % 88 % 1003,9 hPa 0,0 l/m² 1,8 km/h (1 Bft) S-SO 153 ° 0 min 0 W/m² 9,7 °C 11,6 °C 3,2 km/h (1 Bft)
13.10.2024 03:58 21,5 °C 11,6 °C 61 % 87 % 1003,8 hPa 0,0 l/m² 1,8 km/h (1 Bft) SO 144 ° 0 min 0 W/m² 9,5 °C 11,6 °C 4,8 km/h (1 Bft)
13.10.2024 04:00 21,5 °C 11,6 °C 61 % 87 % 1003,8 hPa 0,0 l/m² 4,3 km/h (1 Bft) SO 134 ° 0 min 0 W/m² 9,5 °C 11,6 °C 8,0 km/h (2 Bft)
13.10.2024 04:01 21,5 °C 11,6 °C 61 % 87 % 1003,8 hPa 0,0 l/m² 4,0 km/h (1 Bft) S-SO 150 ° 0 min 0 W/m² 9,5 °C 11,6 °C 6,4 km/h (2 Bft)
13.10.2024 04:02 21,5 °C 11,6 °C 61 % 87 % 1003,7 hPa 0,0 l/m² 4,2 km/h (1 Bft) S-SO 150 ° 0 min 0 W/m² 9,5 °C 11,6 °C 6,4 km/h (2 Bft)
13.10.2024 04:04 21,5 °C 11,7 °C 61 % 87 % 1003,7 hPa 0,0 l/m² 7,4 km/h (2 Bft) S-SO 153 ° 0 min 0 W/m² 9,6 °C 11,0 °C 11,3 km/h (2 Bft)
13.10.2024 04:06 21,5 °C 11,7 °C 61 % 87 % 1003,7 hPa 0,0 l/m² 5,7 km/h (2 Bft) SO 144 ° 0 min 0 W/m² 9,6 °C 11,7 °C 9,7 km/h (2 Bft)
13.10.2024 04:08 21,5 °C 11,7 °C 61 % 87 % 1003,7 hPa 0,0 l/m² 7,5 km/h (2 Bft) SO 138 ° 0 min 0 W/m² 9,6 °C 11,0 °C 11,3 km/h (2 Bft)
13.10.2024 04:10 21,5 °C 11,7 °C 61 % 87 % 1003,5 hPa 0,0 l/m² 7,9 km/h (2 Bft) SO 136 ° 0 min 0 W/m² 9,6 °C 10,7 °C 11,3 km/h (2 Bft)
13.10.2024 04:11 21,5 °C 11,7 °C 61 % 87 % 1003,6 hPa 0,0 l/m² 8,5 km/h (2 Bft) S-SO 159 ° 0 min 0 W/m² 9,6 °C 10,3 °C 11,3 km/h (2 Bft)
13.10.2024 04:12 21,5 °C 11,7 °C 61 % 87 % 1003,6 hPa 0,0 l/m² 10,2 km/h (2 Bft) S-SO 157 ° 0 min 0 W/m² 9,6 °C 9,4 °C 14,5 km/h (3 Bft)
13.10.2024 04:14 21,5 °C 11,8 °C 61 % 87 % 1003,5 hPa 0,0 l/m² 7,9 km/h (2 Bft) S-SO 159 ° 0 min 0 W/m² 9,7 °C 10,8 °C 14,5 km/h (3 Bft)
13.10.2024 04:16 21,5 °C 11,8 °C 61 % 87 % 1003,6 hPa 0,0 l/m² 8,1 km/h (2 Bft) S-SO 166 ° 0 min 0 W/m² 9,7 °C 10,7 °C 12,9 km/h (3 Bft)
13.10.2024 04:18 21,5 °C 11,8 °C 61 % 87 % 1003,6 hPa 0,0 l/m² 5,9 km/h (2 Bft) S-SO 151 ° 0 min 0 W/m² 9,7 °C 11,8 °C 9,7 km/h (2 Bft)
13.10.2024 04:20 21,5 °C 11,8 °C 61 % 87 % 1003,5 hPa 0,0 l/m² 5,7 km/h (2 Bft) S 177 ° 0 min 0 W/m² 9,7 °C 11,8 °C 9,7 km/h (2 Bft)
13.10.2024 04:21 21,5 °C 11,8 °C 61 % 87 % 1003,5 hPa 0,0 l/m² 5,1 km/h (1 Bft) S-SO 163 ° 0 min 0 W/m² 9,7 °C 11,8 °C 8,0 km/h (2 Bft)
13.10.2024 04:22 21,5 °C 11,9 °C 61 % 87 % 1003,5 hPa 0,0 l/m² 5,4 km/h (2 Bft) S 172 ° 0 min 0 W/m² 9,8 °C 11,9 °C 8,0 km/h (2 Bft)
13.10.2024 04:24 21,5 °C 11,9 °C 61 % 87 % 1003,6 hPa 0,0 l/m² 7,4 km/h (2 Bft) S-SO 161 ° 0 min 0 W/m² 9,8 °C 11,2 °C 14,5 km/h (3 Bft)
13.10.2024 04:26 21,5 °C 11,9 °C 61 % 87 % 1003,6 hPa 0,0 l/m² 8,1 km/h (2 Bft) S-SO 164 ° 0 min 0 W/m² 9,8 °C 10,8 °C 12,9 km/h (3 Bft)
13.10.2024 04:28 21,5 °C 11,9 °C 61 % 87 % 1003,6 hPa 0,0 l/m² 7,7 km/h (2 Bft) S 174 ° 0 min 0 W/m² 9,8 °C 11,0 °C 9,7 km/h (2 Bft)
13.10.2024 04:30 21,5 °C 11,9 °C 61 % 88 % 1003,5 hPa 0,0 l/m² 7,1 km/h (2 Bft) S 171 ° 0 min 0 W/m² 10,0 °C 11,4 °C 11,3 km/h (2 Bft)
13.10.2024 04:31 21,4 °C 12,0 °C 61 % 88 % 1003,5 hPa 0,0 l/m² 8,2 km/h (2 Bft) S 178 ° 0 min 0 W/m² 10,1 °C 10,8 °C 11,3 km/h (2 Bft)
13.10.2024 04:32 21,5 °C 11,9 °C 61 % 88 % 1003,5 hPa 0,0 l/m² 13,0 km/h (3 Bft) S 180 ° 0 min 0 W/m² 10,0 °C 8,3 °C 17,7 km/h (3 Bft)
13.10.2024 04:34 21,5 °C 12,1 °C 61 % 88 % 1003,6 hPa 0,0 l/m² 12,0 km/h (2 Bft) S 189 ° 0 min 0 W/m² 10,2 °C 8,9 °C 17,7 km/h (3 Bft)
13.10.2024 04:36 21,5 °C 12,1 °C 61 % 88 % 1003,6 hPa 0,0 l/m² 12,5 km/h (2 Bft) S 180 ° 0 min 0 W/m² 10,2 °C 8,7 °C 17,7 km/h (3 Bft)
13.10.2024 04:38 21,4 °C 12,1 °C 61 % 88 % 1003,6 hPa 0,0 l/m² 12,8 km/h (3 Bft) S-SO 162 ° 0 min 0 W/m² 10,2 °C 8,6 °C 17,7 km/h (3 Bft)
13.10.2024 04:40 21,5 °C 12,2 °C 61 % 88 % 1003,6 hPa 0,0 l/m² 11,0 km/h (2 Bft) S-SW 200 ° 0 min 0 W/m² 10,3 °C 9,5 °C 16,1 km/h (3 Bft)
13.10.2024 04:41 21,5 °C 12,2 °C 61 % 88 % 1003,7 hPa 0,0 l/m² 8,8 km/h (2 Bft) S-SW 199 ° 0 min 0 W/m² 10,3 °C 10,7 °C 11,3 km/h (2 Bft)
13.10.2024 04:43 21,4 °C 12,2 °C 61 % 88 % 1003,7 hPa 0,0 l/m² 8,7 km/h (2 Bft) S-SW 195 ° 0 min 0 W/m² 10,3 °C 10,7 °C 11,3 km/h (2 Bft)
13.10.2024 04:44 21,5 °C 12,2 °C 61 % 88 % 1003,7 hPa 0,0 l/m² 9,0 km/h (2 Bft) S-SW 205 ° 0 min 0 W/m² 10,3 °C 10,6 °C 11,3 km/h (2 Bft)
13.10.2024 04:46 21,4 °C 12,3 °C 61 % 88 % 1003,7 hPa 0,0 l/m² 11,5 km/h (2 Bft) S-SW 198 ° 0 min 0 W/m² 10,4 °C 9,4 °C 14,5 km/h (3 Bft)
13.10.2024 04:48 21,5 °C 12,3 °C 61 % 88 % 1003,6 hPa 0,0 l/m² 10,1 km/h (2 Bft) S 189 ° 0 min 0 W/m² 10,4 °C 10,1 °C 12,9 km/h (3 Bft)
13.10.2024 04:50 21,4 °C 12,3 °C 61 % 88 % 1003,4 hPa 0,0 l/m² 8,0 km/h (2 Bft) S-SW 203 ° 0 min 0 W/m² 10,4 °C 11,3 °C 12,9 km/h (3 Bft)
13.10.2024 04:51 21,5 °C 12,3 °C 61 % 88 % 1003,5 hPa 0,0 l/m² 6,2 km/h (2 Bft) S-SW 202 ° 0 min 0 W/m² 10,4 °C 12,3 °C 8,0 km/h (2 Bft)
13.10.2024 04:52 21,4 °C 12,3 °C 61 % 88 % 1003,5 hPa 0,0 l/m² 8,0 km/h (2 Bft) S-SW 210 ° 0 min 0 W/m² 10,4 °C 11,3 °C 11,3 km/h (2 Bft)
13.10.2024 04:54 21,4 °C 12,3 °C 61 % 87 % 1003,5 hPa 0,0 l/m² 8,5 km/h (2 Bft) S 190 ° 0 min 0 W/m² 10,2 °C 11,0 °C 11,3 km/h (2 Bft)
13.10.2024 04:56 21,4 °C 12,2 °C 61 % 87 % 1003,4 hPa 0,0 l/m² 7,8 km/h (2 Bft) S-SW 192 ° 0 min 0 W/m² 10,1 °C 11,3 °C 11,3 km/h (2 Bft)
13.10.2024 04:58 21,4 °C 12,2 °C 61 % 87 % 1003,5 hPa 0,0 l/m² 10,9 km/h (2 Bft) SW 214 ° 0 min 0 W/m² 10,1 °C 9,6 °C 12,9 km/h (3 Bft)
13.10.2024 05:00 21,5 °C 12,2 °C 61 % 87 % 1003,4 hPa 0,0 l/m² 7,5 km/h (2 Bft) S-SW 198 ° 0 min 0 W/m² 10,1 °C 11,5 °C 9,7 km/h (2 Bft)
13.10.2024 05:01 21,4 °C 12,1 °C 61 % 88 % 1003,4 hPa 0,0 l/m² 8,6 km/h (2 Bft) SW 215 ° 0 min 0 W/m² 10,2 °C 10,7 °C 12,9 km/h (3 Bft)
13.10.2024 05:03 21,4 °C 12,1 °C 61 % 88 % 1003,5 hPa 0,0 l/m² 8,7 km/h (2 Bft) SW 217 ° 0 min 0 W/m² 10,2 °C 10,6 °C 11,3 km/h (2 Bft)
13.10.2024 05:04 21,4 °C 12,1 °C 61 % 88 % 1003,5 hPa 0,0 l/m² 9,3 km/h (2 Bft) S 178 ° 0 min 0 W/m² 10,2 °C 10,3 °C 12,9 km/h (3 Bft)
13.10.2024 05:06 21,4 °C 12,1 °C 61 % 88 % 1003,4 hPa 0,0 l/m² 11,2 km/h (2 Bft) SW 217 ° 0 min 0 W/m² 10,2 °C 9,3 °C 19,3 km/h (3 Bft)
13.10.2024 05:08 21,4 °C 12,1 °C 61 % 88 % 1003,4 hPa 0,0 l/m² 11,3 km/h (2 Bft) S-SW 212 ° 0 min 0 W/m² 10,2 °C 9,3 °C 16,1 km/h (3 Bft)
13.10.2024 05:10 21,4 °C 12,1 °C 61 % 88 % 1003,4 hPa 0,0 l/m² 11,1 km/h (2 Bft) S-SW 203 ° 0 min 0 W/m² 10,2 °C 9,4 °C 16,1 km/h (3 Bft)
13.10.2024 05:11 21,4 °C 12,1 °C 61 % 88 % 1003,3 hPa 0,0 l/m² 11,4 km/h (2 Bft) SW 223 ° 0 min 0 W/m² 10,2 °C 9,2 °C 17,7 km/h (3 Bft)
13.10.2024 05:13 21,4 °C 12,2 °C 61 % 88 % 1003,3 hPa 0,0 l/m² 12,6 km/h (3 Bft) SW 215 ° 0 min 0 W/m² 10,3 °C 8,8 °C 17,7 km/h (3 Bft)
13.10.2024 05:14 21,4 °C 12,2 °C 61 % 88 % 1003,3 hPa 0,0 l/m² 10,4 km/h (2 Bft) S-SW 212 ° 0 min 0 W/m² 10,3 °C 9,8 °C 12,9 km/h (3 Bft)
13.10.2024 05:16 21,4 °C 12,2 °C 61 % 88 % 1003,3 hPa 0,0 l/m² 9,7 km/h (2 Bft) SW 214 ° 0 min 0 W/m² 10,3 °C 10,2 °C 14,5 km/h (3 Bft)
13.10.2024 05:18 21,4 °C 12,2 °C 61 % 88 % 1003,1 hPa 0,0 l/m² 16,5 km/h (3 Bft) SW 219 ° 0 min 0 W/m² 10,3 °C 7,3 °C 22,5 km/h (4 Bft)
13.10.2024 05:20 21,4 °C 12,3 °C 61 % 88 % 1003,1 hPa 0,0 l/m² 15,6 km/h (3 Bft) W-SW 246 ° 0 min 0 W/m² 10,4 °C 7,7 °C 19,3 km/h (3 Bft)
13.10.2024 05:21 21,4 °C 12,3 °C 61 % 88 % 1003,1 hPa 0,0 l/m² 14,4 km/h (3 Bft) SW 220 ° 0 min 0 W/m² 10,4 °C 8,2 °C 19,3 km/h (3 Bft)
13.10.2024 05:23 21,4 °C 12,3 °C 61 % 88 % 1003,1 hPa 0,0 l/m² 16,1 km/h (3 Bft) SW 219 ° 0 min 0 W/m² 10,4 °C 7,5 °C 24,1 km/h (4 Bft)
13.10.2024 05:24 21,4 °C 12,3 °C 61 % 88 % 1003,1 hPa 0,0 l/m² 18,4 km/h (3 Bft) W 259 ° 0 min 0 W/m² 10,4 °C 6,7 °C 27,4 km/h (5 Bft)
13.10.2024 05:26 21,4 °C 12,4 °C 61 % 88 % 1003,3 hPa 0,0 l/m² 17,6 km/h (3 Bft) SW 222 ° 0 min 0 W/m² 10,5 °C 7,1 °C 29,0 km/h (5 Bft)
13.10.2024 05:28 21,4 °C 12,4 °C 61 % 88 % 1003,2 hPa 0,0 l/m² 17,2 km/h (3 Bft) S-SW 213 ° 0 min 0 W/m² 10,5 °C 7,3 °C 24,1 km/h (4 Bft)
13.10.2024 05:30 21,4 °C 12,4 °C 61 % 88 % 1003,2 hPa 0,0 l/m² 16,7 km/h (3 Bft) SW 217 ° 0 min 0 W/m² 10,5 °C 7,4 °C 20,9 km/h (4 Bft)
13.10.2024 05:31 21,4 °C 12,5 °C 61 % 88 % 1003,2 hPa 0,0 l/m² 20,1 km/h (4 Bft) SW 227 ° 0 min 0 W/m² 10,6 °C 6,5 °C 32,2 km/h (5 Bft)
13.10.2024 05:33 21,4 °C 12,5 °C 61 % 88 % 1003,3 hPa 0,0 l/m² 16,4 km/h (3 Bft) W-SW 237 ° 0 min 0 W/m² 10,6 °C 7,7 °C 30,6 km/h (5 Bft)
13.10.2024 05:34 21,4 °C 12,6 °C 61 % 88 % 1003,3 hPa 0,0 l/m² 15,5 km/h (3 Bft) SW 218 ° 0 min 0 W/m² 10,7 °C 8,1 °C 19,3 km/h (3 Bft)
13.10.2024 05:36 21,4 °C 12,5 °C 61 % 88 % 1003,3 hPa 0,0 l/m² 13,2 km/h (3 Bft) SW 217 ° 0 min 0 W/m² 10,6 °C 8,9 °C 20,9 km/h (4 Bft)
13.10.2024 05:38 21,4 °C 12,5 °C 61 % 88 % 1003,3 hPa 0,0 l/m² 18,9 km/h (3 Bft) SW 222 ° 0 min 0 W/m² 10,6 °C 6,8 °C 27,4 km/h (5 Bft)
13.10.2024 05:40 21,4 °C 12,6 °C 61 % 88 % 1003,4 hPa 0,0 l/m² 20,0 km/h (4 Bft) SW 230 ° 0 min 0 W/m² 10,7 °C 6,6 °C 33,8 km/h (5 Bft)
13.10.2024 05:41 21,4 °C 12,6 °C 61 % 88 % 1003,4 hPa 0,0 l/m² 20,2 km/h (4 Bft) W-SW 254 ° 0 min 0 W/m² 10,7 °C 6,6 °C 27,4 km/h (5 Bft)
13.10.2024 05:43 21,4 °C 12,7 °C 61 % 88 % 1003,4 hPa 0,0 l/m² 18,6 km/h (3 Bft) SW 231 ° 0 min 0 W/m² 10,8 °C 7,2 °C 27,4 km/h (5 Bft)
13.10.2024 05:44 21,4 °C 12,7 °C 61 % 88 % 1003,4 hPa 0,0 l/m² 16,6 km/h (3 Bft) SW 229 ° 0 min 0 W/m² 10,8 °C 7,8 °C 22,5 km/h (4 Bft)
13.10.2024 05:46 21,4 °C 12,7 °C 61 % 88 % 1003,4 hPa 0,0 l/m² 19,9 km/h (4 Bft) SW 228 ° 0 min 0 W/m² 10,8 °C 6,8 °C 25,7 km/h (4 Bft)
13.10.2024 05:48 21,4 °C 12,7 °C 61 % 88 % 1003,4 hPa 0,0 l/m² 21,9 km/h (4 Bft) SW 227 ° 0 min 0 W/m² 10,8 °C 6,3 °C 32,2 km/h (5 Bft)
13.10.2024 05:50 21,4 °C 12,8 °C 61 % 88 % 1003,3 hPa 0,0 l/m² 17,0 km/h (3 Bft) SW 221 ° 0 min 0 W/m² 10,9 °C 7,8 °C 24,1 km/h (4 Bft)
13.10.2024 05:51 21,4 °C 12,8 °C 61 % 87 % 1003,3 hPa 0,0 l/m² 17,2 km/h (3 Bft) SW 214 ° 0 min 0 W/m² 10,7 °C 7,8 °C 22,5 km/h (4 Bft)
13.10.2024 05:53 21,4 °C 12,8 °C 61 % 87 % 1003,3 hPa 0,0 l/m² 15,6 km/h (3 Bft) SW 223 ° 0 min 0 W/m² 10,7 °C 8,3 °C 20,9 km/h (4 Bft)
13.10.2024 05:54 21,4 °C 12,8 °C 61 % 87 % 1003,2 hPa 0,0 l/m² 17,4 km/h (3 Bft) SW 214 ° 0 min 0 W/m² 10,7 °C 7,7 °C 22,5 km/h (4 Bft)
13.10.2024 05:56 21,4 °C 12,8 °C 61 % 87 % 1003,3 hPa 0,0 l/m² 14,3 km/h (3 Bft) SW 222 ° 0 min 0 W/m² 10,7 °C 8,8 °C 20,9 km/h (4 Bft)
13.10.2024 05:58 21,4 °C 12,8 °C 61 % 87 % 1003,3 hPa 0,0 l/m² 13,7 km/h (3 Bft) SW 219 ° 0 min 0 W/m² 10,7 °C 9,0 °C 17,7 km/h (3 Bft)
13.10.2024 06:00 21,4 °C 12,7 °C 61 % 87 % 1003,3 hPa 0,0 l/m² 16,0 km/h (3 Bft) S-SW 212 ° 0 min 0 W/m² 10,6 °C 8,0 °C 22,5 km/h (4 Bft)
13.10.2024 06:01 21,4 °C 12,7 °C 61 % 87 % 1003,4 hPa 0,0 l/m² 15,1 km/h (3 Bft) S-SW 213 ° 0 min 0 W/m² 10,6 °C 8,4 °C 20,9 km/h (4 Bft)
13.10.2024 06:03 21,4 °C 12,7 °C 61 % 87 % 1003,4 hPa 0,0 l/m² 15,8 km/h (3 Bft) SW 227 ° 0 min 0 W/m² 10,6 °C 8,1 °C 20,9 km/h (4 Bft)
13.10.2024 06:04 21,4 °C 12,7 °C 61 % 87 % 1003,5 hPa 0,0 l/m² 20,2 km/h (4 Bft) SW 223 ° 0 min 0 W/m² 10,6 °C 6,7 °C 29,0 km/h (5 Bft)
13.10.2024 06:06 21,4 °C 12,7 °C 61 % 87 % 1003,6 hPa 0,0 l/m² 18,7 km/h (3 Bft) SW 218 ° 0 min 0 W/m² 10,6 °C 7,2 °C 27,4 km/h (5 Bft)
13.10.2024 06:08 21,4 °C 12,7 °C 61 % 87 % 1003,6 hPa 0,0 l/m² 17,2 km/h (3 Bft) W-SW 248 ° 0 min 0 W/m² 10,6 °C 7,6 °C 25,7 km/h (4 Bft)
13.10.2024 06:10 21,4 °C 12,7 °C 61 % 86 % 1003,6 hPa 0,0 l/m² 15,7 km/h (3 Bft) W-SW 240 ° 0 min 0 W/m² 10,4 °C 8,2 °C 22,5 km/h (4 Bft)
13.10.2024 06:11 21,4 °C 12,7 °C 61 % 86 % 1003,5 hPa 0,0 l/m² 13,9 km/h (3 Bft) W-SW 242 ° 0 min 0 W/m² 10,4 °C 8,8 °C 17,7 km/h (3 Bft)
13.10.2024 06:13 21,4 °C 12,7 °C 61 % 86 % 1003,7 hPa 0,0 l/m² 17,1 km/h (3 Bft) SW 222 ° 0 min 0 W/m² 10,4 °C 7,7 °C 25,7 km/h (4 Bft)
13.10.2024 06:14 21,4 °C 12,7 °C 61 % 86 % 1003,6 hPa 0,0 l/m² 18,4 km/h (3 Bft) SW 217 ° 0 min 0 W/m² 10,4 °C 7,3 °C 22,5 km/h (4 Bft)
13.10.2024 06:16 21,4 °C 12,8 °C 61 % 86 % 1003,8 hPa 0,0 l/m² 20,6 km/h (4 Bft) SW 232 ° 0 min 0 W/m² 10,5 °C 6,7 °C 29,0 km/h (5 Bft)
13.10.2024 06:18 21,4 °C 12,8 °C 61 % 86 % 1004,2 hPa 0,0 l/m² 26,6 km/h (4 Bft) W-SW 242 ° 0 min 0 W/m² 10,5 °C 5,3 °C 40,2 km/h (6 Bft)
13.10.2024 06:20 21,4 °C 12,8 °C 61 % 86 % 1004,4 hPa 0,6 l/m² 24,8 km/h (4 Bft) W-SW 257 ° 0 min 0 W/m² 10,5 °C 5,7 °C 45,1 km/h (6 Bft)
13.10.2024 06:21 21,4 °C 12,6 °C 61 % 85 % 1004,2 hPa 0,2 l/m² 30,6 km/h (5 Bft) W-NW 284 ° 0 min 0 W/m² 10,1 °C 4,2 °C 53,1 km/h (7 Bft)
13.10.2024 06:23 21,4 °C 12,4 °C 61 % 84 % 1004,4 hPa 0,0 l/m² 31,6 km/h (5 Bft) W 261 ° 0 min 0 W/m² 9,8 °C 3,7 °C 56,3 km/h (7 Bft)
13.10.2024 06:24 21,4 °C 12,2 °C 61 % 84 % 1004,4 hPa 0,0 l/m² 23,7 km/h (4 Bft) W-SW 244 ° 0 min 0 W/m² 9,6 °C 5,1 °C 37,0 km/h (5 Bft)
13.10.2024 06:25 21,4 °C 12,1 °C 61 % 84 % 1004,4 hPa 0,2 l/m² 18,8 km/h (3 Bft) W 263 ° 0 min 0 W/m² 9,5 °C 6,4 °C 35,4 km/h (5 Bft)
13.10.2024 06:27 21,4 °C 11,8 °C 61 % 84 % 1004,4 hPa 0,0 l/m² 23,2 km/h (4 Bft) W 263 ° 0 min 0 W/m² 9,2 °C 4,7 °C 43,5 km/h (6 Bft)
13.10.2024 06:29 21,4 °C 11,6 °C 61 % 84 % 1004,5 hPa 0,0 l/m² 26,9 km/h (4 Bft) W-SW 256 ° 0 min 0 W/m² 9,0 °C 3,6 °C 38,6 km/h (6 Bft)
13.10.2024 06:31 21,4 °C 11,4 °C 61 % 83 % 1004,4 hPa 0,0 l/m² 19,3 km/h (3 Bft) W 265 ° 0 min 0 W/m² 8,6 °C 5,3 °C 32,2 km/h (5 Bft)
13.10.2024 06:32 21,4 °C 11,3 °C 61 % 83 % 1004,5 hPa 0,0 l/m² 23,2 km/h (4 Bft) W-SW 245 ° 0 min 0 W/m² 8,5 °C 4,1 °C 33,8 km/h (5 Bft)
13.10.2024 06:33 21,4 °C 11,3 °C 61 % 83 % 1004,5 hPa 0,0 l/m² 15,8 km/h (3 Bft) W 278 ° 0 min 0 W/m² 8,5 °C 6,4 °C 22,5 km/h (4 Bft)
13.10.2024 06:35 21,3 °C 11,2 °C 61 % 84 % 1004,5 hPa 0,0 l/m² 21,7 km/h (4 Bft) W 281 ° 0 min 0 W/m² 8,6 °C 4,3 °C 32,2 km/h (5 Bft)
13.10.2024 06:37 21,3 °C 11,1 °C 61 % 83 % 1004,5 hPa 0,0 l/m² 27,3 km/h (5 Bft) W-SW 252 ° 0 min 0 W/m² 8,3 °C 2,8 °C 48,3 km/h (6 Bft)
13.10.2024 06:39 21,4 °C 11,1 °C 61 % 82 % 1004,5 hPa 0,0 l/m² 24,8 km/h (4 Bft) W 263 ° 0 min 0 W/m² 8,1 °C 3,4 °C 35,4 km/h (5 Bft)
13.10.2024 06:41 21,4 °C 11,1 °C 61 % 81 % 1004,7 hPa 0,0 l/m² 27,4 km/h (5 Bft) W 274 ° 0 min 0 W/m² 8,0 °C 2,8 °C 45,1 km/h (6 Bft)
13.10.2024 06:42 21,3 °C 11,1 °C 61 % 81 % 1004,8 hPa 0,0 l/m² 23,6 km/h (4 Bft) W-NW 298 ° 0 min 0 W/m² 8,0 °C 3,7 °C 33,8 km/h (5 Bft)
13.10.2024 06:43 21,3 °C 11,1 °C 61 % 81 % 1004,8 hPa 0,0 l/m² 17,9 km/h (3 Bft) W 269 ° 0 min 0 W/m² 8,0 °C 5,4 °C 22,5 km/h (4 Bft)
13.10.2024 06:45 21,4 °C 11,1 °C 61 % 81 % 1004,8 hPa 0,0 l/m² 18,2 km/h (3 Bft) W-SW 248 ° 0 min 0 W/m² 8,0 °C 5,3 °C 27,4 km/h (5 Bft)
13.10.2024 06:46 21,3 °C 11,1 °C 61 % 81 % 1005,0 hPa 0,0 l/m² 20,9 km/h (4 Bft) W 270 ° 0 min 0 W/m² 8,0 °C 4,4 °C 27,4 km/h (5 Bft)
13.10.2024 06:47 21,4 °C 11,0 °C 61 % 81 % 1004,9 hPa 0,0 l/m² 18,6 km/h (3 Bft) W-SW 254 ° 0 min 0 W/m² 7,9 °C 5,0 °C 27,4 km/h (5 Bft)
13.10.2024 06:48 21,3 °C 11,0 °C 61 % 81 % 1004,9 hPa 0,0 l/m² 16,8 km/h (3 Bft) W-SW 254 ° 0 min 0 W/m² 7,9 °C 5,7 °C 27,4 km/h (5 Bft)
13.10.2024 06:50 21,4 °C 11,0 °C 61 % 80 % 1004,9 hPa 0,0 l/m² 15,1 km/h (3 Bft) W 263 ° 0 min 0 W/m² 7,7 °C 6,3 °C 22,5 km/h (4 Bft)
13.10.2024 06:51 21,3 °C 10,9 °C 61 % 81 % 1004,9 hPa 0,0 l/m² 15,3 km/h (3 Bft) W-SW 257 ° 0 min 0 W/m² 7,8 °C 6,1 °C 25,7 km/h (4 Bft)
13.10.2024 06:53 21,3 °C 10,9 °C 61 % 81 % 1005,0 hPa 0,0 l/m² 13,1 km/h (3 Bft) W 277 ° 0 min 0 W/m² 7,8 °C 7,0 °C 22,5 km/h (4 Bft)
13.10.2024 06:54 21,3 °C 10,9 °C 61 % 81 % 1005,0 hPa 0,0 l/m² 10,3 km/h (2 Bft) W 272 ° 0 min 0 W/m² 7,8 °C 8,4 °C 16,1 km/h (3 Bft)
13.10.2024 06:56 21,3 °C 10,8 °C 61 % 82 % 1005,1 hPa 0,0 l/m² 9,4 km/h (2 Bft) W-SW 251 ° 0 min 0 W/m² 7,9 °C 8,8 °C 14,5 km/h (3 Bft)
13.10.2024 06:58 21,3 °C 10,7 °C 61 % 82 % 1005,0 hPa 0,0 l/m² 7,6 km/h (2 Bft) W-SW 254 ° 0 min 0 W/m² 7,8 °C 9,9 °C 16,1 km/h (3 Bft)
13.10.2024 07:00 21,3 °C 10,6 °C 61 % 83 % 1005,1 hPa 0,0 l/m² 10,2 km/h (2 Bft) W-SW 256 ° 0 min 0 W/m² 7,8 °C 8,1 °C 19,3 km/h (3 Bft)
13.10.2024 07:01 21,3 °C 10,6 °C 61 % 82 % 1005,1 hPa 0,0 l/m² 14,7 km/h (3 Bft) W-SW 256 ° 0 min 0 W/m² 7,7 °C 6,0 °C 19,3 km/h (3 Bft)
13.10.2024 07:03 21,3 °C 10,6 °C 61 % 82 % 1005,1 hPa 0,0 l/m² 15,9 km/h (3 Bft) W-SW 251 ° 0 min 0 W/m² 7,7 °C 5,5 °C 20,9 km/h (4 Bft)
13.10.2024 07:04 21,3 °C 10,6 °C 61 % 82 % 1005,2 hPa 0,0 l/m² 16,6 km/h (3 Bft) W-SW 258 ° 0 min 0 W/m² 7,7 °C 5,2 °C 22,5 km/h (4 Bft)
13.10.2024 07:06 21,3 °C 10,5 °C 61 % 82 % 1005,1 hPa 0,0 l/m² 13,4 km/h (3 Bft) W-SW 249 ° 0 min 0 W/m² 7,6 °C 6,4 °C 17,7 km/h (3 Bft)
13.10.2024 07:08 21,3 °C 10,5 °C 61 % 82 % 1005,1 hPa 0,0 l/m² 14,8 km/h (3 Bft) W-SW 238 ° 0 min 0 W/m² 7,6 °C 5,8 °C 20,9 km/h (4 Bft)
13.10.2024 07:10 21,3 °C 10,5 °C 61 % 82 % 1005,1 hPa 0,0 l/m² 12,7 km/h (3 Bft) W 262 ° 0 min 0 W/m² 7,6 °C 6,8 °C 19,3 km/h (3 Bft)
13.10.2024 07:11 21,3 °C 10,6 °C 61 % 82 % 1005,0 hPa 0,0 l/m² 12,0 km/h (2 Bft) W-SW 244 ° 0 min 0 W/m² 7,7 °C 7,2 °C 17,7 km/h (3 Bft)
13.10.2024 07:13 21,3 °C 10,5 °C 61 % 82 % 1005,1 hPa 0,0 l/m² 8,9 km/h (2 Bft) W-SW 254 ° 0 min 0 W/m² 7,6 °C 8,8 °C 12,9 km/h (3 Bft)
13.10.2024 07:14 21,3 °C 10,5 °C 61 % 82 % 1005,2 hPa 0,0 l/m² 7,4 km/h (2 Bft) W 261 ° 0 min 0 W/m² 7,6 °C 9,8 °C 12,9 km/h (3 Bft)
13.10.2024 07:16 21,3 °C 10,4 °C 61 % 82 % 1005,2 hPa 0,0 l/m² 8,6 km/h (2 Bft) W-SW 256 ° 0 min 0 W/m² 7,5 °C 8,9 °C 14,5 km/h (3 Bft)
13.10.2024 07:18 21,3 °C 10,4 °C 61 % 82 % 1005,2 hPa 0,0 l/m² 8,7 km/h (2 Bft) W 262 ° 0 min 0 W/m² 7,5 °C 8,8 °C 12,9 km/h (3 Bft)
13.10.2024 07:20 21,3 °C 10,3 °C 61 % 83 % 1005,2 hPa 0,0 l/m² 9,7 km/h (2 Bft) W-SW 247 ° 0 min 0 W/m² 7,5 °C 8,1 °C 14,5 km/h (3 Bft)
13.10.2024 07:21 21,3 °C 10,3 °C 61 % 83 % 1005,2 hPa 0,0 l/m² 8,3 km/h (2 Bft) W-SW 257 ° 0 min 0 W/m² 7,5 °C 9,0 °C 14,5 km/h (3 Bft)
13.10.2024 07:23 21,3 °C 10,2 °C 61 % 83 % 1005,2 hPa 0,0 l/m² 8,2 km/h (2 Bft) SW 229 ° 0 min 0 W/m² 7,4 °C 8,9 °C 14,5 km/h (3 Bft)
13.10.2024 07:25 21,3 °C 10,1 °C 61 % 83 % 1005,2 hPa 0,0 l/m² 8,8 km/h (2 Bft) W-SW 243 ° 0 min 0 W/m² 7,3 °C 8,4 °C 12,9 km/h (3 Bft)
13.10.2024 07:26 21,3 °C 10,0 °C 61 % 84 % 1005,3 hPa 0,0 l/m² 10,8 km/h (2 Bft) SW 235 ° 0 min 0 W/m² 7,4 °C 7,1 °C 14,5 km/h (3 Bft)
13.10.2024 07:27 21,3 °C 10,0 °C 61 % 84 % 1005,4 hPa 0,0 l/m² 7,8 km/h (2 Bft) W-SW 251 ° 0 min 0 W/m² 7,4 °C 9,0 °C 11,3 km/h (2 Bft)
13.10.2024 07:29 21,3 °C 9,9 °C 61 % 84 % 1005,5 hPa 0,0 l/m² 10,7 km/h (2 Bft) W-SW 249 ° 0 min 0 W/m² 7,3 °C 7,1 °C 14,5 km/h (3 Bft)
13.10.2024 07:31 21,3 °C 9,9 °C 61 % 84 % 1005,5 hPa 0,0 l/m² 10,5 km/h (2 Bft) W-SW 241 ° 0 min 0 W/m² 7,3 °C 7,2 °C 14,5 km/h (3 Bft)
13.10.2024 07:32 21,3 °C 9,8 °C 61 % 84 % 1005,6 hPa 0,0 l/m² 12,0 km/h (2 Bft) W-SW 251 ° 0 min 0 W/m² 7,2 °C 6,3 °C 16,1 km/h (3 Bft)
13.10.2024 07:33 21,3 °C 9,8 °C 61 % 84 % 1005,6 hPa 0,0 l/m² 10,1 km/h (2 Bft) W-SW 254 ° 0 min 0 W/m² 7,2 °C 7,3 °C 12,9 km/h (3 Bft)
13.10.2024 07:35 21,3 °C 9,8 °C 61 % 84 % 1005,6 hPa 0,0 l/m² 12,4 km/h (2 Bft) SW 227 ° 0 min 0 W/m² 7,2 °C 6,1 °C 16,1 km/h (3 Bft)
13.10.2024 07:37 21,3 °C 9,8 °C 61 % 84 % 1005,6 hPa 0,0 l/m² 11,5 km/h (2 Bft) W-SW 237 ° 0 min 0 W/m² 7,2 °C 6,5 °C 16,1 km/h (3 Bft)
13.10.2024 07:39 21,3 °C 9,8 °C 61 % 83 % 1005,6 hPa 0,0 l/m² 16,9 km/h (3 Bft) W 261 ° 0 min 0 W/m² 7,1 °C 4,1 °C 25,7 km/h (4 Bft)
13.10.2024 07:41 21,3 °C 9,8 °C 61 % 83 % 1005,5 hPa 0,0 l/m² 15,4 km/h (3 Bft) W-SW 245 ° 0 min 0 W/m² 7,1 °C 4,7 °C 22,5 km/h (4 Bft)
13.10.2024 07:42 21,3 °C 9,8 °C 61 % 83 % 1005,6 hPa 0,0 l/m² 15,3 km/h (3 Bft) W-SW 243 ° 0 min 0 W/m² 7,1 °C 4,8 °C 19,3 km/h (3 Bft)
13.10.2024 07:43 21,3 °C 9,9 °C 61 % 83 % 1005,6 hPa 0,0 l/m² 12,3 km/h (2 Bft) W-SW 255 ° 0 min 0 W/m² 7,2 °C 6,2 °C 16,1 km/h (3 Bft)
13.10.2024 07:44 21,3 °C 9,8 °C 61 % 83 % 1005,7 hPa 0,0 l/m² 14,6 km/h (3 Bft) W-SW 248 ° 0 min 0 W/m² 7,1 °C 5,1 °C 17,7 km/h (3 Bft)
13.10.2024 07:45 21,3 °C 9,8 °C 61 % 83 % 1005,7 hPa 0,0 l/m² 14,6 km/h (3 Bft) W-SW 254 ° 0 min 5 W/m² 7,1 °C 5,1 °C 17,7 km/h (3 Bft)
13.10.2024 07:47 21,3 °C 9,8 °C 61 % 83 % 1005,8 hPa 0,0 l/m² 13,2 km/h (3 Bft) W-SW 251 ° 0 min 5 W/m² 7,1 °C 5,7 °C 17,7 km/h (3 Bft)
13.10.2024 07:49 21,3 °C 9,8 °C 61 % 83 % 1005,8 hPa 0,0 l/m² 14,2 km/h (3 Bft) W-SW 242 ° 0 min 5 W/m² 7,1 °C 5,2 °C 20,9 km/h (4 Bft)
13.10.2024 07:51 21,3 °C 9,8 °C 61 % 82 % 1005,9 hPa 0,0 l/m² 14,4 km/h (3 Bft) W-SW 244 ° 0 min 7 W/m² 6,9 °C 5,2 °C 20,9 km/h (4 Bft)
13.10.2024 07:52 21,3 °C 9,7 °C 61 % 82 % 1005,9 hPa 0,0 l/m² 13,5 km/h (3 Bft) SW 221 ° 0 min 7 W/m² 6,8 °C 5,4 °C 17,7 km/h (3 Bft)
13.10.2024 07:53 21,3 °C 9,7 °C 61 % 83 % 1006,0 hPa 0,0 l/m² 14,4 km/h (3 Bft) SW 236 ° 0 min 7 W/m² 7,0 °C 5,0 °C 20,9 km/h (4 Bft)
13.10.2024 07:55 21,3 °C 9,7 °C 61 % 82 % 1006,0 hPa 0,0 l/m² 16,8 km/h (3 Bft) SW 226 ° 0 min 9 W/m² 6,8 °C 4,0 °C 20,9 km/h (4 Bft)
13.10.2024 07:57 21,3 °C 9,7 °C 61 % 82 % 1006,1 hPa 0,0 l/m² 18,1 km/h (3 Bft) SW 226 ° 0 min 9 W/m² 6,8 °C 3,6 °C 24,1 km/h (4 Bft)
13.10.2024 07:59 21,3 °C 9,7 °C 61 % 82 % 1006,0 hPa 0,0 l/m² 18,9 km/h (3 Bft) W-SW 243 ° 0 min 9 W/m² 6,8 °C 3,3 °C 25,7 km/h (4 Bft)
13.10.2024 08:01 21,3 °C 9,7 °C 61 % 81 % 1006,1 hPa 0,0 l/m² 18,3 km/h (3 Bft) SW 234 ° 0 min 11 W/m² 6,6 °C 3,5 °C 25,7 km/h (4 Bft)
13.10.2024 08:02 21,3 °C 9,6 °C 61 % 81 % 1006,2 hPa 0,0 l/m² 16,6 km/h (3 Bft) SW 227 ° 0 min 12 W/m² 6,5 °C 4,0 °C 19,3 km/h (3 Bft)
13.10.2024 08:03 21,2 °C 9,6 °C 61 % 81 % 1006,2 hPa 0,0 l/m² 18,6 km/h (3 Bft) W-SW 244 ° 0 min 12 W/m² 6,5 °C 3,2 °C 20,9 km/h (4 Bft)
13.10.2024 08:05 21,3 °C 9,6 °C 61 % 81 % 1006,3 hPa 0,0 l/m² 20,0 km/h (4 Bft) W-SW 238 ° 0 min 14 W/m² 6,5 °C 2,8 °C 25,7 km/h (4 Bft)
13.10.2024 08:07 21,3 °C 9,6 °C 61 % 81 % 1006,3 hPa 0,0 l/m² 13,5 km/h (3 Bft) W-SW 238 ° 0 min 12 W/m² 6,5 °C 5,3 °C 20,9 km/h (4 Bft)
13.10.2024 08:09 21,3 °C 9,5 °C 61 % 81 % 1006,4 hPa 0,0 l/m² 15,4 km/h (3 Bft) S-SW 192 ° 0 min 12 W/m² 6,4 °C 4,4 °C 25,7 km/h (4 Bft)
13.10.2024 08:11 21,3 °C 9,4 °C 61 % 81 % 1006,5 hPa 0,0 l/m² 16,3 km/h (3 Bft) SW 225 ° 0 min 14 W/m² 6,3 °C 3,9 °C 22,5 km/h (4 Bft)
13.10.2024 08:12 21,3 °C 9,4 °C 61 % 81 % 1006,5 hPa 0,0 l/m² 13,5 km/h (3 Bft) SW 228 ° 0 min 14 W/m² 6,3 °C 5,1 °C 22,5 km/h (4 Bft)
13.10.2024 08:13 21,3 °C 9,4 °C 61 % 81 % 1006,5 hPa 0,0 l/m² 17,1 km/h (3 Bft) W-SW 245 ° 0 min 14 W/m² 6,3 °C 3,6 °C 24,1 km/h (4 Bft)
13.10.2024 08:15 21,3 °C 9,4 °C 61 % 81 % 1006,5 hPa 0,0 l/m² 14,1 km/h (3 Bft) W-SW 237 ° 0 min 16 W/m² 6,3 °C 4,8 °C 19,3 km/h (3 Bft)
13.10.2024 08:17 21,3 °C 9,3 °C 61 % 81 % 1006,6 hPa 0,0 l/m² 15,4 km/h (3 Bft) W-SW 244 ° 0 min 18 W/m² 6,2 °C 4,1 °C 24,1 km/h (4 Bft)
13.10.2024 08:19 21,3 °C 9,3 °C 61 % 81 % 1006,6 hPa 0,0 l/m² 14,7 km/h (3 Bft) W-SW 242 ° 0 min 18 W/m² 6,2 °C 4,4 °C 19,3 km/h (3 Bft)
13.10.2024 08:21 21,3 °C 9,3 °C 61 % 81 % 1006,6 hPa 0,0 l/m² 16,2 km/h (3 Bft) W-SW 250 ° 0 min 18 W/m² 6,2 °C 3,8 °C 20,9 km/h (4 Bft)
13.10.2024 08:22 21,3 °C 9,3 °C 61 % 81 % 1006,6 hPa 0,0 l/m² 23,1 km/h (4 Bft) W 267 ° 0 min 19 W/m² 6,2 °C 1,4 °C 29,0 km/h (5 Bft)
13.10.2024 08:23 21,3 °C 9,3 °C 61 % 81 % 1006,7 hPa 0,0 l/m² 18,4 km/h (3 Bft) SW 231 ° 0 min 37 W/m² 6,2 °C 2,9 °C 25,7 km/h (4 Bft)
13.10.2024 08:26 21,3 °C 9,3 °C 61 % 80 % 1006,7 hPa 0,0 l/m² 16,1 km/h (3 Bft) SW 231 ° 0 min 19 W/m² 6,0 °C 3,8 °C 22,5 km/h (4 Bft)
13.10.2024 08:28 21,3 °C 9,3 °C 61 % 80 % 1006,7 hPa 0,0 l/m² 16,4 km/h (3 Bft) W-SW 247 ° 0 min 23 W/m² 6,0 °C 3,7 °C 22,5 km/h (4 Bft)
13.10.2024 08:30 21,3 °C 9,3 °C 61 % 80 % 1006,9 hPa 0,0 l/m² 19,0 km/h (3 Bft) SW 236 ° 0 min 26 W/m² 6,0 °C 2,7 °C 27,4 km/h (5 Bft)
13.10.2024 08:31 21,3 °C 9,3 °C 61 % 79 % 1006,9 hPa 0,0 l/m² 19,6 km/h (3 Bft) W 259 ° 1 min 74 W/m² 5,8 °C 2,5 °C 24,1 km/h (4 Bft)
13.10.2024 08:32 21,3 °C 9,3 °C 61 % 79 % 1007,0 hPa 0,0 l/m² 18,2 km/h (3 Bft) W-SW 242 ° 0 min 32 W/m² 5,8 °C 3,0 °C 25,7 km/h (4 Bft)
13.10.2024 08:34 21,3 °C 9,4 °C 61 % 79 % 1007,0 hPa 0,0 l/m² 17,6 km/h (3 Bft) SW 223 ° 2 min 86 W/m² 5,9 °C 3,4 °C 25,7 km/h (4 Bft)
13.10.2024 08:36 21,3 °C 9,5 °C 61 % 78 % 1007,0 hPa 0,0 l/m² 21,0 km/h (4 Bft) SW 233 ° 2 min 91 W/m² 5,9 °C 2,3 °C 29,0 km/h (5 Bft)
13.10.2024 08:38 21,3 °C 9,7 °C 61 % 77 % 1007,1 hPa 0,0 l/m² 18,5 km/h (3 Bft) SW 220 ° 2 min 97 W/m² 5,9 °C 3,4 °C 25,7 km/h (4 Bft)
13.10.2024 08:40 21,4 °C 9,8 °C 62 % 77 % 1007,1 hPa 0,0 l/m² 16,9 km/h (3 Bft) W-SW 252 ° 2 min 102 W/m² 6,0 °C 4,1 °C 25,7 km/h (4 Bft)
13.10.2024 08:41 21,4 °C 9,8 °C 62 % 77 % 1007,1 hPa 0,0 l/m² 20,6 km/h (4 Bft) W-SW 238 ° 1 min 105 W/m² 6,0 °C 2,8 °C 32,2 km/h (5 Bft)
13.10.2024 08:42 21,4 °C 9,9 °C 62 % 76 % 1007,1 hPa 0,0 l/m² 17,7 km/h (3 Bft) SW 236 ° 1 min 109 W/m² 5,9 °C 4,0 °C 22,5 km/h (4 Bft)
13.10.2024 08:44 21,4 °C 9,9 °C 62 % 75 % 1007,2 hPa 0,0 l/m² 21,1 km/h (4 Bft) W-SW 251 ° 2 min 114 W/m² 5,7 °C 2,8 °C 32,2 km/h (5 Bft)
13.10.2024 08:46 21,4 °C 10,1 °C 62 % 75 % 1007,2 hPa 0,0 l/m² 22,0 km/h (4 Bft) W-SW 239 ° 2 min 121 W/m² 5,9 °C 2,8 °C 27,4 km/h (5 Bft)
13.10.2024 08:48 21,4 °C 10,2 °C 62 % 75 % 1007,3 hPa 0,0 l/m² 17,9 km/h (3 Bft) SW 235 ° 2 min 127 W/m² 6,0 °C 4,3 °C 27,4 km/h (5 Bft)
13.10.2024 08:50 21,4 °C 10,2 °C 62 % 74 % 1007,3 hPa 0,0 l/m² 17,3 km/h (3 Bft) SW 236 ° 2 min 134 W/m² 5,8 °C 4,5 °C 25,7 km/h (4 Bft)
13.10.2024 08:51 21,4 °C 10,2 °C 62 % 75 % 1007,3 hPa 0,0 l/m² 17,9 km/h (3 Bft) SW 234 ° 1 min 137 W/m² 6,0 °C 4,3 °C 20,9 km/h (4 Bft)
13.10.2024 08:52 21,4 °C 10,2 °C 62 % 75 % 1007,3 hPa 0,0 l/m² 18,1 km/h (3 Bft) W-SW 252 ° 1 min 139 W/m² 6,0 °C 4,2 °C 20,9 km/h (4 Bft)
13.10.2024 08:54 21,4 °C 10,2 °C 62 % 74 % 1007,3 hPa 0,0 l/m² 19,0 km/h (3 Bft) W-SW 246 ° 2 min 144 W/m² 5,8 °C 3,9 °C 27,4 km/h (5 Bft)
13.10.2024 08:56 21,4 °C 10,3 °C 62 % 75 % 1007,5 hPa 0,0 l/m² 17,5 km/h (3 Bft) SW 227 ° 2 min 156 W/m² 6,1 °C 4,5 °C 27,4 km/h (5 Bft)
13.10.2024 08:57 21,4 °C 10,3 °C 61 % 74 % 1007,4 hPa 0,0 l/m² 21,7 km/h (4 Bft) W-SW 252 ° 1 min 158 W/m² 5,9 °C 3,1 °C 25,7 km/h (4 Bft)
13.10.2024 08:58 21,4 °C 10,3 °C 62 % 75 % 1007,5 hPa 0,0 l/m² 15,8 km/h (3 Bft) SW 236 ° 1 min 156 W/m² 6,1 °C 5,2 °C 25,7 km/h (4 Bft)
13.10.2024 08:59 21,4 °C 10,3 °C 62 % 75 % 1007,5 hPa 0,0 l/m² 20,5 km/h (4 Bft) W-SW 241 ° 1 min 158 W/m² 6,1 °C 3,5 °C 25,7 km/h (4 Bft)
13.10.2024 09:01 21,4 °C 10,3 °C 62 % 74 % 1007,5 hPa 0,0 l/m² 19,7 km/h (3 Bft) SW 234 ° 2 min 174 W/m² 5,9 °C 3,8 °C 27,4 km/h (5 Bft)
13.10.2024 09:02 21,4 °C 10,3 °C 62 % 74 % 1007,5 hPa 0,0 l/m² 17,9 km/h (3 Bft) W-SW 249 ° 1 min 185 W/m² 5,9 °C 4,4 °C 22,5 km/h (4 Bft)
13.10.2024 09:03 21,4 °C 10,3 °C 61 % 75 % 1007,5 hPa 0,0 l/m² 14,8 km/h (3 Bft) S-SW 211 ° 1 min 183 W/m² 6,1 °C 5,6 °C 22,5 km/h (4 Bft)
13.10.2024 09:04 21,4 °C 10,4 °C 61 % 75 % 1007,5 hPa 0,0 l/m² 16,7 km/h (3 Bft) W-SW 240 ° 1 min 181 W/m² 6,2 °C 4,9 °C 24,1 km/h (4 Bft)
13.10.2024 09:05 21,4 °C 10,4 °C 61 % 75 % 1007,5 hPa 0,0 l/m² 15,0 km/h (3 Bft) W-SW 250 ° 1 min 181 W/m² 6,2 °C 5,6 °C 17,7 km/h (3 Bft)
13.10.2024 09:06 21,4 °C 10,4 °C 61 % 76 % 1007,6 hPa 0,0 l/m² 18,9 km/h (3 Bft) SW 235 ° 1 min 181 W/m² 6,4 °C 4,2 °C 27,4 km/h (5 Bft)
13.10.2024 09:07 21,5 °C 10,4 °C 61 % 77 % 1007,5 hPa 0,0 l/m² 16,4 km/h (3 Bft) SW 220 ° 1 min 185 W/m² 6,5 °C 5,1 °C 24,1 km/h (4 Bft)
13.10.2024 09:08 21,5 °C 10,4 °C 61 % 76 % 1007,5 hPa 0,0 l/m² 18,5 km/h (3 Bft) W 261 ° 1 min 192 W/m² 6,4 °C 4,3 °C 22,5 km/h (4 Bft)
13.10.2024 09:09 21,5 °C 10,4 °C 61 % 75 % 1007,5 hPa 0,0 l/m² 21,6 km/h (4 Bft) W-SW 244 ° 1 min 193 W/m² 6,2 °C 3,3 °C 29,0 km/h (5 Bft)
13.10.2024 09:11 21,6 °C 10,5 °C 61 % 76 % 1007,6 hPa 0,0 l/m² 17,2 km/h (3 Bft) W-SW 250 ° 2 min 135 W/m² 6,5 °C 4,9 °C 20,9 km/h (4 Bft)
13.10.2024 09:13 21,6 °C 10,4 °C 61 % 74 % 1007,6 hPa 0,0 l/m² 20,3 km/h (4 Bft) SW 231 ° 0 min 47 W/m² 6,0 °C 3,7 °C 32,2 km/h (5 Bft)
13.10.2024 09:14 21,6 °C 10,4 °C 62 % 74 % 1007,6 hPa 0,0 l/m² 28,2 km/h (5 Bft) S-SW 209 ° 1 min 209 W/m² 6,0 °C 1,6 °C 37,0 km/h (5 Bft)
13.10.2024 09:15 21,6 °C 10,4 °C 61 % 73 % 1007,6 hPa 0,0 l/m² 26,2 km/h (4 Bft) W-SW 250 ° 1 min 211 W/m² 5,8 °C 2,1 °C 35,4 km/h (5 Bft)
13.10.2024 09:16 21,6 °C 10,4 °C 61 % 73 % 1007,7 hPa 0,0 l/m² 23,3 km/h (4 Bft) SW 235 ° 1 min 213 W/m² 5,8 °C 2,8 °C 30,6 km/h (5 Bft)
13.10.2024 09:17 21,6 °C 10,5 °C 61 % 74 % 1007,7 hPa 0,0 l/m² 24,9 km/h (4 Bft) W-SW 248 ° 1 min 220 W/m² 6,1 °C 2,5 °C 30,6 km/h (5 Bft)
13.10.2024 09:18 21,6 °C 10,5 °C 61 % 74 % 1007,7 hPa 0,0 l/m² 23,2 km/h (4 Bft) W 261 ° 1 min 220 W/m² 6,1 °C 3,0 °C 33,8 km/h (5 Bft)
13.10.2024 09:19 21,6 °C 10,5 °C 61 % 73 % 1007,7 hPa 0,0 l/m² 22,3 km/h (4 Bft) W 273 ° 1 min 220 W/m² 5,9 °C 3,2 °C 27,4 km/h (5 Bft)
13.10.2024 09:21 21,7 °C 10,6 °C 61 % 74 % 1007,7 hPa 0,0 l/m² 22,1 km/h (4 Bft) W 259 ° 2 min 232 W/m² 6,2 °C 3,4 °C 29,0 km/h (5 Bft)
13.10.2024 09:23 21,7 °C 10,6 °C 61 % 74 % 1007,8 hPa 0,0 l/m² 20,7 km/h (4 Bft) W-SW 242 ° 2 min 202 W/m² 6,2 °C 3,8 °C 29,0 km/h (5 Bft)
13.10.2024 09:24 21,7 °C 10,6 °C 61 % 73 % 1007,7 hPa 0,0 l/m² 24,7 km/h (4 Bft) W-SW 247 ° 1 min 202 W/m² 6,0 °C 2,7 °C 33,8 km/h (5 Bft)
13.10.2024 09:25 21,7 °C 10,6 °C 61 % 74 % 1007,8 hPa 0,0 l/m² 20,4 km/h (4 Bft) W-SW 248 ° 1 min 104 W/m² 6,2 °C 3,9 °C 27,4 km/h (5 Bft)
13.10.2024 09:26 21,7 °C 10,6 °C 61 % 74 % 1007,9 hPa 0,0 l/m² 17,8 km/h (3 Bft) W-SW 254 ° 1 min 243 W/m² 6,2 °C 4,8 °C 24,1 km/h (4 Bft)
13.10.2024 09:27 21,7 °C 10,6 °C 61 % 74 % 1007,8 hPa 0,0 l/m² 23,5 km/h (4 Bft) W 261 ° 1 min 248 W/m² 6,2 °C 3,0 °C 32,2 km/h (5 Bft)
13.10.2024 09:28 21,7 °C 10,6 °C 61 % 73 % 1007,8 hPa 0,0 l/m² 18,8 km/h (3 Bft) W 261 ° 1 min 246 W/m² 6,0 °C 4,5 °C 24,1 km/h (4 Bft)
13.10.2024 09:29 21,8 °C 10,7 °C 61 % 74 % 1007,8 hPa 0,0 l/m² 22,9 km/h (4 Bft) SW 223 ° 1 min 251 W/m² 6,3 °C 3,3 °C 29,0 km/h (5 Bft)
13.10.2024 09:31 21,8 °C 10,8 °C 61 % 73 % 1007,8 hPa 0,0 l/m² 22,8 km/h (4 Bft) W-SW 246 ° 2 min 255 W/m² 6,2 °C 3,5 °C 32,2 km/h (5 Bft)
13.10.2024 09:33 21,8 °C 10,8 °C 61 % 72 % 1007,9 hPa 0,0 l/m² 23,0 km/h (4 Bft) W-SW 257 ° 2 min 260 W/m² 6,0 °C 3,4 °C 32,2 km/h (5 Bft)
13.10.2024 09:34 21,8 °C 10,9 °C 61 % 72 % 1008,0 hPa 0,0 l/m² 23,0 km/h (4 Bft) SW 232 ° 1 min 258 W/m² 6,1 °C 3,6 °C 32,2 km/h (5 Bft)
13.10.2024 09:35 21,9 °C 10,9 °C 61 % 73 % 1007,9 hPa 0,0 l/m² 21,7 km/h (4 Bft) SW 220 ° 1 min 262 W/m² 6,3 °C 3,9 °C 30,6 km/h (5 Bft)
13.10.2024 09:36 21,9 °C 10,9 °C 61 % 71 % 1007,9 hPa 0,0 l/m² 35,3 km/h (5 Bft) W-SW 248 ° 1 min 267 W/m² 5,9 °C 0,9 °C 51,5 km/h (7 Bft)
13.10.2024 09:37 21,9 °C 10,9 °C 61 % 70 % 1007,9 hPa 0,0 l/m² 35,2 km/h (5 Bft) W 267 ° 1 min 271 W/m² 5,6 °C 1,0 °C 48,3 km/h (6 Bft)
13.10.2024 09:38 21,9 °C 10,9 °C 60 % 70 % 1008,0 hPa 0,0 l/m² 32,5 km/h (5 Bft) W-SW 250 ° 1 min 271 W/m² 5,6 °C 1,4 °C 45,1 km/h (6 Bft)
13.10.2024 09:39 21,9 °C 10,9 °C 60 % 71 % 1008,1 hPa 0,0 l/m² 27,8 km/h (5 Bft) W 259 ° 1 min 278 W/m² 5,9 °C 2,4 °C 37,0 km/h (5 Bft)
13.10.2024 09:41 22,0 °C 10,9 °C 60 % 71 % 1008,1 hPa 0,0 l/m² 25,8 km/h (4 Bft) SW 236 ° 2 min 274 W/m² 5,9 °C 2,9 °C 35,4 km/h (5 Bft)
13.10.2024 09:43 22,0 °C 10,9 °C 60 % 71 % 1008,1 hPa 0,0 l/m² 26,8 km/h (4 Bft) W-SW 243 ° 2 min 53 W/m² 5,9 °C 2,6 °C 35,4 km/h (5 Bft)
13.10.2024 09:44 22,0 °C 10,9 °C 60 % 71 % 1008,1 hPa 0,0 l/m² 27,5 km/h (5 Bft) W-SW 241 ° 1 min 53 W/m² 5,9 °C 2,5 °C 33,8 km/h (5 Bft)
13.10.2024 09:46 22,1 °C 10,9 °C 60 % 71 % 1008,1 hPa 0,0 l/m² 28,0 km/h (5 Bft) W-SW 246 ° 2 min 299 W/m² 5,9 °C 2,3 °C 43,5 km/h (6 Bft)
13.10.2024 09:47 22,0 °C 10,9 °C 60 % 71 % 1008,1 hPa 0,0 l/m² 30,1 km/h (5 Bft) SW 232 ° 1 min 299 W/m² 5,9 °C 1,9 °C 38,6 km/h (6 Bft)
13.10.2024 09:48 22,1 °C 10,9 °C 60 % 71 % 1008,1 hPa 0,0 l/m² 26,3 km/h (4 Bft) SW 229 ° 1 min 302 W/m² 5,9 °C 2,7 °C 33,8 km/h (5 Bft)
13.10.2024 09:49 22,1 °C 10,9 °C 60 % 72 % 1008,1 hPa 0,0 l/m² 22,9 km/h (4 Bft) SW 223 ° 1 min 81 W/m² 6,1 °C 3,6 °C 30,6 km/h (5 Bft)
13.10.2024 09:51 22,1 °C 10,9 °C 60 % 72 % 1008,2 hPa 0,0 l/m² 21,3 km/h (4 Bft) SW 234 ° 2 min 306 W/m² 6,1 °C 4,1 °C 30,6 km/h (5 Bft)
13.10.2024 09:52 22,1 °C 11,0 °C 60 % 73 % 1008,2 hPa 0,0 l/m² 21,2 km/h (4 Bft) SW 226 ° 1 min 308 W/m² 6,4 °C 4,2 °C 25,7 km/h (4 Bft)
13.10.2024 09:53 22,1 °C 11,1 °C 60 % 74 % 1008,2 hPa 0,0 l/m² 18,4 km/h (3 Bft) W-SW 250 ° 1 min 315 W/m² 6,6 °C 5,2 °C 22,5 km/h (4 Bft)
13.10.2024 09:54 22,1 °C 11,2 °C 60 % 74 % 1008,3 hPa 0,0 l/m² 20,8 km/h (4 Bft) SW 234 ° 1 min 323 W/m² 6,7 °C 4,6 °C 27,4 km/h (5 Bft)
13.10.2024 09:55 22,1 °C 11,2 °C 60 % 74 % 1008,3 hPa 0,0 l/m² 24,6 km/h (4 Bft) SW 224 ° 1 min 329 W/m² 6,7 °C 3,6 °C 32,2 km/h (5 Bft)
13.10.2024 09:56 22,1 °C 11,2 °C 60 % 74 % 1008,3 hPa 0,0 l/m² 27,8 km/h (5 Bft) W-SW 239 ° 1 min 343 W/m² 6,7 °C 2,8 °C 33,8 km/h (5 Bft)
13.10.2024 09:57 22,1 °C 11,2 °C 60 % 74 % 1008,3 hPa 0,0 l/m² 25,0 km/h (4 Bft) W-SW 237 ° 1 min 308 W/m² 6,7 °C 3,5 °C 30,6 km/h (5 Bft)
13.10.2024 09:58 22,2 °C 11,2 °C 60 % 75 % 1008,3 hPa 0,0 l/m² 26,3 km/h (4 Bft) W-SW 257 ° 1 min 336 W/m² 6,9 °C 3,1 °C 37,0 km/h (5 Bft)
13.10.2024 09:59 22,2 °C 11,2 °C 60 % 75 % 1008,4 hPa 0,0 l/m² 22,7 km/h (4 Bft) SW 229 ° 1 min 345 W/m² 6,9 °C 4,1 °C 27,4 km/h (5 Bft)
13.10.2024 10:01 22,2 °C 11,3 °C 60 % 76 % 1008,5 hPa 0,0 l/m² 22,5 km/h (4 Bft) W-SW 251 ° 2 min 367 W/m² 7,2 °C 4,2 °C 37,0 km/h (5 Bft)
13.10.2024 10:03 22,2 °C 11,3 °C 60 % 76 % 1008,5 hPa 0,0 l/m² 25,2 km/h (4 Bft) W-SW 239 ° 2 min 367 W/m² 7,2 °C 3,5 °C 40,2 km/h (6 Bft)
13.10.2024 10:04 22,2 °C 11,2 °C 60 % 72 % 1008,5 hPa 0,0 l/m² 29,2 km/h (5 Bft) W 259 ° 1 min 95 W/m² 6,3 °C 2,5 °C 37,0 km/h (5 Bft)
13.10.2024 10:05 22,2 °C 11,2 °C 60 % 72 % 1008,5 hPa 0,0 l/m² 21,7 km/h (4 Bft) SW 236 ° 1 min 74 W/m² 6,3 °C 4,3 °C 25,7 km/h (4 Bft)
13.10.2024 10:06 22,2 °C 11,1 °C 60 % 73 % 1008,6 hPa 0,0 l/m² 24,5 km/h (4 Bft) W-SW 238 ° 1 min 72 W/m² 6,4 °C 3,4 °C 40,2 km/h (6 Bft)
13.10.2024 10:07 22,2 °C 11,0 °C 60 % 74 % 1008,5 hPa 0,0 l/m² 22,8 km/h (4 Bft) SW 232 ° 1 min 366 W/m² 6,5 °C 3,8 °C 32,2 km/h (5 Bft)
13.10.2024 10:08 22,3 °C 11,0 °C 59 % 73 % 1008,3 hPa 0,0 l/m² 20,9 km/h (4 Bft) W-SW 238 ° 1 min 285 W/m² 6,4 °C 4,3 °C 27,4 km/h (5 Bft)
13.10.2024 10:09 22,2 °C 11,1 °C 59 % 74 % 1008,5 hPa 0,0 l/m² 20,5 km/h (4 Bft) W 260 ° 1 min 285 W/m² 6,6 °C 4,6 °C 29,0 km/h (5 Bft)
13.10.2024 10:11 22,3 °C 11,1 °C 59 % 72 % 1008,5 hPa 0,0 l/m² 24,7 km/h (4 Bft) W-SW 242 ° 2 min 285 W/m² 6,2 °C 3,4 °C 38,6 km/h (6 Bft)
13.10.2024 10:13 22,2 °C 11,2 °C 58 % 72 % 1008,5 hPa 0,0 l/m² 29,9 km/h (5 Bft) W-NW 284 ° 2 min 383 W/m² 6,3 °C 2,4 °C 46,7 km/h (6 Bft)
13.10.2024 10:14 22,2 °C 11,2 °C 58 % 71 % 1008,5 hPa 0,0 l/m² 27,1 km/h (5 Bft) W-SW 248 ° 1 min 107 W/m² 6,1 °C 3,0 °C 35,4 km/h (5 Bft)
13.10.2024 10:15 22,3 °C 11,1 °C 58 % 71 % 1008,6 hPa 0,0 l/m² 29,0 km/h (5 Bft) W-SW 257 ° 1 min 113 W/m² 6,0 °C 2,4 °C 40,2 km/h (6 Bft)
13.10.2024 10:16 22,3 °C 11,1 °C 58 % 72 % 1008,5 hPa 0,0 l/m² 24,8 km/h (4 Bft) W-SW 248 ° 1 min 107 W/m² 6,2 °C 3,4 °C 35,4 km/h (5 Bft)
13.10.2024 10:17 22,3 °C 11,1 °C 58 % 72 % 1008,5 hPa 0,0 l/m² 22,5 km/h (4 Bft) W 259 ° 1 min 104 W/m² 6,2 °C 4,0 °C 32,2 km/h (5 Bft)
13.10.2024 10:18 22,3 °C 11,0 °C 58 % 71 % 1008,5 hPa 0,0 l/m² 25,3 km/h (4 Bft) SW 233 ° 1 min 135 W/m² 5,9 °C 3,1 °C 35,4 km/h (5 Bft)
13.10.2024 10:19 22,2 °C 10,9 °C 58 % 72 % 1008,6 hPa 0,0 l/m² 25,3 km/h (4 Bft) W-SW 252 ° 1 min 185 W/m² 6,1 °C 3,0 °C 41,8 km/h (6 Bft)
13.10.2024 10:21 22,2 °C 11,0 °C 58 % 72 % 1008,6 hPa 0,0 l/m² 26,9 km/h (4 Bft) SW 229 ° 2 min 185 W/m² 6,2 °C 2,7 °C 48,3 km/h (6 Bft)
13.10.2024 10:23 22,2 °C 11,1 °C 58 % 70 % 1008,5 hPa 0,0 l/m² 31,6 km/h (5 Bft) W-SW 239 ° 2 min 113 W/m² 5,8 °C 1,9 °C 43,5 km/h (6 Bft)
13.10.2024 10:24 22,2 °C 11,1 °C 58 % 71 % 1008,5 hPa 0,0 l/m² 30,0 km/h (5 Bft) W-SW 252 ° 1 min 113 W/m² 6,0 °C 2,2 °C 40,2 km/h (6 Bft)
13.10.2024 10:25 22,2 °C 11,1 °C 58 % 71 % 1008,5 hPa 0,0 l/m² 30,0 km/h (5 Bft) W-SW 250 ° 1 min 91 W/m² 6,0 °C 2,2 °C 38,6 km/h (6 Bft)
13.10.2024 10:26 22,2 °C 11,1 °C 58 % 71 % 1008,5 hPa 0,0 l/m² 24,3 km/h (4 Bft) W 274 ° 1 min 91 W/m² 6,0 °C 3,5 °C 33,8 km/h (5 Bft)
13.10.2024 10:27 22,2 °C 11,1 °C 58 % 72 % 1008,5 hPa 0,0 l/m² 24,4 km/h (4 Bft) W 259 ° 1 min 397 W/m² 6,2 °C 3,5 °C 27,4 km/h (5 Bft)
13.10.2024 10:28 22,2 °C 11,1 °C 58 % 72 % 1008,5 hPa 0,0 l/m² 27,8 km/h (5 Bft) W-SW 255 ° 1 min 397 W/m² 6,2 °C 2,7 °C 35,4 km/h (5 Bft)
13.10.2024 10:29 22,2 °C 11,2 °C 58 % 71 % 1008,4 hPa 0,0 l/m² 28,9 km/h (5 Bft) SW 232 ° 1 min 309 W/m² 6,1 °C 2,6 °C 41,8 km/h (6 Bft)
13.10.2024 10:31 22,3 °C 11,3 °C 58 % 71 % 1008,5 hPa 0,0 l/m² 29,3 km/h (5 Bft) W-SW 238 ° 2 min 392 W/m² 6,2 °C 2,6 °C 40,2 km/h (6 Bft)
13.10.2024 10:33 22,3 °C 11,4 °C 58 % 71 % 1008,4 hPa 0,0 l/m² 29,2 km/h (5 Bft) SW 232 ° 2 min 390 W/m² 6,3 °C 2,8 °C 40,2 km/h (6 Bft)
13.10.2024 10:34 22,3 °C 11,5 °C 58 % 70 % 1008,5 hPa 0,0 l/m² 30,7 km/h (5 Bft) SW 216 ° 1 min 396 W/m² 6,2 °C 2,6 °C 37,0 km/h (5 Bft)
13.10.2024 10:35 22,3 °C 11,5 °C 58 % 70 % 1008,5 hPa 0,0 l/m² 36,4 km/h (5 Bft) SW 228 ° 1 min 397 W/m² 6,2 °C 1,6 °C 45,1 km/h (6 Bft)
13.10.2024 10:36 22,3 °C 11,5 °C 58 % 69 % 1008,6 hPa 0,0 l/m² 36,5 km/h (5 Bft) W-SW 241 ° 1 min 397 W/m² 6,0 °C 1,6 °C 43,5 km/h (6 Bft)
13.10.2024 10:37 22,3 °C 11,5 °C 58 % 69 % 1008,5 hPa 0,0 l/m² 28,0 km/h (5 Bft) SW 230 ° 1 min 410 W/m² 6,0 °C 3,2 °C 32,2 km/h (5 Bft)
13.10.2024 10:38 22,3 °C 11,6 °C 58 % 70 % 1008,6 hPa 0,0 l/m² 33,0 km/h (5 Bft) SW 216 ° 1 min 420 W/m² 6,3 °C 2,3 °C 43,5 km/h (6 Bft)
13.10.2024 10:39 22,3 °C 11,6 °C 57 % 69 % 1008,6 hPa 0,0 l/m² 33,2 km/h (5 Bft) W-SW 237 ° 1 min 429 W/m² 6,1 °C 2,3 °C 40,2 km/h (6 Bft)
13.10.2024 10:41 22,4 °C 11,6 °C 57 % 69 % 1008,6 hPa 0,0 l/m² 32,9 km/h (5 Bft) W-SW 245 ° 2 min 457 W/m² 6,1 °C 2,4 °C 43,5 km/h (6 Bft)
13.10.2024 10:43 22,4 °C 11,5 °C 57 % 71 % 1008,7 hPa 0,0 l/m² 26,6 km/h (4 Bft) SW 235 ° 2 min 404 W/m² 6,4 °C 3,5 °C 40,2 km/h (6 Bft)
13.10.2024 10:44 22,4 °C 11,4 °C 57 % 70 % 1008,7 hPa 0,0 l/m² 30,0 km/h (5 Bft) SW 236 ° 1 min 404 W/m² 6,1 °C 2,6 °C 40,2 km/h (6 Bft)
13.10.2024 10:45 22,4 °C 11,4 °C 57 % 70 % 1008,7 hPa 0,0 l/m² 28,4 km/h (5 Bft) SW 234 ° 1 min 404 W/m² 6,1 °C 3,0 °C 38,6 km/h (6 Bft)
13.10.2024 10:46 22,4 °C 11,4 °C 57 % 71 % 1008,8 hPa 0,0 l/m² 24,2 km/h (4 Bft) W-SW 238 ° 1 min 135 W/m² 6,3 °C 3,9 °C 32,2 km/h (5 Bft)
13.10.2024 10:47 22,4 °C 11,3 °C 57 % 72 % 1008,8 hPa 0,0 l/m² 23,9 km/h (4 Bft) W-SW 245 ° 1 min 149 W/m² 6,4 °C 3,9 °C 33,8 km/h (5 Bft)
13.10.2024 10:48 22,4 °C 11,3 °C 57 % 71 % 1008,8 hPa 0,0 l/m² 34,1 km/h (5 Bft) W-SW 250 ° 1 min 149 W/m² 6,2 °C 1,7 °C 45,1 km/h (6 Bft)
13.10.2024 10:49 22,4 °C 11,3 °C 57 % 70 % 1008,9 hPa 0,0 l/m² 27,4 km/h (5 Bft) SW 234 ° 1 min 146 W/m² 6,0 °C 3,0 °C 33,8 km/h (5 Bft)
13.10.2024 10:51 22,3 °C 11,2 °C 57 % 71 % 1008,9 hPa 0,0 l/m² 31,1 km/h (5 Bft) SW 231 ° 2 min 193 W/m² 6,1 °C 2,1 °C 43,5 km/h (6 Bft)
13.10.2024 10:53 22,4 °C 11,3 °C 57 % 72 % 1009,0 hPa 0,0 l/m² 31,1 km/h (5 Bft) SW 217 ° 2 min 503 W/m² 6,4 °C 2,3 °C 45,1 km/h (6 Bft)
13.10.2024 10:54 22,4 °C 11,4 °C 57 % 71 % 1008,9 hPa 0,0 l/m² 27,8 km/h (5 Bft) SW 232 ° 1 min 503 W/m² 6,3 °C 3,1 °C 33,8 km/h (5 Bft)
13.10.2024 10:55 22,4 °C 11,4 °C 57 % 70 % 1008,9 hPa 0,0 l/m² 36,3 km/h (5 Bft) W-SW 237 ° 1 min 503 W/m² 6,1 °C 1,5 °C 48,3 km/h (6 Bft)
13.10.2024 10:56 22,4 °C 11,4 °C 57 % 70 % 1009,0 hPa 0,0 l/m² 36,1 km/h (5 Bft) W-SW 244 ° 1 min 471 W/m² 6,1 °C 1,5 °C 46,7 km/h (6 Bft)
13.10.2024 10:57 22,4 °C 11,5 °C 57 % 71 % 1009,0 hPa 0,0 l/m² 27,1 km/h (5 Bft) SW 223 ° 1 min 478 W/m² 6,4 °C 3,4 °C 35,4 km/h (5 Bft)
13.10.2024 10:58 22,4 °C 11,6 °C 57 % 71 % 1009,0 hPa 0,0 l/m² 28,8 km/h (5 Bft) SW 226 ° 1 min 478 W/m² 6,5 °C 3,1 °C 37,0 km/h (5 Bft)
13.10.2024 10:59 22,4 °C 11,7 °C 57 % 71 % 1008,9 hPa 0,0 l/m² 22,5 km/h (4 Bft) SW 230 ° 1 min 499 W/m² 6,6 °C 4,8 °C 29,0 km/h (5 Bft)
13.10.2024 11:01 22,4 °C 11,8 °C 57 % 70 % 1009,0 hPa 0,0 l/m² 35,6 km/h (5 Bft) SW 216 ° 2 min 545 W/m² 6,5 °C 2,2 °C 46,7 km/h (6 Bft)
13.10.2024 11:02 22,5 °C 11,9 °C 57 % 70 % 1009,0 hPa 0,0 l/m² 40,1 km/h (6 Bft) W-SW 242 ° 1 min 541 W/m² 6,6 °C 1,7 °C 53,1 km/h (7 Bft)
13.10.2024 11:03 22,5 °C 11,9 °C 57 % 69 % 1009,0 hPa 0,0 l/m² 41,1 km/h (6 Bft) W 269 ° 1 min 526 W/m² 6,4 °C 1,6 °C 54,7 km/h (7 Bft)
13.10.2024 11:04 22,5 °C 11,8 °C 57 % 69 % 1009,2 hPa 0,0 l/m² 42,6 km/h (6 Bft) W-SW 254 ° 1 min 526 W/m² 6,3 °C 1,2 °C 56,3 km/h (7 Bft)
13.10.2024 11:05 22,6 °C 11,8 °C 57 % 68 % 1009,2 hPa 0,0 l/m² 36,5 km/h (5 Bft) SW 231 ° 1 min 526 W/m² 6,1 °C 2,1 °C 45,1 km/h (6 Bft)
13.10.2024 11:06 22,5 °C 11,8 °C 57 % 68 % 1009,1 hPa 0,0 l/m² 35,1 km/h (5 Bft) W-SW 249 ° 1 min 526 W/m² 6,1 °C 2,3 °C 46,7 km/h (6 Bft)
13.10.2024 11:07 22,5 °C 11,7 °C 57 % 69 % 1009,1 hPa 0,0 l/m² 32,0 km/h (5 Bft) W-SW 254 ° 1 min 394 W/m² 6,2 °C 2,7 °C 38,6 km/h (6 Bft)
13.10.2024 11:08 22,6 °C 11,7 °C 57 % 69 % 1009,0 hPa 0,0 l/m² 30,5 km/h (5 Bft) SW 222 ° 1 min 394 W/m² 6,2 °C 2,9 °C 43,5 km/h (6 Bft)
13.10.2024 11:09 22,6 °C 11,7 °C 57 % 70 % 1009,1 hPa 0,0 l/m² 28,2 km/h (5 Bft) W-SW 246 ° 1 min 394 W/m² 6,4 °C 3,4 °C 38,6 km/h (6 Bft)
13.10.2024 11:11 22,6 °C 11,6 °C 57 % 70 % 1009,2 hPa 0,0 l/m² 27,5 km/h (5 Bft) W-SW 242 ° 2 min 209 W/m² 6,3 °C 3,4 °C 38,6 km/h (6 Bft)
13.10.2024 11:13 22,6 °C 11,5 °C 56 % 71 % 1009,3 hPa 0,0 l/m² 27,9 km/h (5 Bft) W-SW 254 ° 2 min 209 W/m² 6,4 °C 3,2 °C 38,6 km/h (6 Bft)
13.10.2024 11:14 22,6 °C 11,5 °C 56 % 71 % 1009,2 hPa 0,0 l/m² 33,4 km/h (5 Bft) W-SW 246 ° 1 min 207 W/m² 6,4 °C 2,1 °C 46,7 km/h (6 Bft)
13.10.2024 11:15 22,6 °C 11,4 °C 57 % 70 % 1009,2 hPa 0,0 l/m² 35,7 km/h (5 Bft) SW 231 ° 1 min 192 W/m² 6,1 °C 1,6 °C 45,1 km/h (6 Bft)
13.10.2024 11:16 22,5 °C 11,4 °C 57 % 70 % 1009,2 hPa 0,0 l/m² 32,4 km/h (5 Bft) SW 218 ° 1 min 192 W/m² 6,1 °C 2,2 °C 38,6 km/h (6 Bft)
13.10.2024 11:17 22,5 °C 11,4 °C 57 % 70 % 1009,3 hPa 0,0 l/m² 36,5 km/h (5 Bft) W-SW 242 ° 1 min 241 W/m² 6,1 °C 1,5 °C 46,7 km/h (6 Bft)
13.10.2024 11:18 22,5 °C 11,3 °C 57 % 70 % 1009,2 hPa 0,0 l/m² 26,1 km/h (4 Bft) W-SW 245 ° 1 min 241 W/m² 6,0 °C 3,3 °C 38,6 km/h (6 Bft)
13.10.2024 11:19 22,5 °C 11,4 °C 57 % 72 % 1009,3 hPa 0,0 l/m² 25,0 km/h (4 Bft) W 278 ° 1 min 420 W/m² 6,5 °C 3,7 °C 32,2 km/h (5 Bft)
13.10.2024 11:21 22,4 °C 11,6 °C 57 % 71 % 1009,4 hPa 0,0 l/m² 29,2 km/h (5 Bft) W-SW 254 ° 2 min 420 W/m² 6,5 °C 3,1 °C 46,7 km/h (6 Bft)
13.10.2024 11:23 22,5 °C 11,6 °C 57 % 71 % 1009,4 hPa 0,0 l/m² 28,9 km/h (5 Bft) SW 225 ° 2 min 181 W/m² 6,5 °C 3,1 °C 45,1 km/h (6 Bft)
13.10.2024 11:24 22,5 °C 11,6 °C 57 % 72 % 1009,4 hPa 0,0 l/m² 36,4 km/h (5 Bft) SW 221 ° 1 min 167 W/m² 6,7 °C 1,8 °C 54,7 km/h (7 Bft)
13.10.2024 11:25 22,4 °C 11,6 °C 57 % 71 % 1009,4 hPa 0,0 l/m² 31,5 km/h (5 Bft) W-SW 245 ° 1 min 172 W/m² 6,5 °C 2,6 °C 40,2 km/h (6 Bft)
13.10.2024 11:26 22,4 °C 11,5 °C 57 % 70 % 1009,4 hPa 0,0 l/m² 36,3 km/h (5 Bft) W-SW 245 ° 1 min 158 W/m² 6,2 °C 1,7 °C 45,1 km/h (6 Bft)
13.10.2024 11:27 22,4 °C 11,4 °C 57 % 71 % 1009,5 hPa 0,0 l/m² 32,7 km/h (5 Bft) SW 229 ° 1 min 155 W/m² 6,3 °C 2,1 °C 45,1 km/h (6 Bft)
13.10.2024 11:28 22,4 °C 11,3 °C 57 % 72 % 1009,5 hPa 0,0 l/m² 26,8 km/h (4 Bft) SW 226 ° 1 min 162 W/m² 6,4 °C 3,2 °C 33,8 km/h (5 Bft)
13.10.2024 11:29 22,4 °C 11,3 °C 57 % 72 % 1009,6 hPa 0,0 l/m² 32,1 km/h (5 Bft) SW 236 ° 1 min 179 W/m² 6,4 °C 2,1 °C 40,2 km/h (6 Bft)
13.10.2024 11:31 22,4 °C 11,3 °C 57 % 72 % 1009,5 hPa 0,0 l/m² 26,7 km/h (4 Bft) W-SW 244 ° 2 min 148 W/m² 6,4 °C 3,2 °C 38,6 km/h (6 Bft)
13.10.2024 11:33 22,4 °C 11,2 °C 57 % 72 % 1009,5 hPa 0,0 l/m² 33,2 km/h (5 Bft) W-SW 242 ° 2 min 165 W/m² 6,3 °C 1,7 °C 48,3 km/h (6 Bft)
13.10.2024 11:34 22,4 °C 11,1 °C 57 % 71 % 1009,5 hPa 0,0 l/m² 37,7 km/h (5 Bft) W-SW 244 ° 1 min 156 W/m² 6,0 °C 0,9 °C 49,9 km/h (7 Bft)
13.10.2024 11:35 22,3 °C 11,1 °C 57 % 71 % 1009,6 hPa 0,0 l/m² 36,9 km/h (5 Bft) W-SW 240 ° 1 min 135 W/m² 6,0 °C 1,0 °C 51,5 km/h (7 Bft)
13.10.2024 11:36 22,3 °C 11,0 °C 57 % 71 % 1009,6 hPa 0,0 l/m² 30,0 km/h (5 Bft) W-SW 237 ° 1 min 139 W/m² 5,9 °C 2,1 °C 35,4 km/h (5 Bft)
13.10.2024 11:37 22,3 °C 11,0 °C 57 % 72 % 1009,7 hPa 0,0 l/m² 33,3 km/h (5 Bft) W 263 ° 1 min 127 W/m² 6,2 °C 1,4 °C 40,2 km/h (6 Bft)
13.10.2024 11:38 22,3 °C 10,9 °C 57 % 71 % 1009,8 hPa 0,0 l/m² 37,5 km/h (5 Bft) W-SW 242 ° 1 min 128 W/m² 5,9 °C 0,6 °C 45,1 km/h (6 Bft)
13.10.2024 11:39 22,3 °C 10,9 °C 56 % 72 % 1009,8 hPa 0,0 l/m² 37,7 km/h (5 Bft) SW 228 ° 1 min 185 W/m² 6,1 °C 0,6 °C 49,9 km/h (7 Bft)
13.10.2024 11:41 22,3 °C 10,9 °C 56 % 72 % 1009,7 hPa 0,0 l/m² 34,0 km/h (5 Bft) W-SW 238 ° 2 min 193 W/m² 6,1 °C 1,2 °C 46,7 km/h (6 Bft)
13.10.2024 11:42 22,3 °C 10,9 °C 56 % 72 % 1009,8 hPa 0,0 l/m² 28,8 km/h (5 Bft) W-SW 246 ° 1 min 200 W/m² 6,1 °C 2,2 °C 38,6 km/h (6 Bft)
13.10.2024 11:43 22,3 °C 10,9 °C 56 % 73 % 1009,8 hPa 0,0 l/m² 29,0 km/h (5 Bft) SW 214 ° 1 min 216 W/m² 6,3 °C 2,1 °C 37,0 km/h (5 Bft)
13.10.2024 11:44 22,2 °C 10,9 °C 56 % 72 % 1009,7 hPa 0,0 l/m² 35,3 km/h (5 Bft) SW 229 ° 1 min 221 W/m² 6,1 °C 0,9 °C 45,1 km/h (6 Bft)
13.10.2024 11:45 22,2 °C 10,9 °C 56 % 72 % 1009,7 hPa 0,0 l/m² 31,3 km/h (5 Bft) SW 234 ° 1 min 234 W/m² 6,1 °C 1,7 °C 40,2 km/h (6 Bft)
13.10.2024 11:46 22,2 °C 10,9 °C 56 % 73 % 1009,7 hPa 0,0 l/m² 34,3 km/h (5 Bft) SW 229 ° 1 min 218 W/m² 6,3 °C 1,1 °C 46,7 km/h (6 Bft)
13.10.2024 11:47 22,2 °C 11,0 °C 56 % 72 % 1009,7 hPa 0,0 l/m² 35,6 km/h (5 Bft) SW 235 ° 1 min 260 W/m² 6,2 °C 1,0 °C 43,5 km/h (6 Bft)
13.10.2024 11:48 22,2 °C 11,1 °C 56 % 71 % 1009,8 hPa 0,0 l/m² 34,0 km/h (5 Bft) W-SW 240 ° 1 min 260 W/m² 6,0 °C 1,5 °C 41,8 km/h (6 Bft)
13.10.2024 11:49 22,2 °C 11,1 °C 56 % 71 % 1009,8 hPa 0,0 l/m² 28,6 km/h (5 Bft) W-SW 246 ° 1 min 260 W/m² 6,0 °C 2,5 °C 41,8 km/h (6 Bft)
13.10.2024 11:50 22,2 °C 11,2 °C 56 % 73 % 1009,8 hPa 0,0 l/m² 24,3 km/h (4 Bft) SW 234 ° 1 min 260 W/m² 6,5 °C 3,6 °C 32,2 km/h (5 Bft)
13.10.2024 11:52 22,2 °C 11,5 °C 56 % 73 % 1009,8 hPa 0,0 l/m² 25,9 km/h (4 Bft) SW 234 ° 2 min 664 W/m² 6,8 °C 3,7 °C 38,6 km/h (6 Bft)
13.10.2024 11:53 22,2 °C 11,6 °C 56 % 72 % 1009,8 hPa 0,0 l/m² 30,9 km/h (5 Bft) SW 236 ° 1 min 664 W/m² 6,7 °C 2,7 °C 38,6 km/h (6 Bft)
13.10.2024 11:54 22,2 °C 11,7 °C 56 % 72 % 1009,9 hPa 0,0 l/m² 37,8 km/h (5 Bft) W-SW 241 ° 1 min 664 W/m² 6,8 °C 1,7 °C 48,3 km/h (6 Bft)
13.10.2024 11:55 22,2 °C 11,7 °C 56 % 71 % 1009,9 hPa 0,0 l/m² 35,0 km/h (5 Bft) W-SW 238 ° 1 min 664 W/m² 6,6 °C 2,2 °C 46,7 km/h (6 Bft)
13.10.2024 11:56 22,2 °C 11,7 °C 56 % 70 % 1009,8 hPa 0,0 l/m² 27,9 km/h (5 Bft) W-SW 240 ° 1 min 341 W/m² 6,4 °C 3,5 °C 37,0 km/h (5 Bft)
13.10.2024 11:57 22,2 °C 11,7 °C 56 % 71 % 1009,9 hPa 0,0 l/m² 29,6 km/h (5 Bft) W-SW 248 ° 1 min 341 W/m² 6,6 °C 3,1 °C 38,6 km/h (6 Bft)
13.10.2024 11:58 22,3 °C 11,7 °C 55 % 72 % 1009,9 hPa 0,0 l/m² 33,1 km/h (5 Bft) W-SW 254 ° 1 min 202 W/m² 6,8 °C 2,5 °C 45,1 km/h (6 Bft)
13.10.2024 11:59 22,3 °C 11,7 °C 55 % 70 % 1009,9 hPa 0,0 l/m² 34,8 km/h (5 Bft) W-SW 238 ° 1 min 221 W/m² 6,4 °C 2,2 °C 45,1 km/h (6 Bft)
13.10.2024 12:00 22,3 °C 11,6 °C 55 % 70 % 1009,9 hPa 0,0 l/m² 31,4 km/h (5 Bft) W-SW 249 ° 1 min 200 W/m² 6,3 °C 2,6 °C 43,5 km/h (6 Bft)
13.10.2024 12:02 22,3 °C 11,5 °C 55 % 71 % 1009,9 hPa 0,0 l/m² 31,6 km/h (5 Bft) W 266 ° 2 min 176 W/m² 6,4 °C 2,5 °C 43,5 km/h (6 Bft)
13.10.2024 12:04 22,2 °C 11,4 °C 55 % 71 % 1009,9 hPa 0,0 l/m² 27,4 km/h (5 Bft) SW 236 ° 2 min 183 W/m² 6,3 °C 3,2 °C 37,0 km/h (5 Bft)
13.10.2024 12:05 22,2 °C 11,3 °C 55 % 72 % 1009,9 hPa 0,0 l/m² 27,1 km/h (5 Bft) SW 225 ° 1 min 162 W/m² 6,4 °C 3,1 °C 38,6 km/h (6 Bft)
13.10.2024 12:06 22,2 °C 11,3 °C 55 % 72 % 1009,9 hPa 0,0 l/m² 32,8 km/h (5 Bft) SW 232 ° 1 min 125 W/m² 6,4 °C 2,0 °C 45,1 km/h (6 Bft)
13.10.2024 12:07 22,2 °C 11,3 °C 55 % 71 % 1010,0 hPa 0,0 l/m² 38,8 km/h (6 Bft) SW 221 ° 1 min 160 W/m² 6,2 °C 1,0 °C 48,3 km/h (6 Bft)
13.10.2024 12:08 22,2 °C 11,2 °C 55 % 71 % 1010,1 hPa 0,0 l/m² 35,9 km/h (5 Bft) W-SW 244 ° 1 min 160 W/m² 6,1 °C 1,3 °C 46,7 km/h (6 Bft)
13.10.2024 12:09 22,2 °C 11,3 °C 55 % 71 % 1009,8 hPa 0,0 l/m² 39,2 km/h (6 Bft) W 260 ° 1 min 160 W/m² 6,2 °C 0,9 °C 46,7 km/h (6 Bft)
13.10.2024 12:11 22,2 °C 11,3 °C 55 % 71 % 1010,0 hPa 0,0 l/m² 40,5 km/h (6 Bft) SW 229 ° 2 min 160 W/m² 6,2 °C 0,8 °C 53,1 km/h (7 Bft)
13.10.2024 12:12 22,2 °C 11,4 °C 54 % 71 % 1009,9 hPa 0,0 l/m² 36,4 km/h (5 Bft) SW 224 ° 1 min 160 W/m² 6,3 °C 1,5 °C 45,1 km/h (6 Bft)
13.10.2024 12:13 22,2 °C 11,5 °C 54 % 71 % 1009,9 hPa 0,0 l/m² 40,4 km/h (6 Bft) SW 236 ° 1 min 538 W/m² 6,4 °C 1,1 °C 49,9 km/h (7 Bft)
13.10.2024 12:14 22,2 °C 11,6 °C 54 % 71 % 1010,2 hPa 0,0 l/m² 36,9 km/h (5 Bft) W-SW 250 ° 1 min 563 W/m² 6,5 °C 1,7 °C 45,1 km/h (6 Bft)
13.10.2024 12:15 22,2 °C 11,7 °C 54 % 71 % 1010,0 hPa 0,0 l/m² 31,4 km/h (5 Bft) W-SW 242 ° 1 min 571 W/m² 6,6 °C 2,8 °C 38,6 km/h (6 Bft)
13.10.2024 12:16 22,3 °C 11,8 °C 55 % 72 % 1010,0 hPa 0,0 l/m² 34,9 km/h (5 Bft) W-SW 242 ° 1 min 306 W/m² 6,9 °C 2,3 °C 45,1 km/h (6 Bft)
13.10.2024 12:17 22,3 °C 11,9 °C 55 % 71 % 1010,0 hPa 0,0 l/m² 40,9 km/h (6 Bft) W-SW 245 ° 1 min 306 W/m² 6,8 °C 1,6 °C 48,3 km/h (6 Bft)
13.10.2024 12:18 22,3 °C 11,9 °C 55 % 69 % 1010,0 hPa 0,0 l/m² 24,7 km/h (4 Bft) W-SW 240 ° 1 min 540 W/m² 6,4 °C 4,5 °C 33,8 km/h (5 Bft)
13.10.2024 12:19 22,3 °C 11,8 °C 55 % 71 % 1010,0 hPa 0,0 l/m² 29,3 km/h (5 Bft) SW 227 ° 1 min 584 W/m² 6,7 °C 3,3 °C 40,2 km/h (6 Bft)
13.10.2024 12:21 22,3 °C 11,9 °C 55 % 71 % 1010,0 hPa 0,0 l/m² 35,6 km/h (5 Bft) SW 227 ° 2 min 563 W/m² 6,8 °C 2,3 °C 43,5 km/h (6 Bft)
13.10.2024 12:23 22,3 °C 11,9 °C 55 % 70 % 1010,1 hPa 0,0 l/m² 39,8 km/h (6 Bft) W-SW 246 ° 2 min 596 W/m² 6,6 °C 1,7 °C 51,5 km/h (7 Bft)
13.10.2024 12:24 22,3 °C 12,0 °C 55 % 69 % 1010,1 hPa 0,0 l/m² 36,9 km/h (5 Bft) W-SW 249 ° 1 min 596 W/m² 6,5 °C 2,3 °C 43,5 km/h (6 Bft)
13.10.2024 12:25 22,3 °C 12,1 °C 55 % 70 % 1010,0 hPa 0,0 l/m² 38,2 km/h (6 Bft) SW 227 ° 1 min 596 W/m² 6,8 °C 2,3 °C 49,9 km/h (7 Bft)
13.10.2024 12:26 22,4 °C 12,1 °C 55 % 69 % 1010,0 hPa 0,0 l/m² 41,6 km/h (6 Bft) W-SW 238 ° 1 min 596 W/m² 6,6 °C 1,8 °C 49,9 km/h (7 Bft)
13.10.2024 12:27 22,4 °C 12,1 °C 55 % 69 % 1010,0 hPa 0,0 l/m² 38,5 km/h (6 Bft) W-SW 254 ° 1 min 605 W/m² 6,6 °C 2,2 °C 46,7 km/h (6 Bft)
13.10.2024 12:28 22,4 °C 12,1 °C 55 % 70 % 1010,0 hPa 0,0 l/m² 29,7 km/h (5 Bft) W 259 ° 1 min 605 W/m² 6,8 °C 3,7 °C 37,0 km/h (5 Bft)
13.10.2024 12:29 22,4 °C 12,1 °C 55 % 70 % 1010,1 hPa 0,0 l/m² 27,4 km/h (5 Bft) W-SW 251 ° 1 min 605 W/m² 6,8 °C 4,1 °C 33,8 km/h (5 Bft)
13.10.2024 12:31 22,4 °C 12,1 °C 55 % 70 % 1010,0 hPa 0,0 l/m² 39,2 km/h (6 Bft) W-SW 240 ° 2 min 605 W/m² 6,8 °C 2,1 °C 51,5 km/h (7 Bft)
13.10.2024 12:33 22,4 °C 12,1 °C 55 % 70 % 1010,1 hPa 0,0 l/m² 33,7 km/h (5 Bft) SW 234 ° 2 min 571 W/m² 6,8 °C 2,9 °C 45,1 km/h (6 Bft)
13.10.2024 12:34 22,5 °C 12,1 °C 55 % 70 % 1010,1 hPa 0,0 l/m² 28,6 km/h (5 Bft) W-SW 249 ° 1 min 571 W/m² 6,8 °C 3,9 °C 37,0 km/h (5 Bft)
13.10.2024 12:35 22,5 °C 12,2 °C 55 % 71 % 1010,2 hPa 0,0 l/m² 35,4 km/h (5 Bft) SW 234 ° 1 min 482 W/m² 7,1 °C 2,8 °C 48,3 km/h (6 Bft)
13.10.2024 12:36 22,5 °C 12,2 °C 55 % 70 % 1010,2 hPa 0,0 l/m² 42,8 km/h (6 Bft) W-SW 250 ° 1 min 566 W/m² 6,9 °C 1,8 °C 54,7 km/h (7 Bft)
13.10.2024 12:37 22,5 °C 12,3 °C 55 % 69 % 1010,2 hPa 0,0 l/m² 32,3 km/h (5 Bft) W-SW 249 ° 1 min 552 W/m² 6,8 °C 3,5 °C 40,2 km/h (6 Bft)
13.10.2024 12:38 22,5 °C 12,3 °C 55 % 70 % 1010,2 hPa 0,0 l/m² 34,1 km/h (5 Bft) SW 224 ° 1 min 557 W/m² 7,0 °C 3,2 °C 40,2 km/h (6 Bft)
13.10.2024 12:39 22,6 °C 12,3 °C 55 % 69 % 1010,2 hPa 0,0 l/m² 36,7 km/h (5 Bft) W-SW 252 ° 1 min 580 W/m² 6,8 °C 2,8 °C 48,3 km/h (6 Bft)
13.10.2024 12:41 22,6 °C 12,3 °C 55 % 69 % 1010,3 hPa 0,0 l/m² 36,7 km/h (5 Bft) W 259 ° 2 min 564 W/m² 6,8 °C 2,8 °C 48,3 km/h (6 Bft)
13.10.2024 12:43 22,6 °C 12,3 °C 55 % 69 % 1010,3 hPa 0,0 l/m² 35,4 km/h (5 Bft) W 265 ° 2 min 564 W/m² 6,8 °C 3,0 °C 49,9 km/h (7 Bft)
13.10.2024 12:44 22,6 °C 12,4 °C 55 % 69 % 1010,4 hPa 0,0 l/m² 31,0 km/h (5 Bft) W-SW 241 ° 1 min 564 W/m² 6,9 °C 3,8 °C 43,5 km/h (6 Bft)
13.10.2024 12:47 22,6 °C 12,5 °C 55 % 69 % 1010,2 hPa 0,0 l/m² 35,7 km/h (5 Bft) SW 230 ° 3 min 519 W/m² 7,0 °C 3,2 °C 61,2 km/h (7 Bft)
13.10.2024 12:48 22,6 °C 12,6 °C 55 % 69 % 1010,2 hPa 0,0 l/m² 31,1 km/h (5 Bft) W-SW 248 ° 1 min 563 W/m² 7,1 °C 4,1 °C 40,2 km/h (6 Bft)
13.10.2024 12:49 22,7 °C 12,6 °C 55 % 69 % 1010,3 hPa 0,0 l/m² 36,5 km/h (5 Bft) W-SW 246 ° 1 min 541 W/m² 7,1 °C 3,2 °C 45,1 km/h (6 Bft)
13.10.2024 12:51 22,7 °C 12,5 °C 55 % 68 % 1010,4 hPa 0,0 l/m² 40,8 km/h (6 Bft) W-SW 258 ° 2 min 559 W/m² 6,8 °C 2,5 °C 49,9 km/h (7 Bft)
13.10.2024 12:52 22,7 °C 12,5 °C 55 % 68 % 1010,4 hPa 0,0 l/m² 37,3 km/h (5 Bft) W 260 ° 1 min 566 W/m² 6,8 °C 3,0 °C 49,9 km/h (7 Bft)
13.10.2024 12:53 22,7 °C 12,5 °C 55 % 68 % 1010,4 hPa 0,0 l/m² 35,9 km/h (5 Bft) SW 232 ° 1 min 577 W/m² 6,8 °C 3,2 °C 53,1 km/h (7 Bft)
13.10.2024 12:54 22,7 °C 12,5 °C 55 % 69 % 1010,4 hPa 0,0 l/m² 38,5 km/h (6 Bft) SW 232 ° 1 min 577 W/m² 7,0 °C 2,8 °C 48,3 km/h (6 Bft)
13.10.2024 12:55 22,7 °C 12,5 °C 55 % 69 % 1010,4 hPa 0,0 l/m² 35,6 km/h (5 Bft) SW 228 ° 1 min 116 W/m² 7,0 °C 3,2 °C 41,8 km/h (6 Bft)
13.10.2024 12:56 22,7 °C 12,4 °C 55 % 69 % 1010,4 hPa 0,0 l/m² 32,7 km/h (5 Bft) W-SW 254 ° 1 min 116 W/m² 6,9 °C 3,5 °C 43,5 km/h (6 Bft)
13.10.2024 12:57 22,7 °C 12,5 °C 55 % 69 % 1010,4 hPa 0,0 l/m² 34,3 km/h (5 Bft) SW 234 ° 1 min 580 W/m² 7,0 °C 3,4 °C 43,5 km/h (6 Bft)
13.10.2024 12:58 22,7 °C 12,5 °C 55 % 69 % 1010,5 hPa 0,0 l/m² 36,9 km/h (5 Bft) W-SW 248 ° 1 min 580 W/m² 7,0 °C 3,0 °C 49,9 km/h (7 Bft)
13.10.2024 12:59 22,7 °C 12,5 °C 55 % 68 % 1010,5 hPa 0,0 l/m² 31,6 km/h (5 Bft) W-NW 301 ° 1 min 580 W/m² 6,8 °C 3,9 °C 37,0 km/h (5 Bft)
13.10.2024 13:01 22,7 °C 12,4 °C 55 % 68 % 1010,6 hPa 0,0 l/m² 35,4 km/h (5 Bft) W-SW 253 ° 2 min 580 W/m² 6,7 °C 3,1 °C 48,3 km/h (6 Bft)
13.10.2024 13:03 22,7 °C 12,3 °C 55 % 69 % 1010,6 hPa 0,0 l/m² 33,0 km/h (5 Bft) W-SW 248 ° 2 min 580 W/m² 6,8 °C 3,3 °C 48,3 km/h (6 Bft)
13.10.2024 13:04 22,6 °C 12,4 °C 55 % 70 % 1010,5 hPa 0,0 l/m² 30,2 km/h (5 Bft) W 275 ° 1 min 580 W/m² 7,1 °C 4,0 °C 43,5 km/h (6 Bft)
13.10.2024 13:05 22,6 °C 12,5 °C 55 % 70 % 1010,7 hPa 0,0 l/m² 30,3 km/h (5 Bft) W-SW 242 ° 1 min 580 W/m² 7,2 °C 4,1 °C 41,8 km/h (6 Bft)
13.10.2024 13:07 22,6 °C 12,6 °C 55 % 69 % 1010,8 hPa 0,0 l/m² 39,0 km/h (6 Bft) SW 223 ° 2 min 543 W/m² 7,1 °C 2,9 °C 49,9 km/h (7 Bft)
13.10.2024 13:08 22,6 °C 12,6 °C 55 % 68 % 1010,8 hPa 0,0 l/m² 35,2 km/h (5 Bft) W-SW 242 ° 1 min 527 W/m² 6,9 °C 3,4 °C 48,3 km/h (6 Bft)
13.10.2024 13:09 22,6 °C 12,6 °C 55 % 68 % 1010,7 hPa 0,0 l/m² 33,9 km/h (5 Bft) W-SW 250 ° 1 min 561 W/m² 6,9 °C 3,6 °C 41,8 km/h (6 Bft)
13.10.2024 13:11 22,6 °C 12,6 °C 55 % 68 % 1010,9 hPa 0,0 l/m² 38,0 km/h (6 Bft) W-SW 257 ° 2 min 508 W/m² 6,9 °C 3,0 °C 53,1 km/h (7 Bft)
13.10.2024 13:13 22,6 °C 12,6 °C 55 % 68 % 1010,9 hPa 0,0 l/m² 35,8 km/h (5 Bft) W-SW 258 ° 2 min 366 W/m² 6,9 °C 3,3 °C 51,5 km/h (7 Bft)
13.10.2024 13:14 22,6 °C 12,6 °C 55 % 69 % 1010,9 hPa 0,0 l/m² 32,7 km/h (5 Bft) W-SW 252 ° 1 min 554 W/m² 7,1 °C 3,8 °C 43,5 km/h (6 Bft)
13.10.2024 13:15 22,6 °C 12,6 °C 55 % 69 % 1010,9 hPa 0,0 l/m² 35,7 km/h (5 Bft) W-SW 243 ° 1 min 552 W/m² 7,1 °C 3,3 °C 49,9 km/h (7 Bft)
13.10.2024 13:16 22,6 °C 12,7 °C 55 % 69 % 1010,9 hPa 0,0 l/m² 35,1 km/h (5 Bft) SW 217 ° 1 min 578 W/m² 7,2 °C 3,6 °C 45,1 km/h (6 Bft)
13.10.2024 13:17 22,6 °C 12,7 °C 55 % 69 % 1010,9 hPa 0,0 l/m² 34,8 km/h (5 Bft) W 269 ° 1 min 578 W/m² 7,2 °C 3,6 °C 45,1 km/h (6 Bft)
13.10.2024 13:18 22,6 °C 12,8 °C 55 % 68 % 1010,9 hPa 0,0 l/m² 37,0 km/h (5 Bft) W-SW 246 ° 1 min 570 W/m² 7,0 °C 3,5 °C 51,5 km/h (7 Bft)
13.10.2024 13:19 22,5 °C 12,8 °C 55 % 68 % 1010,9 hPa 0,0 l/m² 31,6 km/h (5 Bft) W-SW 254 ° 1 min 570 W/m² 7,0 °C 4,3 °C 45,1 km/h (6 Bft)
13.10.2024 13:21 22,5 °C 12,8 °C 55 % 67 % 1010,9 hPa 0,0 l/m² 35,1 km/h (5 Bft) W-SW 242 ° 2 min 561 W/m² 6,8 °C 3,7 °C 53,1 km/h (7 Bft)
13.10.2024 13:23 22,5 °C 12,8 °C 55 % 68 % 1011,0 hPa 0,0 l/m² 33,3 km/h (5 Bft) SW 232 ° 2 min 584 W/m² 7,0 °C 4,0 °C 43,5 km/h (6 Bft)
13.10.2024 13:24 22,5 °C 12,8 °C 55 % 67 % 1010,9 hPa 0,0 l/m² 41,4 km/h (6 Bft) W-SW 244 ° 1 min 485 W/m² 6,8 °C 2,9 °C 48,3 km/h (6 Bft)
13.10.2024 13:25 22,5 °C 12,7 °C 55 % 68 % 1011,1 hPa 0,0 l/m² 38,8 km/h (6 Bft) W-SW 252 ° 1 min 485 W/m² 6,9 °C 3,1 °C 45,1 km/h (6 Bft)
13.10.2024 13:26 22,5 °C 12,7 °C 55 % 68 % 1011,0 hPa 0,0 l/m² 39,2 km/h (6 Bft) W-NW 288 ° 1 min 555 W/m² 6,9 °C 3,0 °C 49,9 km/h (7 Bft)
13.10.2024 13:27 22,6 °C 12,7 °C 55 % 68 % 1011,0 hPa 0,0 l/m² 29,0 km/h (5 Bft) W 268 ° 1 min 550 W/m² 6,9 °C 4,6 °C 37,0 km/h (5 Bft)
13.10.2024 13:28 22,5 °C 12,7 °C 55 % 68 % 1011,0 hPa 0,0 l/m² 34,4 km/h (5 Bft) W-SW 249 ° 1 min 543 W/m² 6,9 °C 3,7 °C 43,5 km/h (6 Bft)
13.10.2024 13:29 22,5 °C 12,8 °C 55 % 67 % 1011,0 hPa 0,0 l/m² 33,1 km/h (5 Bft) W 276 ° 1 min 545 W/m² 6,8 °C 4,0 °C 48,3 km/h (6 Bft)
13.10.2024 13:31 22,5 °C 12,8 °C 56 % 68 % 1011,1 hPa 0,0 l/m² 33,9 km/h (5 Bft) W-SW 246 ° 2 min 538 W/m² 7,0 °C 3,9 °C 45,1 km/h (6 Bft)
13.10.2024 13:33 22,5 °C 12,8 °C 56 % 68 % 1011,1 hPa 0,0 l/m² 37,8 km/h (5 Bft) W-SW 246 ° 2 min 536 W/m² 7,0 °C 3,3 °C 53,1 km/h (7 Bft)
13.10.2024 13:34 22,5 °C 12,9 °C 56 % 68 % 1011,1 hPa 0,0 l/m² 34,6 km/h (5 Bft) W-SW 240 ° 1 min 529 W/m² 7,1 °C 4,0 °C 49,9 km/h (7 Bft)
13.10.2024 13:35 22,4 °C 12,8 °C 56 % 68 % 1011,1 hPa 0,0 l/m² 35,6 km/h (5 Bft) W 277 ° 1 min 540 W/m² 7,0 °C 3,7 °C 45,1 km/h (6 Bft)
13.10.2024 13:36 22,5 °C 12,8 °C 56 % 67 % 1011,2 hPa 0,0 l/m² 38,9 km/h (6 Bft) W-SW 254 ° 1 min 555 W/m² 6,8 °C 3,2 °C 56,3 km/h (7 Bft)
13.10.2024 13:37 22,4 °C 12,8 °C 56 % 68 % 1011,1 hPa 0,0 l/m² 30,5 km/h (5 Bft) W-SW 246 ° 1 min 543 W/m² 7,0 °C 4,5 °C 40,2 km/h (6 Bft)
13.10.2024 13:38 22,4 °C 12,8 °C 56 % 68 % 1011,2 hPa 0,0 l/m² 37,7 km/h (5 Bft) SW 225 ° 1 min 552 W/m² 7,0 °C 3,4 °C 48,3 km/h (6 Bft)
13.10.2024 13:39 22,4 °C 12,8 °C 56 % 67 % 1011,2 hPa 0,0 l/m² 36,3 km/h (5 Bft) W-SW 248 ° 1 min 552 W/m² 6,8 °C 3,6 °C 45,1 km/h (6 Bft)
13.10.2024 13:41 22,4 °C 12,7 °C 56 % 68 % 1011,2 hPa 0,0 l/m² 38,1 km/h (6 Bft) W 261 ° 2 min 555 W/m² 6,9 °C 3,1 °C 57,9 km/h (7 Bft)
13.10.2024 13:43 22,4 °C 12,7 °C 56 % 68 % 1011,2 hPa 0,0 l/m² 38,4 km/h (6 Bft) SW 236 ° 2 min 524 W/m² 6,9 °C 3,1 °C 53,1 km/h (7 Bft)
13.10.2024 13:44 22,4 °C 12,7 °C 56 % 68 % 1011,2 hPa 0,0 l/m² 39,9 km/h (6 Bft) SW 233 ° 1 min 526 W/m² 6,9 °C 2,9 °C 51,5 km/h (7 Bft)
13.10.2024 13:45 22,4 °C 12,8 °C 56 % 68 % 1011,3 hPa 0,0 l/m² 31,3 km/h (5 Bft) W-SW 254 ° 1 min 527 W/m² 7,0 °C 4,4 °C 51,5 km/h (7 Bft)
13.10.2024 13:46 22,4 °C 12,8 °C 56 % 69 % 1011,2 hPa 0,0 l/m² 27,0 km/h (5 Bft) W 264 ° 1 min 527 W/m² 7,3 °C 5,2 °C 35,4 km/h (5 Bft)
13.10.2024 13:47 22,4 °C 12,8 °C 56 % 67 % 1011,2 hPa 0,0 l/m² 31,9 km/h (5 Bft) W 267 ° 1 min 520 W/m² 6,8 °C 4,3 °C 41,8 km/h (6 Bft)
13.10.2024 13:48 22,4 °C 12,9 °C 56 % 67 % 1011,3 hPa 0,0 l/m² 31,4 km/h (5 Bft) W-SW 251 ° 1 min 531 W/m² 6,9 °C 4,5 °C 37,0 km/h (5 Bft)
13.10.2024 13:49 22,4 °C 12,8 °C 56 % 68 % 1011,3 hPa 0,0 l/m² 34,2 km/h (5 Bft) W-SW 258 ° 1 min 517 W/m² 7,0 °C 3,9 °C 46,7 km/h (6 Bft)
13.10.2024 13:51 22,4 °C 12,8 °C 56 % 67 % 1011,3 hPa 0,0 l/m² 29,8 km/h (5 Bft) SW 232 ° 2 min 517 W/m² 6,8 °C 4,6 °C 48,3 km/h (6 Bft)
13.10.2024 13:53 22,4 °C 12,9 °C 56 % 68 % 1011,2 hPa 0,0 l/m² 28,0 km/h (5 Bft) W-SW 252 ° 2 min 519 W/m² 7,1 °C 5,1 °C 49,9 km/h (7 Bft)
13.10.2024 13:54 22,4 °C 12,9 °C 56 % 68 % 1011,3 hPa 0,0 l/m² 29,1 km/h (5 Bft) W 274 ° 1 min 517 W/m² 7,1 °C 4,9 °C 43,5 km/h (6 Bft)
13.10.2024 13:55 22,4 °C 12,9 °C 56 % 66 % 1011,2 hPa 0,0 l/m² 33,7 km/h (5 Bft) W-SW 251 ° 1 min 515 W/m² 6,7 °C 4,1 °C 46,7 km/h (6 Bft)
13.10.2024 13:56 22,4 °C 12,9 °C 56 % 66 % 1011,3 hPa 0,0 l/m² 33,9 km/h (5 Bft) W-SW 257 ° 1 min 508 W/m² 6,7 °C 4,1 °C 48,3 km/h (6 Bft)
13.10.2024 13:57 22,4 °C 12,9 °C 56 % 67 % 1011,2 hPa 0,0 l/m² 28,3 km/h (5 Bft) W 262 ° 1 min 512 W/m² 6,9 °C 5,1 °C 37,0 km/h (5 Bft)
13.10.2024 13:58 22,4 °C 12,9 °C 56 % 67 % 1011,3 hPa 0,0 l/m² 31,3 km/h (5 Bft) W-SW 256 ° 1 min 510 W/m² 6,9 °C 4,5 °C 41,8 km/h (6 Bft)
13.10.2024 13:59 22,4 °C 13,0 °C 56 % 68 % 1011,3 hPa 0,0 l/m² 35,2 km/h (5 Bft) SW 224 ° 1 min 510 W/m² 7,2 °C 4,0 °C 46,7 km/h (6 Bft)
13.10.2024 14:01 22,4 °C 13,0 °C 56 % 67 % 1011,3 hPa 0,0 l/m² 36,5 km/h (5 Bft) W-SW 251 ° 2 min 513 W/m² 7,0 °C 3,8 °C 48,3 km/h (6 Bft)
13.10.2024 14:03 22,4 °C 12,9 °C 56 % 66 % 1011,3 hPa 0,0 l/m² 35,4 km/h (5 Bft) W 261 ° 2 min 508 W/m² 6,7 °C 3,8 °C 51,5 km/h (7 Bft)
13.10.2024 14:04 22,4 °C 12,9 °C 56 % 67 % 1011,2 hPa 0,0 l/m² 24,9 km/h (4 Bft) W-NW 285 ° 1 min 503 W/m² 6,9 °C 5,8 °C 38,6 km/h (6 Bft)
13.10.2024 14:05 22,4 °C 13,0 °C 56 % 68 % 1011,2 hPa 0,0 l/m² 21,6 km/h (4 Bft) W 276 ° 1 min 504 W/m² 7,2 °C 6,7 °C 32,2 km/h (5 Bft)
13.10.2024 14:06 22,4 °C 13,1 °C 56 % 66 % 1011,3 hPa 0,0 l/m² 26,8 km/h (4 Bft) SW 228 ° 1 min 503 W/m² 6,9 °C 5,6 °C 41,8 km/h (6 Bft)
13.10.2024 14:07 22,4 °C 13,1 °C 56 % 67 % 1011,3 hPa 0,0 l/m² 26,8 km/h (4 Bft) W 271 ° 1 min 497 W/m² 7,1 °C 5,6 °C 43,5 km/h (6 Bft)
13.10.2024 14:08 22,4 °C 13,1 °C 56 % 68 % 1011,3 hPa 0,0 l/m² 34,9 km/h (5 Bft) W-SW 246 ° 1 min 501 W/m² 7,3 °C 4,2 °C 46,7 km/h (6 Bft)
13.10.2024 14:09 22,4 °C 13,1 °C 56 % 67 % 1011,3 hPa 0,0 l/m² 38,1 km/h (6 Bft) W-SW 244 ° 1 min 506 W/m² 7,1 °C 3,7 °C 49,9 km/h (7 Bft)
13.10.2024 14:11 22,4 °C 13,1 °C 56 % 67 % 1011,4 hPa 0,0 l/m² 34,3 km/h (5 Bft) W-SW 249 ° 2 min 512 W/m² 7,1 °C 4,3 °C 46,7 km/h (6 Bft)
13.10.2024 14:12 22,4 °C 13,1 °C 56 % 67 % 1011,3 hPa 0,0 l/m² 30,2 km/h (5 Bft) W-SW 252 ° 1 min 501 W/m² 7,1 °C 5,0 °C 43,5 km/h (6 Bft)
13.10.2024 14:13 22,4 °C 13,1 °C 56 % 67 % 1011,3 hPa 0,0 l/m² 35,2 km/h (5 Bft) W 263 ° 1 min 503 W/m² 7,1 °C 4,2 °C 41,8 km/h (6 Bft)
13.10.2024 14:14 22,4 °C 13,1 °C 56 % 66 % 1011,3 hPa 0,0 l/m² 33,8 km/h (5 Bft) W 272 ° 1 min 404 W/m² 6,9 °C 4,4 °C 51,5 km/h (7 Bft)
13.10.2024 14:15 22,4 °C 13,1 °C 56 % 66 % 1011,3 hPa 0,0 l/m² 31,4 km/h (5 Bft) W-SW 248 ° 1 min 501 W/m² 6,9 °C 4,8 °C 46,7 km/h (6 Bft)
13.10.2024 14:17 22,4 °C 13,1 °C 56 % 67 % 1011,3 hPa 0,0 l/m² 33,1 km/h (5 Bft) W-SW 257 ° 2 min 497 W/m² 7,1 °C 4,5 °C 45,1 km/h (6 Bft)
13.10.2024 14:18 22,4 °C 13,1 °C 56 % 66 % 1011,3 hPa 0,0 l/m² 39,5 km/h (6 Bft) W 263 ° 1 min 499 W/m² 6,9 °C 3,6 °C 51,5 km/h (7 Bft)
13.10.2024 14:19 22,4 °C 13,1 °C 56 % 66 % 1011,4 hPa 0,0 l/m² 35,8 km/h (5 Bft) W-SW 243 ° 1 min 501 W/m² 6,9 °C 4,1 °C 45,1 km/h (6 Bft)
13.10.2024 14:21 22,4 °C 13,1 °C 56 % 66 % 1011,4 hPa 0,0 l/m² 32,6 km/h (5 Bft) W-SW 238 ° 2 min 501 W/m² 6,9 °C 4,6 °C 49,9 km/h (7 Bft)
13.10.2024 14:23 22,4 °C 13,1 °C 56 % 66 % 1011,4 hPa 0,0 l/m² 36,7 km/h (5 Bft) W 273 ° 2 min 501 W/m² 6,9 °C 3,9 °C 54,7 km/h (7 Bft)
13.10.2024 14:24 22,3 °C 13,1 °C 56 % 66 % 1011,4 hPa 0,0 l/m² 39,1 km/h (6 Bft) W-SW 254 ° 1 min 499 W/m² 6,9 °C 3,6 °C 49,9 km/h (7 Bft)
13.10.2024 14:25 22,3 °C 13,1 °C 56 % 66 % 1011,4 hPa 0,0 l/m² 27,4 km/h (5 Bft) W 263 ° 1 min 501 W/m² 6,9 °C 5,5 °C 37,0 km/h (5 Bft)
13.10.2024 14:26 22,3 °C 13,2 °C 56 % 66 % 1011,5 hPa 0,0 l/m² 36,2 km/h (5 Bft) W 260 ° 1 min 512 W/m² 7,0 °C 4,1 °C 48,3 km/h (6 Bft)
13.10.2024 14:27 22,3 °C 13,2 °C 56 % 66 % 1011,5 hPa 0,0 l/m² 38,6 km/h (6 Bft) W-SW 244 ° 1 min 501 W/m² 7,0 °C 3,8 °C 49,9 km/h (7 Bft)
13.10.2024 14:28 22,3 °C 13,2 °C 55 % 66 % 1011,5 hPa 0,0 l/m² 37,9 km/h (6 Bft) W-SW 256 ° 1 min 485 W/m² 7,0 °C 3,9 °C 46,7 km/h (6 Bft)
13.10.2024 14:29 22,3 °C 13,3 °C 55 % 67 % 1011,5 hPa 0,0 l/m² 31,7 km/h (5 Bft) SW 236 ° 1 min 478 W/m² 7,3 °C 5,0 °C 53,1 km/h (7 Bft)
13.10.2024 14:31 22,3 °C 13,3 °C 55 % 65 % 1011,5 hPa 0,0 l/m² 32,4 km/h (5 Bft) W-SW 256 ° 2 min 476 W/m² 6,9 °C 4,9 °C 48,3 km/h (6 Bft)
13.10.2024 14:33 22,3 °C 13,3 °C 55 % 65 % 1011,5 hPa 0,0 l/m² 30,3 km/h (5 Bft) W-SW 252 ° 2 min 475 W/m² 6,9 °C 5,2 °C 45,1 km/h (6 Bft)
13.10.2024 14:34 22,3 °C 13,4 °C 55 % 66 % 1011,5 hPa 0,0 l/m² 26,2 km/h (4 Bft) W-SW 238 ° 1 min 473 W/m² 7,2 °C 6,2 °C 40,2 km/h (6 Bft)
13.10.2024 14:35 22,3 °C 13,4 °C 56 % 67 % 1011,5 hPa 0,0 l/m² 31,1 km/h (5 Bft) W-SW 252 ° 1 min 468 W/m² 7,4 °C 5,2 °C 38,6 km/h (6 Bft)
13.10.2024 14:36 22,3 °C 13,4 °C 56 % 65 % 1011,6 hPa 0,0 l/m² 33,5 km/h (5 Bft) W-SW 238 ° 1 min 469 W/m² 7,0 °C 4,8 °C 40,2 km/h (6 Bft)
13.10.2024 14:37 22,3 °C 13,4 °C 56 % 66 % 1011,6 hPa 0,0 l/m² 31,3 km/h (5 Bft) W-SW 252 ° 1 min 464 W/m² 7,2 °C 5,2 °C 40,2 km/h (6 Bft)
13.10.2024 14:38 22,3 °C 13,4 °C 56 % 65 % 1011,7 hPa 0,0 l/m² 29,8 km/h (5 Bft) W 267 ° 1 min 464 W/m² 7,0 °C 5,5 °C 41,8 km/h (6 Bft)
13.10.2024 14:39 22,3 °C 13,4 °C 56 % 65 % 1011,6 hPa 0,0 l/m² 34,4 km/h (5 Bft) W 267 ° 1 min 445 W/m² 7,0 °C 4,7 °C 46,7 km/h (6 Bft)
13.10.2024 14:41 22,3 °C 13,3 °C 56 % 65 % 1011,8 hPa 0,0 l/m² 27,8 km/h (5 Bft) W 262 ° 2 min 445 W/m² 6,9 °C 5,7 °C 38,6 km/h (6 Bft)
13.10.2024 14:43 22,3 °C 13,4 °C 56 % 65 % 1011,7 hPa 0,0 l/m² 25,7 km/h (4 Bft) W-SW 238 ° 2 min 417 W/m² 7,0 °C 6,3 °C 38,6 km/h (6 Bft)
13.10.2024 14:44 22,3 °C 13,4 °C 56 % 66 % 1011,8 hPa 0,0 l/m² 26,6 km/h (4 Bft) SW 231 ° 1 min 462 W/m² 7,2 °C 6,1 °C 35,4 km/h (5 Bft)
13.10.2024 14:45 22,3 °C 13,4 °C 56 % 66 % 1011,7 hPa 0,0 l/m² 32,0 km/h (5 Bft) SW 236 ° 1 min 471 W/m² 7,2 °C 5,1 °C 38,6 km/h (6 Bft)
13.10.2024 14:46 22,2 °C 13,4 °C 56 % 65 % 1011,8 hPa 0,0 l/m² 32,4 km/h (5 Bft) W 265 ° 1 min 468 W/m² 7,0 °C 5,0 °C 41,8 km/h (6 Bft)
13.10.2024 14:47 22,3 °C 13,4 °C 56 % 65 % 1011,8 hPa 0,0 l/m² 24,8 km/h (4 Bft) W-SW 242 ° 1 min 468 W/m² 7,0 °C 6,5 °C 33,8 km/h (5 Bft)
13.10.2024 14:48 22,3 °C 13,4 °C 56 % 65 % 1011,7 hPa 0,0 l/m² 39,5 km/h (6 Bft) W-SW 240 ° 1 min 455 W/m² 7,0 °C 4,0 °C 49,9 km/h (7 Bft)
13.10.2024 14:49 22,2 °C 13,4 °C 56 % 65 % 1011,8 hPa 0,0 l/m² 31,5 km/h (5 Bft) W-SW 249 ° 1 min 452 W/m² 7,0 °C 5,2 °C 43,5 km/h (6 Bft)
13.10.2024 14:51 22,2 °C 13,4 °C 56 % 65 % 1011,8 hPa 0,0 l/m² 33,4 km/h (5 Bft) W-SW 251 ° 2 min 450 W/m² 7,0 °C 4,9 °C 51,5 km/h (7 Bft)
13.10.2024 14:53 22,2 °C 13,4 °C 56 % 66 % 1011,9 hPa 0,0 l/m² 32,9 km/h (5 Bft) W-SW 240 ° 2 min 448 W/m² 7,2 °C 4,9 °C 48,3 km/h (6 Bft)
13.10.2024 14:54 22,2 °C 13,4 °C 56 % 66 % 1012,0 hPa 0,0 l/m² 29,9 km/h (5 Bft) W 259 ° 1 min 445 W/m² 7,2 °C 5,5 °C 37,0 km/h (5 Bft)
13.10.2024 14:55 22,2 °C 13,4 °C 56 % 66 % 1011,9 hPa 0,0 l/m² 28,0 km/h (5 Bft) W 263 ° 1 min 441 W/m² 7,2 °C 5,8 °C 32,2 km/h (5 Bft)
13.10.2024 14:56 22,2 °C 13,5 °C 56 % 66 % 1012,0 hPa 0,0 l/m² 37,5 km/h (5 Bft) SW 222 ° 1 min 441 W/m² 7,3 °C 4,4 °C 56,3 km/h (7 Bft)
13.10.2024 14:57 22,2 °C 13,4 °C 56 % 65 % 1012,0 hPa 0,0 l/m² 37,7 km/h (5 Bft) W 273 ° 1 min 441 W/m² 7,0 °C 4,2 °C 48,3 km/h (6 Bft)
13.10.2024 14:58 22,2 °C 13,4 °C 56 % 65 % 1011,9 hPa 0,0 l/m² 36,4 km/h (5 Bft) W-SW 238 ° 1 min 443 W/m² 7,0 °C 4,4 °C 45,1 km/h (6 Bft)
13.10.2024 14:59 22,2 °C 13,4 °C 56 % 65 % 1012,0 hPa 0,0 l/m² 35,6 km/h (5 Bft) SW 227 ° 1 min 439 W/m² 7,0 °C 4,5 °C 46,7 km/h (6 Bft)
13.10.2024 15:01 22,2 °C 13,3 °C 56 % 65 % 1012,1 hPa 0,0 l/m² 35,1 km/h (5 Bft) W-SW 242 ° 2 min 429 W/m² 6,9 °C 4,5 °C 48,3 km/h (6 Bft)
13.10.2024 15:03 22,2 °C 13,3 °C 56 % 64 % 1012,1 hPa 0,0 l/m² 37,6 km/h (5 Bft) W-SW 244 ° 2 min 429 W/m² 6,6 °C 4,1 °C 48,3 km/h (6 Bft)
13.10.2024 15:04 22,2 °C 13,3 °C 56 % 65 % 1012,1 hPa 0,0 l/m² 42,4 km/h (6 Bft) W-SW 238 ° 1 min 427 W/m² 6,9 °C 3,5 °C 62,8 km/h (7 Bft)
13.10.2024 15:05 22,2 °C 13,3 °C 56 % 65 % 1012,1 hPa 0,0 l/m² 36,9 km/h (5 Bft) W-SW 258 ° 1 min 441 W/m² 6,9 °C 4,2 °C 51,5 km/h (7 Bft)
13.10.2024 15:06 22,2 °C 13,2 °C 56 % 65 % 1012,3 hPa 0,0 l/m² 34,4 km/h (5 Bft) W 273 ° 1 min 425 W/m² 6,8 °C 4,4 °C 43,5 km/h (6 Bft)
13.10.2024 15:07 22,2 °C 13,2 °C 56 % 65 % 1012,3 hPa 0,0 l/m² 35,5 km/h (5 Bft) W 274 ° 1 min 420 W/m² 6,8 °C 4,3 °C 51,5 km/h (7 Bft)
13.10.2024 15:08 22,1 °C 13,2 °C 56 % 66 % 1012,1 hPa 0,0 l/m² 33,3 km/h (5 Bft) W-SW 256 ° 1 min 413 W/m² 7,0 °C 4,6 °C 48,3 km/h (6 Bft)
13.10.2024 15:09 22,2 °C 13,2 °C 56 % 64 % 1012,2 hPa 0,0 l/m² 34,2 km/h (5 Bft) W 261 ° 1 min 406 W/m² 6,5 °C 4,4 °C 41,8 km/h (6 Bft)
13.10.2024 15:11 22,2 °C 13,2 °C 56 % 65 % 1012,2 hPa 0,0 l/m² 27,1 km/h (5 Bft) SW 235 ° 2 min 427 W/m² 6,8 °C 5,7 °C 43,5 km/h (6 Bft)
13.10.2024 15:12 22,2 °C 13,3 °C 56 % 66 % 1012,2 hPa 0,0 l/m² 23,6 km/h (4 Bft) W 262 ° 1 min 369 W/m² 7,1 °C 6,6 °C 32,2 km/h (5 Bft)
13.10.2024 15:13 22,2 °C 13,3 °C 56 % 67 % 1012,2 hPa 0,0 l/m² 27,4 km/h (5 Bft) SW 233 ° 1 min 418 W/m² 7,3 °C 5,8 °C 35,4 km/h (5 Bft)
13.10.2024 15:14 22,2 °C 13,4 °C 56 % 65 % 1012,2 hPa 0,0 l/m² 25,3 km/h (4 Bft) W 268 ° 1 min 417 W/m² 7,0 °C 6,4 °C 35,4 km/h (5 Bft)
13.10.2024 15:15 22,2 °C 13,4 °C 57 % 66 % 1012,3 hPa 0,0 l/m² 26,6 km/h (4 Bft) W-SW 246 ° 1 min 410 W/m² 7,2 °C 6,1 °C 33,8 km/h (5 Bft)
13.10.2024 15:16 22,2 °C 13,5 °C 57 % 66 % 1012,3 hPa 0,0 l/m² 26,5 km/h (4 Bft) W-SW 250 ° 1 min 410 W/m² 7,3 °C 6,3 °C 40,2 km/h (6 Bft)
13.10.2024 15:17 22,1 °C 13,5 °C 57 % 65 % 1012,2 hPa 0,0 l/m² 28,8 km/h (5 Bft) W-SW 241 ° 1 min 413 W/m² 7,1 °C 5,8 °C 43,5 km/h (6 Bft)
13.10.2024 15:18 22,2 °C 13,6 °C 57 % 66 % 1012,3 hPa 0,0 l/m² 31,7 km/h (5 Bft) W-SW 243 ° 1 min 404 W/m² 7,4 °C 5,4 °C 41,8 km/h (6 Bft)
13.10.2024 15:19 22,2 °C 13,5 °C 57 % 65 % 1012,2 hPa 0,0 l/m² 35,1 km/h (5 Bft) W-SW 242 ° 1 min 406 W/m² 7,1 °C 4,7 °C 45,1 km/h (6 Bft)
13.10.2024 15:21 22,2 °C 13,4 °C 57 % 65 % 1012,2 hPa 0,0 l/m² 34,9 km/h (5 Bft) W-SW 250 ° 2 min 406 W/m² 7,0 °C 4,6 °C 49,9 km/h (7 Bft)
13.10.2024 15:23 22,2 °C 13,4 °C 57 % 65 % 1012,3 hPa 0,0 l/m² 29,2 km/h (5 Bft) W-SW 257 ° 2 min 390 W/m² 7,0 °C 5,6 °C 41,8 km/h (6 Bft)
13.10.2024 15:24 22,2 °C 13,4 °C 57 % 67 % 1012,3 hPa 0,0 l/m² 32,8 km/h (5 Bft) W-SW 248 ° 1 min 383 W/m² 7,4 °C 5,0 °C 46,7 km/h (6 Bft)
13.10.2024 15:25 22,2 °C 13,4 °C 57 % 66 % 1012,3 hPa 0,0 l/m² 34,1 km/h (5 Bft) W-SW 248 ° 1 min 388 W/m² 7,2 °C 4,8 °C 41,8 km/h (6 Bft)
13.10.2024 15:26 22,2 °C 13,4 °C 57 % 65 % 1012,2 hPa 0,0 l/m² 32,9 km/h (5 Bft) W-SW 252 ° 1 min 367 W/m² 7,0 °C 4,9 °C 38,6 km/h (6 Bft)
13.10.2024 15:27 22,3 °C 13,3 °C 57 % 66 % 1012,2 hPa 0,0 l/m² 21,0 km/h (4 Bft) W-SW 248 ° 1 min 352 W/m² 7,1 °C 7,3 °C 32,2 km/h (5 Bft)
13.10.2024 15:28 22,2 °C 13,4 °C 57 % 66 % 1012,1 hPa 0,0 l/m² 20,8 km/h (4 Bft) W 272 ° 1 min 369 W/m² 7,2 °C 7,5 °C 29,0 km/h (5 Bft)
13.10.2024 15:29 22,3 °C 13,4 °C 57 % 66 % 1012,3 hPa 0,0 l/m² 26,8 km/h (4 Bft) W-SW 248 ° 1 min 420 W/m² 7,2 °C 6,1 °C 37,0 km/h (5 Bft)
13.10.2024 15:31 22,3 °C 13,4 °C 57 % 65 % 1012,4 hPa 0,0 l/m² 33,7 km/h (5 Bft) W-SW 257 ° 2 min 445 W/m² 7,0 °C 4,8 °C 54,7 km/h (7 Bft)
13.10.2024 15:33 22,3 °C 13,4 °C 57 % 65 % 1012,3 hPa 0,0 l/m² 36,9 km/h (5 Bft) W-SW 253 ° 2 min 374 W/m² 7,0 °C 4,3 °C 46,7 km/h (6 Bft)
13.10.2024 15:34 22,3 °C 13,3 °C 57 % 64 % 1012,3 hPa 0,0 l/m² 32,1 km/h (5 Bft) W-SW 256 ° 1 min 359 W/m² 6,6 °C 4,9 °C 38,6 km/h (6 Bft)
13.10.2024 15:35 22,3 °C 13,3 °C 57 % 65 % 1012,4 hPa 0,0 l/m² 39,1 km/h (6 Bft) W 279 ° 1 min 396 W/m² 6,9 °C 3,9 °C 49,9 km/h (7 Bft)
13.10.2024 15:36 22,3 °C 13,3 °C 57 % 65 % 1012,5 hPa 0,0 l/m² 29,5 km/h (5 Bft) W 268 ° 1 min 378 W/m² 6,9 °C 5,4 °C 40,2 km/h (6 Bft)
13.10.2024 15:37 22,3 °C 13,3 °C 57 % 66 % 1012,4 hPa 0,0 l/m² 34,6 km/h (5 Bft) W 280 ° 1 min 366 W/m² 7,1 °C 4,5 °C 45,1 km/h (6 Bft)
13.10.2024 15:38 22,3 °C 13,2 °C 57 % 65 % 1012,3 hPa 0,0 l/m² 38,4 km/h (6 Bft) W 263 ° 1 min 369 W/m² 6,8 °C 3,8 °C 53,1 km/h (7 Bft)
13.10.2024 15:39 22,3 °C 13,2 °C 57 % 65 % 1012,5 hPa 0,0 l/m² 31,9 km/h (5 Bft) W-SW 248 ° 1 min 367 W/m² 6,8 °C 4,8 °C 43,5 km/h (6 Bft)
13.10.2024 15:41 22,3 °C 13,2 °C 57 % 65 % 1012,5 hPa 0,0 l/m² 33,7 km/h (5 Bft) SW 229 ° 2 min 357 W/m² 6,8 °C 4,5 °C 45,1 km/h (6 Bft)
13.10.2024 15:43 22,3 °C 13,2 °C 57 % 65 % 1012,5 hPa 0,0 l/m² 33,3 km/h (5 Bft) SW 236 ° 2 min 357 W/m² 6,8 °C 4,6 °C 45,1 km/h (6 Bft)
13.10.2024 15:46 22,3 °C 13,2 °C 57 % 66 % 1012,5 hPa 0,0 l/m² 34,0 km/h (5 Bft) SW 236 ° 3 min 348 W/m² 7,0 °C 4,5 °C 45,1 km/h (6 Bft)
13.10.2024 15:47 22,3 °C 13,2 °C 57 % 66 % 1012,5 hPa 0,0 l/m² 36,3 km/h (5 Bft) W 281 ° 1 min 343 W/m² 7,0 °C 4,1 °C 43,5 km/h (6 Bft)
13.10.2024 15:48 22,3 °C 13,2 °C 57 % 66 % 1012,6 hPa 0,0 l/m² 32,0 km/h (5 Bft) W-SW 250 ° 1 min 343 W/m² 7,0 °C 4,8 °C 41,8 km/h (6 Bft)
13.10.2024 15:49 22,3 °C 13,2 °C 57 % 66 % 1012,7 hPa 0,0 l/m² 33,6 km/h (5 Bft) W 261 ° 1 min 339 W/m² 7,0 °C 4,5 °C 46,7 km/h (6 Bft)
13.10.2024 15:51 22,3 °C 13,2 °C 57 % 66 % 1012,7 hPa 0,0 l/m² 28,4 km/h (5 Bft) W-SW 254 ° 2 min 323 W/m² 7,0 °C 5,5 °C 40,2 km/h (6 Bft)
13.10.2024 15:53 22,3 °C 13,3 °C 57 % 66 % 1012,8 hPa 0,0 l/m² 28,9 km/h (5 Bft) W-SW 240 ° 2 min 322 W/m² 7,1 °C 5,5 °C 41,8 km/h (6 Bft)
13.10.2024 15:54 22,3 °C 13,3 °C 57 % 66 % 1012,8 hPa 0,0 l/m² 34,7 km/h (5 Bft) W-SW 245 ° 1 min 318 W/m² 7,1 °C 4,5 °C 45,1 km/h (6 Bft)
13.10.2024 15:55 22,3 °C 13,3 °C 57 % 66 % 1012,8 hPa 0,0 l/m² 31,1 km/h (5 Bft) SW 230 ° 1 min 318 W/m² 7,1 °C 5,1 °C 37,0 km/h (5 Bft)
13.10.2024 15:56 22,3 °C 13,3 °C 57 % 67 % 1012,9 hPa 0,0 l/m² 29,0 km/h (5 Bft) W-SW 246 ° 1 min 322 W/m² 7,3 °C 5,5 °C 37,0 km/h (5 Bft)
13.10.2024 15:57 22,2 °C 13,3 °C 57 % 67 % 1012,8 hPa 0,0 l/m² 23,7 km/h (4 Bft) SW 231 ° 1 min 318 W/m² 7,3 °C 6,6 °C 32,2 km/h (5 Bft)
13.10.2024 15:58 22,3 °C 13,3 °C 57 % 67 % 1012,7 hPa 0,0 l/m² 28,2 km/h (5 Bft) W-SW 238 ° 1 min 306 W/m² 7,3 °C 5,6 °C 46,7 km/h (6 Bft)
13.10.2024 15:59 22,2 °C 13,3 °C 57 % 67 % 1012,8 hPa 0,0 l/m² 28,3 km/h (5 Bft) W-SW 253 ° 1 min 301 W/m² 7,3 °C 5,6 °C 35,4 km/h (5 Bft)
13.10.2024 16:01 22,3 °C 13,3 °C 57 % 67 % 1012,9 hPa 0,0 l/m² 30,6 km/h (5 Bft) W-SW 253 ° 2 min 294 W/m² 7,3 °C 5,2 °C 46,7 km/h (6 Bft)
13.10.2024 16:03 22,3 °C 13,2 °C 57 % 66 % 1012,8 hPa 0,0 l/m² 32,1 km/h (5 Bft) W-SW 254 ° 2 min 290 W/m² 7,0 °C 4,8 °C 48,3 km/h (6 Bft)
13.10.2024 16:04 22,2 °C 13,2 °C 57 % 66 % 1013,0 hPa 0,0 l/m² 25,8 km/h (4 Bft) W-SW 239 ° 1 min 239 W/m² 7,0 °C 6,0 °C 41,8 km/h (6 Bft)
13.10.2024 16:05 22,2 °C 13,2 °C 57 % 67 % 1012,9 hPa 0,0 l/m² 28,4 km/h (5 Bft) W 259 ° 1 min 265 W/m² 7,2 °C 5,5 °C 37,0 km/h (5 Bft)
13.10.2024 16:06 22,3 °C 13,2 °C 57 % 67 % 1013,0 hPa 0,0 l/m² 25,0 km/h (4 Bft) SW 227 ° 1 min 264 W/m² 7,2 °C 6,2 °C 35,4 km/h (5 Bft)
13.10.2024 16:07 22,2 °C 13,2 °C 57 % 67 % 1012,9 hPa 0,0 l/m² 21,8 km/h (4 Bft) SW 230 ° 1 min 257 W/m² 7,2 °C 6,9 °C 29,0 km/h (5 Bft)
13.10.2024 16:08 22,2 °C 13,2 °C 57 % 67 % 1012,9 hPa 0,0 l/m² 26,5 km/h (4 Bft) W-SW 242 ° 1 min 274 W/m² 7,2 °C 5,8 °C 32,2 km/h (5 Bft)
13.10.2024 16:09 22,2 °C 13,2 °C 57 % 67 % 1012,9 hPa 0,0 l/m² 29,5 km/h (5 Bft) SW 232 ° 1 min 274 W/m² 7,2 °C 5,2 °C 41,8 km/h (6 Bft)
13.10.2024 16:11 22,2 °C 13,1 °C 57 % 66 % 1013,0 hPa 0,0 l/m² 31,1 km/h (5 Bft) W-SW 242 ° 2 min 248 W/m² 6,9 °C 4,8 °C 41,8 km/h (6 Bft)
13.10.2024 16:13 22,2 °C 13,1 °C 57 % 68 % 1013,0 hPa 0,0 l/m² 23,0 km/h (4 Bft) W 267 ° 2 min 250 W/m² 7,3 °C 6,5 °C 30,6 km/h (5 Bft)
13.10.2024 16:14 22,2 °C 13,1 °C 57 % 67 % 1013,0 hPa 0,0 l/m² 30,7 km/h (5 Bft) W-SW 244 ° 1 min 253 W/m² 7,1 °C 4,9 °C 40,2 km/h (6 Bft)
13.10.2024 16:15 22,2 °C 13,1 °C 57 % 67 % 1013,0 hPa 0,0 l/m² 27,9 km/h (5 Bft) SW 214 ° 1 min 253 W/m² 7,1 °C 5,4 °C 32,2 km/h (5 Bft)
13.10.2024 16:17 22,2 °C 13,0 °C 57 % 67 % 1013,1 hPa 0,0 l/m² 32,1 km/h (5 Bft) W-SW 249 ° 2 min 206 W/m² 7,0 °C 4,5 °C 45,1 km/h (6 Bft)
13.10.2024 16:18 22,2 °C 12,9 °C 57 % 66 % 1013,1 hPa 0,0 l/m² 27,4 km/h (5 Bft) SW 229 ° 1 min 225 W/m² 6,7 °C 5,2 °C 30,6 km/h (5 Bft)
13.10.2024 16:19 22,2 °C 12,9 °C 57 % 67 % 1013,1 hPa 0,0 l/m² 29,4 km/h (5 Bft) SW 233 ° 1 min 220 W/m² 6,9 °C 4,8 °C 35,4 km/h (5 Bft)
13.10.2024 16:21 22,2 °C 12,9 °C 57 % 68 % 1013,2 hPa 0,0 l/m² 24,4 km/h (4 Bft) SW 232 ° 2 min 207 W/m² 7,1 °C 5,9 °C 32,2 km/h (5 Bft)
13.10.2024 16:22 22,2 °C 12,9 °C 57 % 68 % 1013,2 hPa 0,0 l/m² 30,7 km/h (5 Bft) W 263 ° 1 min 214 W/m² 7,1 °C 4,6 °C 38,6 km/h (6 Bft)
13.10.2024 16:23 22,2 °C 12,8 °C 57 % 67 % 1013,2 hPa 0,0 l/m² 34,3 km/h (5 Bft) SW 225 ° 1 min 190 W/m² 6,8 °C 3,9 °C 46,7 km/h (6 Bft)
13.10.2024 16:24 22,2 °C 12,8 °C 57 % 67 % 1013,3 hPa 0,0 l/m² 28,8 km/h (5 Bft) SW 223 ° 1 min 213 W/m² 6,8 °C 4,8 °C 35,4 km/h (5 Bft)
13.10.2024 16:25 22,2 °C 12,8 °C 57 % 67 % 1013,2 hPa 0,0 l/m² 28,3 km/h (5 Bft) W-SW 254 ° 1 min 195 W/m² 6,8 °C 4,9 °C 38,6 km/h (6 Bft)
13.10.2024 16:26 22,2 °C 12,8 °C 57 % 67 % 1013,3 hPa 0,0 l/m² 33,1 km/h (5 Bft) SW 225 ° 1 min 211 W/m² 6,8 °C 4,0 °C 45,1 km/h (6 Bft)
13.10.2024 16:27 22,2 °C 12,8 °C 57 % 68 % 1013,2 hPa 0,0 l/m² 31,7 km/h (5 Bft) SW 233 ° 1 min 213 W/m² 7,0 °C 4,3 °C 38,6 km/h (6 Bft)
13.10.2024 16:28 22,2 °C 12,8 °C 57 % 68 % 1013,2 hPa 0,0 l/m² 34,4 km/h (5 Bft) SW 232 ° 1 min 190 W/m² 7,0 °C 3,8 °C 43,5 km/h (6 Bft)
13.10.2024 16:29 22,2 °C 12,7 °C 57 % 67 % 1013,3 hPa 0,0 l/m² 28,9 km/h (5 Bft) W-SW 238 ° 1 min 178 W/m² 6,7 °C 4,7 °C 35,4 km/h (5 Bft)
13.10.2024 16:31 22,2 °C 12,8 °C 57 % 68 % 1013,2 hPa 0,0 l/m² 25,8 km/h (4 Bft) W-SW 250 ° 2 min 216 W/m² 7,0 °C 5,4 °C 37,0 km/h (5 Bft)
13.10.2024 16:33 22,2 °C 12,8 °C 57 % 68 % 1013,3 hPa 0,0 l/m² 26,7 km/h (4 Bft) W-SW 246 ° 2 min 202 W/m² 7,0 °C 5,3 °C 35,4 km/h (5 Bft)
13.10.2024 16:34 22,2 °C 12,8 °C 57 % 68 % 1013,3 hPa 0,0 l/m² 23,9 km/h (4 Bft) W-SW 246 ° 1 min 190 W/m² 7,0 °C 5,9 °C 30,6 km/h (5 Bft)
13.10.2024 16:35 22,2 °C 12,8 °C 57 % 68 % 1013,3 hPa 0,0 l/m² 29,5 km/h (5 Bft) W-SW 246 ° 1 min 229 W/m² 7,0 °C 4,7 °C 37,0 km/h (5 Bft)
13.10.2024 16:36 22,2 °C 12,8 °C 57 % 68 % 1013,3 hPa 0,0 l/m² 21,8 km/h (4 Bft) SW 221 ° 1 min 207 W/m² 7,0 °C 6,4 °C 30,6 km/h (5 Bft)
13.10.2024 16:37 22,2 °C 12,8 °C 57 % 68 % 1013,3 hPa 0,0 l/m² 27,7 km/h (5 Bft) W-SW 244 ° 1 min 171 W/m² 7,0 °C 5,0 °C 37,0 km/h (5 Bft)
13.10.2024 16:38 22,2 °C 12,8 °C 57 % 68 % 1013,3 hPa 0,0 l/m² 26,0 km/h (4 Bft) W-SW 242 ° 1 min 167 W/m² 7,0 °C 5,4 °C 33,8 km/h (5 Bft)
13.10.2024 16:39 22,2 °C 12,7 °C 57 % 68 % 1013,3 hPa 0,0 l/m² 29,7 km/h (5 Bft) SW 232 ° 1 min 155 W/m² 6,9 °C 4,5 °C 41,8 km/h (6 Bft)
13.10.2024 16:41 22,2 °C 12,6 °C 57 % 68 % 1013,4 hPa 0,0 l/m² 35,4 km/h (5 Bft) W-SW 240 ° 2 min 141 W/m² 6,9 °C 3,4 °C 45,1 km/h (6 Bft)
13.10.2024 16:43 22,2 °C 12,5 °C 57 % 69 % 1013,3 hPa 0,0 l/m² 30,0 km/h (5 Bft) W-SW 253 ° 2 min 104 W/m² 7,0 °C 4,2 °C 43,5 km/h (6 Bft)
13.10.2024 16:44 22,2 °C 12,4 °C 57 % 69 % 1013,3 hPa 0,0 l/m² 28,7 km/h (5 Bft) S-SW 204 ° 1 min 102 W/m² 6,9 °C 4,3 °C 35,4 km/h (5 Bft)
13.10.2024 16:45 22,2 °C 12,4 °C 57 % 69 % 1013,2 hPa 0,0 l/m² 30,2 km/h (5 Bft) W-SW 237 ° 1 min 111 W/m² 6,9 °C 4,0 °C 43,5 km/h (6 Bft)
13.10.2024 16:46 22,2 °C 12,3 °C 57 % 69 % 1013,3 hPa 0,0 l/m² 32,7 km/h (5 Bft) W-SW 246 ° 1 min 109 W/m² 6,8 °C 3,4 °C 38,6 km/h (6 Bft)
13.10.2024 16:47 22,2 °C 12,3 °C 57 % 69 % 1013,3 hPa 0,0 l/m² 32,9 km/h (5 Bft) SW 235 ° 1 min 104 W/m² 6,8 °C 3,4 °C 40,2 km/h (6 Bft)
13.10.2024 16:48 22,2 °C 12,3 °C 57 % 69 % 1013,4 hPa 0,0 l/m² 32,8 km/h (5 Bft) W-SW 252 ° 1 min 91 W/m² 6,8 °C 3,4 °C 38,6 km/h (6 Bft)
13.10.2024 16:49 22,2 °C 12,3 °C 57 % 69 % 1013,5 hPa 0,0 l/m² 28,0 km/h (5 Bft) W-SW 253 ° 1 min 93 W/m² 6,8 °C 4,3 °C 35,4 km/h (5 Bft)
13.10.2024 16:51 22,2 °C 12,2 °C 57 % 70 % 1013,5 hPa 0,0 l/m² 27,9 km/h (5 Bft) SW 227 ° 2 min 77 W/m² 6,9 °C 4,2 °C 40,2 km/h (6 Bft)
13.10.2024 16:53 22,2 °C 12,1 °C 58 % 69 % 1013,5 hPa 0,0 l/m² 33,3 km/h (5 Bft) SW 235 ° 2 min 77 W/m² 6,6 °C 3,0 °C 43,5 km/h (6 Bft)
13.10.2024 16:54 22,2 °C 12,1 °C 58 % 70 % 1013,4 hPa 0,0 l/m² 23,5 km/h (4 Bft) SW 227 ° 1 min 72 W/m² 6,8 °C 5,0 °C 32,2 km/h (5 Bft)
13.10.2024 16:55 22,2 °C 12,1 °C 58 % 70 % 1013,5 hPa 0,0 l/m² 25,3 km/h (4 Bft) W-SW 252 ° 1 min 72 W/m² 6,8 °C 4,6 °C 35,4 km/h (5 Bft)
13.10.2024 16:56 22,2 °C 12,0 °C 58 % 70 % 1013,5 hPa 0,0 l/m² 31,2 km/h (5 Bft) W-SW 237 ° 1 min 69 W/m² 6,7 °C 3,2 °C 33,8 km/h (5 Bft)
13.10.2024 16:57 22,2 °C 11,9 °C 58 % 70 % 1013,6 hPa 0,0 l/m² 26,8 km/h (4 Bft) W-SW 245 ° 1 min 63 W/m² 6,6 °C 4,0 °C 37,0 km/h (5 Bft)
13.10.2024 16:58 22,2 °C 11,9 °C 58 % 70 % 1013,5 hPa 0,0 l/m² 29,1 km/h (5 Bft) SW 232 ° 1 min 62 W/m² 6,6 °C 3,5 °C 35,4 km/h (5 Bft)
13.10.2024 16:59 22,2 °C 11,9 °C 58 % 70 % 1013,7 hPa 0,0 l/m² 24,7 km/h (4 Bft) W-SW 238 ° 1 min 62 W/m² 6,6 °C 4,5 °C 33,8 km/h (5 Bft)
13.10.2024 17:01 22,2 °C 11,8 °C 58 % 71 % 1013,5 hPa 0,0 l/m² 24,6 km/h (4 Bft) S-SW 212 ° 2 min 60 W/m² 6,7 °C 4,4 °C 35,4 km/h (5 Bft)
13.10.2024 17:03 22,2 °C 11,8 °C 58 % 71 % 1013,6 hPa 0,0 l/m² 27,2 km/h (5 Bft) SW 236 ° 2 min 58 W/m² 6,7 °C 3,8 °C 40,2 km/h (6 Bft)
13.10.2024 17:04 22,2 °C 11,8 °C 58 % 71 % 1013,7 hPa 0,0 l/m² 28,2 km/h (5 Bft) SW 236 ° 1 min 58 W/m² 6,7 °C 3,6 °C 35,4 km/h (5 Bft)
13.10.2024 17:05 22,2 °C 11,7 °C 58 % 71 % 1013,6 hPa 0,0 l/m² 28,6 km/h (5 Bft) W-SW 244 ° 1 min 58 W/m² 6,6 °C 3,3 °C 33,8 km/h (5 Bft)
13.10.2024 17:07 22,1 °C 11,7 °C 58 % 71 % 1013,8 hPa 0,0 l/m² 25,6 km/h (4 Bft) W-SW 242 ° 2 min 58 W/m² 6,6 °C 4,0 °C 37,0 km/h (5 Bft)
13.10.2024 17:08 22,1 °C 11,7 °C 58 % 72 % 1013,8 hPa 0,0 l/m² 33,1 km/h (5 Bft) S-SW 211 ° 1 min 56 W/m² 6,8 °C 2,5 °C 41,8 km/h (6 Bft)
13.10.2024 17:09 22,2 °C 11,6 °C 58 % 72 % 1013,7 hPa 0,0 l/m² 31,1 km/h (5 Bft) W-SW 238 ° 1 min 53 W/m² 6,7 °C 2,7 °C 38,6 km/h (6 Bft)
13.10.2024 17:11 22,1 °C 11,6 °C 58 % 72 % 1013,7 hPa 0,0 l/m² 32,6 km/h (5 Bft) SW 234 ° 0 min 49 W/m² 6,7 °C 2,4 °C 46,7 km/h (6 Bft)
13.10.2024 17:13 22,1 °C 11,6 °C 58 % 72 % 1013,7 hPa 0,0 l/m² 30,3 km/h (5 Bft) W-SW 254 ° 0 min 42 W/m² 6,7 °C 2,8 °C 38,6 km/h (6 Bft)
13.10.2024 17:14 22,2 °C 11,6 °C 58 % 72 % 1013,8 hPa 0,0 l/m² 31,2 km/h (5 Bft) W-SW 240 ° 0 min 37 W/m² 6,7 °C 2,7 °C 38,6 km/h (6 Bft)
13.10.2024 17:15 22,2 °C 11,6 °C 58 % 72 % 1013,8 hPa 0,0 l/m² 25,1 km/h (4 Bft) W-SW 247 ° 0 min 35 W/m² 6,7 °C 4,0 °C 30,6 km/h (5 Bft)
13.10.2024 17:16 22,2 °C 11,6 °C 58 % 72 % 1013,6 hPa 0,0 l/m² 26,0 km/h (4 Bft) SW 222 ° 0 min 33 W/m² 6,7 °C 3,8 °C 33,8 km/h (5 Bft)
13.10.2024 17:17 22,2 °C 11,5 °C 58 % 72 % 1013,8 hPa 0,0 l/m² 23,9 km/h (4 Bft) W 263 ° 0 min 32 W/m² 6,6 °C 4,1 °C 32,2 km/h (5 Bft)
13.10.2024 17:18 22,2 °C 11,5 °C 58 % 72 % 1013,8 hPa 0,0 l/m² 25,7 km/h (4 Bft) SW 222 ° 0 min 30 W/m² 6,6 °C 3,7 °C 37,0 km/h (5 Bft)
13.10.2024 17:19 22,2 °C 11,4 °C 58 % 72 % 1013,8 hPa 0,0 l/m² 24,9 km/h (4 Bft) W-SW 245 ° 0 min 30 W/m² 6,5 °C 3,8 °C 32,2 km/h (5 Bft)
13.10.2024 17:21 22,1 °C 11,4 °C 58 % 72 % 1013,8 hPa 0,0 l/m² 30,6 km/h (5 Bft) W-SW 254 ° 0 min 28 W/m² 6,5 °C 2,5 °C 45,1 km/h (6 Bft)
13.10.2024 17:23 22,2 °C 11,3 °C 58 % 72 % 1013,7 hPa 0,0 l/m² 24,9 km/h (4 Bft) SW 235 ° 0 min 28 W/m² 6,4 °C 3,6 °C 38,6 km/h (6 Bft)
13.10.2024 17:24 22,2 °C 11,3 °C 58 % 73 % 1013,8 hPa 0,0 l/m² 24,0 km/h (4 Bft) SW 235 ° 0 min 28 W/m² 6,6 °C 3,8 °C 32,2 km/h (5 Bft)
13.10.2024 17:25 22,1 °C 11,3 °C 58 % 73 % 1013,8 hPa 0,0 l/m² 24,5 km/h (4 Bft) W 262 ° 0 min 30 W/m² 6,6 °C 3,7 °C 29,0 km/h (5 Bft)
13.10.2024 17:27 22,1 °C 11,3 °C 58 % 73 % 1013,7 hPa 0,0 l/m² 25,5 km/h (4 Bft) W-SW 244 ° 0 min 30 W/m² 6,6 °C 3,5 °C 33,8 km/h (5 Bft)
13.10.2024 17:28 22,1 °C 11,3 °C 58 % 73 % 1013,7 hPa 0,0 l/m² 26,0 km/h (4 Bft) SW 224 ° 0 min 30 W/m² 6,6 °C 3,4 °C 32,2 km/h (5 Bft)
13.10.2024 17:29 22,1 °C 11,3 °C 58 % 73 % 1013,8 hPa 0,0 l/m² 24,9 km/h (4 Bft) SW 230 ° 0 min 32 W/m² 6,6 °C 3,6 °C 30,6 km/h (5 Bft)
13.10.2024 17:31 22,1 °C 11,3 °C 58 % 73 % 1013,9 hPa 0,0 l/m² 27,3 km/h (5 Bft) SW 233 ° 0 min 32 W/m² 6,6 °C 3,1 °C 35,4 km/h (5 Bft)
13.10.2024 17:33 22,1 °C 11,2 °C 58 % 73 % 1014,0 hPa 0,0 l/m² 26,8 km/h (4 Bft) W-SW 257 ° 0 min 33 W/m² 6,5 °C 3,0 °C 35,4 km/h (5 Bft)
13.10.2024 17:34 22,1 °C 11,2 °C 57 % 73 % 1014,0 hPa 0,0 l/m² 23,2 km/h (4 Bft) W-SW 246 ° 0 min 33 W/m² 6,5 °C 3,9 °C 35,4 km/h (5 Bft)
13.10.2024 17:35 22,1 °C 11,2 °C 57 % 74 % 1014,1 hPa 0,0 l/m² 25,7 km/h (4 Bft) SW 232 ° 0 min 33 W/m² 6,7 °C 3,3 °C 32,2 km/h (5 Bft)
13.10.2024 17:36 22,1 °C 11,2 °C 57 % 74 % 1013,9 hPa 0,0 l/m² 23,4 km/h (4 Bft) W-SW 245 ° 0 min 33 W/m² 6,7 °C 3,9 °C 29,0 km/h (5 Bft)
13.10.2024 17:37 22,1 °C 11,2 °C 57 % 74 % 1014,1 hPa 0,0 l/m² 28,8 km/h (5 Bft) SW 236 ° 0 min 33 W/m² 6,7 °C 2,6 °C 33,8 km/h (5 Bft)
13.10.2024 17:38 22,1 °C 11,2 °C 57 % 74 % 1014,1 hPa 0,0 l/m² 23,0 km/h (4 Bft) W-SW 241 ° 0 min 28 W/m² 6,7 °C 4,0 °C 29,0 km/h (5 Bft)
13.10.2024 17:39 22,1 °C 11,2 °C 57 % 74 % 1014,1 hPa 0,0 l/m² 23,3 km/h (4 Bft) SW 229 ° 0 min 26 W/m² 6,7 °C 3,9 °C 32,2 km/h (5 Bft)
13.10.2024 17:41 22,1 °C 11,3 °C 57 % 74 % 1014,3 hPa 0,0 l/m² 27,0 km/h (5 Bft) W-SW 242 ° 0 min 25 W/m² 6,8 °C 3,1 °C 35,4 km/h (5 Bft)
13.10.2024 17:43 22,1 °C 11,3 °C 57 % 73 % 1014,2 hPa 0,0 l/m² 27,0 km/h (5 Bft) W-SW 238 ° 0 min 26 W/m² 6,6 °C 3,1 °C 33,8 km/h (5 Bft)
13.10.2024 17:44 22,1 °C 11,3 °C 57 % 73 % 1014,3 hPa 0,0 l/m² 23,0 km/h (4 Bft) W-SW 254 ° 0 min 30 W/m² 6,6 °C 4,1 °C 29,0 km/h (5 Bft)
13.10.2024 17:45 22,1 °C 11,3 °C 57 % 74 % 1014,4 hPa 0,0 l/m² 18,8 km/h (3 Bft) SW 236 ° 0 min 28 W/m² 6,8 °C 5,3 °C 22,5 km/h (4 Bft)
13.10.2024 17:46 22,1 °C 11,3 °C 57 % 74 % 1014,4 hPa 0,0 l/m² 22,5 km/h (4 Bft) SW 235 ° 0 min 28 W/m² 6,8 °C 4,2 °C 30,6 km/h (5 Bft)
13.10.2024 17:47 22,1 °C 11,3 °C 57 % 74 % 1014,4 hPa 0,0 l/m² 22,1 km/h (4 Bft) SW 233 ° 0 min 28 W/m² 6,8 °C 4,4 °C 25,7 km/h (4 Bft)
13.10.2024 17:48 22,1 °C 11,2 °C 57 % 74 % 1014,4 hPa 0,0 l/m² 20,3 km/h (4 Bft) SW 230 ° 0 min 28 W/m² 6,7 °C 4,7 °C 27,4 km/h (5 Bft)
13.10.2024 17:49 22,1 °C 11,2 °C 57 % 74 % 1014,4 hPa 0,0 l/m² 24,0 km/h (4 Bft) W-SW 242 ° 0 min 26 W/m² 6,7 °C 3,7 °C 30,6 km/h (5 Bft)
13.10.2024 17:51 22,1 °C 11,2 °C 57 % 74 % 1014,4 hPa 0,0 l/m² 25,1 km/h (4 Bft) SW 235 ° 0 min 26 W/m² 6,7 °C 3,4 °C 33,8 km/h (5 Bft)
13.10.2024 17:53 22,1 °C 11,2 °C 57 % 74 % 1014,6 hPa 0,0 l/m² 23,6 km/h (4 Bft) SW 231 ° 0 min 26 W/m² 6,7 °C 3,8 °C 30,6 km/h (5 Bft)
13.10.2024 17:54 22,1 °C 11,2 °C 57 % 74 % 1014,5 hPa 0,0 l/m² 20,8 km/h (4 Bft) SW 234 ° 0 min 25 W/m² 6,7 °C 4,6 °C 29,0 km/h (5 Bft)
13.10.2024 17:55 22,0 °C 11,1 °C 57 % 74 % 1014,6 hPa 0,0 l/m² 25,6 km/h (4 Bft) SW 236 ° 0 min 21 W/m² 6,6 °C 3,2 °C 35,4 km/h (5 Bft)
13.10.2024 17:56 22,1 °C 11,1 °C 57 % 74 % 1014,6 hPa 0,0 l/m² 23,3 km/h (4 Bft) W-SW 238 ° 0 min 21 W/m² 6,6 °C 3,8 °C 33,8 km/h (5 Bft)
13.10.2024 17:57 22,1 °C 11,1 °C 58 % 74 % 1014,6 hPa 0,0 l/m² 22,4 km/h (4 Bft) W-SW 254 ° 0 min 19 W/m² 6,6 °C 4,0 °C 29,0 km/h (5 Bft)
13.10.2024 17:58 22,0 °C 11,1 °C 58 % 74 % 1014,6 hPa 0,0 l/m² 22,4 km/h (4 Bft) W-SW 240 ° 0 min 19 W/m² 6,6 °C 4,0 °C 29,0 km/h (5 Bft)
13.10.2024 17:59 22,0 °C 11,1 °C 58 % 74 % 1014,6 hPa 0,0 l/m² 21,0 km/h (4 Bft) W-SW 238 ° 0 min 19 W/m² 6,6 °C 4,4 °C 27,4 km/h (5 Bft)
13.10.2024 18:01 22,0 °C 11,1 °C 58 % 74 % 1014,7 hPa 0,0 l/m² 26,2 km/h (4 Bft) W-SW 249 ° 0 min 18 W/m² 6,6 °C 3,0 °C 33,8 km/h (5 Bft)
13.10.2024 18:03 22,0 °C 11,1 °C 58 % 74 % 1014,7 hPa 0,0 l/m² 27,5 km/h (5 Bft) SW 235 ° 0 min 14 W/m² 6,6 °C 2,7 °C 37,0 km/h (5 Bft)
13.10.2024 18:04 22,0 °C 11,1 °C 57 % 74 % 1014,7 hPa 0,0 l/m² 23,1 km/h (4 Bft) W-SW 248 ° 0 min 14 W/m² 6,6 °C 3,8 °C 30,6 km/h (5 Bft)
13.10.2024 18:05 22,0 °C 11,1 °C 58 % 74 % 1014,7 hPa 0,0 l/m² 20,5 km/h (4 Bft) W-SW 238 ° 0 min 12 W/m² 6,6 °C 4,6 °C 24,1 km/h (4 Bft)
13.10.2024 18:06 22,0 °C 11,1 °C 58 % 74 % 1014,8 hPa 0,0 l/m² 18,5 km/h (3 Bft) SW 225 ° 0 min 11 W/m² 6,6 °C 5,2 °C 24,1 km/h (4 Bft)
13.10.2024 18:07 22,0 °C 11,1 °C 58 % 75 % 1014,8 hPa 0,0 l/m² 18,9 km/h (3 Bft) W-SW 244 ° 0 min 9 W/m² 6,8 °C 5,1 °C 27,4 km/h (5 Bft)
13.10.2024 18:08 22,0 °C 11,0 °C 58 % 75 % 1014,8 hPa 0,0 l/m² 16,5 km/h (3 Bft) W-SW 252 ° 0 min 9 W/m² 6,7 °C 5,8 °C 25,7 km/h (4 Bft)
13.10.2024 18:09 22,0 °C 11,0 °C 58 % 75 % 1014,8 hPa 0,0 l/m² 22,2 km/h (4 Bft) W-SW 246 ° 0 min 7 W/m² 6,7 °C 3,9 °C 30,6 km/h (5 Bft)
13.10.2024 18:11 22,0 °C 11,0 °C 58 % 75 % 1014,9 hPa 0,0 l/m² 23,5 km/h (4 Bft) SW 227 ° 0 min 7 W/m² 6,7 °C 3,6 °C 32,2 km/h (5 Bft)
13.10.2024 18:13 21,9 °C 10,9 °C 58 % 75 % 1014,9 hPa 0,0 l/m² 23,0 km/h (4 Bft) S-SW 207 ° 0 min 5 W/m² 6,6 °C 3,6 °C 33,8 km/h (5 Bft)
13.10.2024 18:14 21,9 °C 10,9 °C 58 % 75 % 1014,9 hPa 0,0 l/m² 21,0 km/h (4 Bft) W-SW 249 ° 0 min 5 W/m² 6,6 °C 4,1 °C 30,6 km/h (5 Bft)
13.10.2024 18:15 21,9 °C 10,9 °C 58 % 75 % 1014,8 hPa 0,0 l/m² 27,2 km/h (5 Bft) W-SW 241 ° 0 min 5 W/m² 6,6 °C 2,5 °C 38,6 km/h (6 Bft)
13.10.2024 18:16 21,9 °C 10,9 °C 58 % 75 % 1014,8 hPa 0,0 l/m² 24,0 km/h (4 Bft) W-SW 251 ° 0 min 5 W/m² 6,6 °C 3,3 °C 33,8 km/h (5 Bft)
13.10.2024 18:17 21,9 °C 10,9 °C 58 % 75 % 1014,8 hPa 0,0 l/m² 24,6 km/h (4 Bft) SW 228 ° 0 min 5 W/m² 6,6 °C 3,2 °C 30,6 km/h (5 Bft)
13.10.2024 18:18 21,9 °C 10,9 °C 58 % 75 % 1014,8 hPa 0,0 l/m² 24,6 km/h (4 Bft) W-SW 237 ° 0 min 5 W/m² 6,6 °C 3,2 °C 29,0 km/h (5 Bft)
13.10.2024 18:19 21,9 °C 10,9 °C 58 % 75 % 1014,9 hPa 0,0 l/m² 26,3 km/h (4 Bft) SW 227 ° 0 min 0 W/m² 6,6 °C 2,7 °C 30,6 km/h (5 Bft)
13.10.2024 18:20 21,9 °C 10,9 °C 58 % 75 % 1014,9 hPa 0,0 l/m² 24,4 km/h (4 Bft) W-SW 238 ° 0 min 0 W/m² 6,6 °C 3,2 °C 35,4 km/h (5 Bft)
13.10.2024 18:22 21,9 °C 10,9 °C 58 % 75 % 1014,9 hPa 0,0 l/m² 25,5 km/h (4 Bft) SW 229 ° 0 min 0 W/m² 6,6 °C 2,9 °C 37,0 km/h (5 Bft)
13.10.2024 18:23 21,9 °C 10,8 °C 58 % 75 % 1015,1 hPa 0,0 l/m² 22,0 km/h (4 Bft) SW 225 ° 0 min 0 W/m² 6,5 °C 3,7 °C 29,0 km/h (5 Bft)
13.10.2024 18:24 21,9 °C 10,8 °C 58 % 75 % 1015,0 hPa 0,0 l/m² 22,4 km/h (4 Bft) W-SW 245 ° 0 min 0 W/m² 6,5 °C 3,6 °C 29,0 km/h (5 Bft)
13.10.2024 18:25 21,9 °C 10,8 °C 58 % 75 % 1015,0 hPa 0,0 l/m² 26,8 km/h (4 Bft) SW 236 ° 0 min 0 W/m² 6,5 °C 2,5 °C 32,2 km/h (5 Bft)
13.10.2024 18:26 21,9 °C 10,8 °C 58 % 75 % 1015,0 hPa 0,0 l/m² 22,1 km/h (4 Bft) W-SW 240 ° 0 min 0 W/m² 6,5 °C 3,7 °C 25,7 km/h (4 Bft)
13.10.2024 18:27 21,9 °C 10,8 °C 58 % 75 % 1015,1 hPa 0,0 l/m² 17,4 km/h (3 Bft) W-SW 245 ° 0 min 0 W/m² 6,5 °C 5,2 °C 27,4 km/h (5 Bft)
13.10.2024 18:28 21,9 °C 10,8 °C 58 % 75 % 1015,1 hPa 0,0 l/m² 17,3 km/h (3 Bft) SW 222 ° 0 min 0 W/m² 6,5 °C 5,2 °C 22,5 km/h (4 Bft)
13.10.2024 18:29 21,9 °C 10,8 °C 59 % 75 % 1015,2 hPa 0,0 l/m² 22,7 km/h (4 Bft) SW 235 ° 0 min 0 W/m² 6,5 °C 3,5 °C 30,6 km/h (5 Bft)
13.10.2024 18:31 21,9 °C 10,7 °C 59 % 75 % 1015,1 hPa 0,0 l/m² 21,8 km/h (4 Bft) W-SW 250 ° 0 min 0 W/m² 6,5 °C 3,6 °C 32,2 km/h (5 Bft)
13.10.2024 18:33 21,9 °C 10,7 °C 59 % 76 % 1015,2 hPa 0,0 l/m² 20,6 km/h (4 Bft) SW 236 ° 0 min 0 W/m² 6,6 °C 4,0 °C 27,4 km/h (5 Bft)
13.10.2024 18:34 21,9 °C 10,7 °C 59 % 76 % 1015,3 hPa 0,0 l/m² 20,8 km/h (4 Bft) S-SW 211 ° 0 min 0 W/m² 6,6 °C 3,9 °C 25,7 km/h (4 Bft)
13.10.2024 18:35 21,9 °C 10,7 °C 59 % 76 % 1015,3 hPa 0,0 l/m² 18,1 km/h (3 Bft) W-SW 251 ° 0 min 0 W/m² 6,6 °C 4,8 °C 24,1 km/h (4 Bft)
13.10.2024 18:36 21,9 °C 10,6 °C 59 % 76 % 1015,4 hPa 0,0 l/m² 19,0 km/h (3 Bft) W-SW 239 ° 0 min 0 W/m² 6,5 °C 4,4 °C 24,1 km/h (4 Bft)
13.10.2024 18:37 21,9 °C 10,6 °C 59 % 76 % 1015,3 hPa 0,0 l/m² 19,1 km/h (3 Bft) W-SW 254 ° 0 min 0 W/m² 6,5 °C 4,4 °C 27,4 km/h (5 Bft)
13.10.2024 18:38 21,9 °C 10,6 °C 59 % 76 % 1015,3 hPa 0,0 l/m² 17,8 km/h (3 Bft) SW 221 ° 0 min 0 W/m² 6,5 °C 4,8 °C 25,7 km/h (4 Bft)
13.10.2024 18:39 21,9 °C 10,6 °C 58 % 76 % 1015,3 hPa 0,0 l/m² 18,5 km/h (3 Bft) SW 221 ° 0 min 0 W/m² 6,5 °C 4,6 °C 24,1 km/h (4 Bft)
13.10.2024 18:40 21,9 °C 10,6 °C 58 % 76 % 1015,3 hPa 0,0 l/m² 18,4 km/h (3 Bft) W-SW 246 ° 0 min 0 W/m² 6,5 °C 4,6 °C 25,7 km/h (4 Bft)
13.10.2024 18:42 21,9 °C 10,6 °C 59 % 76 % 1015,4 hPa 0,0 l/m² 23,3 km/h (4 Bft) W-SW 240 ° 0 min 0 W/m² 6,5 °C 3,1 °C 32,2 km/h (5 Bft)
13.10.2024 18:43 21,9 °C 10,6 °C 59 % 76 % 1015,5 hPa 0,0 l/m² 24,6 km/h (4 Bft) W-SW 238 ° 0 min 0 W/m² 6,5 °C 2,7 °C 32,2 km/h (5 Bft)
13.10.2024 18:44 21,9 °C 10,6 °C 59 % 76 % 1015,5 hPa 0,0 l/m² 22,8 km/h (4 Bft) S-SW 212 ° 0 min 0 W/m² 6,5 °C 3,2 °C 27,4 km/h (5 Bft)
13.10.2024 18:46 21,9 °C 10,6 °C 59 % 76 % 1015,6 hPa 0,0 l/m² 22,5 km/h (4 Bft) SW 224 ° 0 min 0 W/m² 6,5 °C 3,3 °C 29,0 km/h (5 Bft)
13.10.2024 18:48 21,9 °C 10,7 °C 59 % 76 % 1015,6 hPa 0,0 l/m² 22,6 km/h (4 Bft) W-SW 239 ° 0 min 0 W/m² 6,6 °C 3,4 °C 32,2 km/h (5 Bft)
13.10.2024 18:49 21,9 °C 10,6 °C 59 % 76 % 1015,6 hPa 0,0 l/m² 17,2 km/h (3 Bft) SW 234 ° 0 min 0 W/m² 6,5 °C 5,0 °C 24,1 km/h (4 Bft)
13.10.2024 18:51 21,9 °C 10,7 °C 59 % 76 % 1015,6 hPa 0,0 l/m² 21,9 km/h (4 Bft) SW 223 ° 0 min 0 W/m² 6,6 °C 3,6 °C 29,0 km/h (5 Bft)
13.10.2024 18:53 21,8 °C 10,6 °C 59 % 76 % 1015,6 hPa 0,0 l/m² 18,1 km/h (3 Bft) SW 226 ° 0 min 0 W/m² 6,5 °C 4,7 °C 27,4 km/h (5 Bft)
13.10.2024 18:54 21,8 °C 10,6 °C 59 % 76 % 1015,6 hPa 0,0 l/m² 19,8 km/h (3 Bft) W-SW 245 ° 0 min 0 W/m² 6,5 °C 4,1 °C 22,5 km/h (4 Bft)
13.10.2024 18:55 21,8 °C 10,6 °C 59 % 76 % 1015,6 hPa 0,0 l/m² 15,4 km/h (3 Bft) SW 234 ° 0 min 0 W/m² 6,5 °C 5,7 °C 19,3 km/h (3 Bft)
13.10.2024 18:56 21,8 °C 10,6 °C 59 % 76 % 1015,7 hPa 0,0 l/m² 14,4 km/h (3 Bft) SW 236 ° 0 min 0 W/m² 6,5 °C 6,1 °C 19,3 km/h (3 Bft)
13.10.2024 18:57 21,8 °C 10,6 °C 59 % 76 % 1015,7 hPa 0,0 l/m² 16,2 km/h (3 Bft) SW 235 ° 0 min 0 W/m² 6,5 °C 5,4 °C 22,5 km/h (4 Bft)
13.10.2024 18:58 21,8 °C 10,5 °C 59 % 76 % 1015,7 hPa 0,0 l/m² 17,9 km/h (3 Bft) SW 229 ° 0 min 0 W/m² 6,5 °C 4,6 °C 22,5 km/h (4 Bft)
13.10.2024 18:59 21,8 °C 10,5 °C 59 % 76 % 1015,6 hPa 0,0 l/m² 17,5 km/h (3 Bft) SW 236 ° 0 min 0 W/m² 6,5 °C 4,8 °C 22,5 km/h (4 Bft)
13.10.2024 19:01 21,8 °C 10,5 °C 59 % 77 % 1015,7 hPa 0,0 l/m² 17,8 km/h (3 Bft) W-SW 244 ° 0 min 0 W/m² 6,6 °C 4,7 °C 25,7 km/h (4 Bft)
13.10.2024 19:03 21,8 °C 10,4 °C 59 % 77 % 1015,7 hPa 0,0 l/m² 16,9 km/h (3 Bft) SW 236 ° 0 min 0 W/m² 6,5 °C 4,9 °C 22,5 km/h (4 Bft)
13.10.2024 19:04 21,8 °C 10,4 °C 59 % 77 % 1015,7 hPa 0,0 l/m² 18,1 km/h (3 Bft) SW 229 ° 0 min 0 W/m² 6,5 °C 4,4 °C 24,1 km/h (4 Bft)
13.10.2024 19:05 21,8 °C 10,4 °C 59 % 77 % 1015,7 hPa 0,0 l/m² 17,9 km/h (3 Bft) W-SW 244 ° 0 min 0 W/m² 6,5 °C 4,5 °C 22,5 km/h (4 Bft)
13.10.2024 19:06 21,8 °C 10,3 °C 59 % 77 % 1015,7 hPa 0,0 l/m² 18,8 km/h (3 Bft) SW 235 ° 0 min 0 W/m² 6,4 °C 4,1 °C 24,1 km/h (4 Bft)
13.10.2024 19:07 21,8 °C 10,4 °C 59 % 77 % 1015,7 hPa 0,0 l/m² 21,4 km/h (4 Bft) W-SW 254 ° 0 min 0 W/m² 6,5 °C 3,4 °C 29,0 km/h (5 Bft)
13.10.2024 19:09 21,8 °C 10,4 °C 59 % 77 % 1015,8 hPa 0,0 l/m² 21,3 km/h (4 Bft) W 261 ° 0 min 0 W/m² 6,5 °C 3,4 °C 32,2 km/h (5 Bft)
13.10.2024 19:10 21,8 °C 10,4 °C 59 % 77 % 1015,8 hPa 0,0 l/m² 21,3 km/h (4 Bft) W-SW 242 ° 0 min 0 W/m² 6,5 °C 3,4 °C 25,7 km/h (4 Bft)
13.10.2024 19:11 21,8 °C 10,4 °C 59 % 77 % 1015,8 hPa 0,0 l/m² 22,2 km/h (4 Bft) SW 224 ° 0 min 0 W/m² 6,5 °C 3,1 °C 27,4 km/h (5 Bft)
13.10.2024 19:12 21,8 °C 10,4 °C 59 % 77 % 1015,8 hPa 0,0 l/m² 16,9 km/h (3 Bft) W-SW 252 ° 0 min 0 W/m² 6,5 °C 4,9 °C 24,1 km/h (4 Bft)
13.10.2024 19:13 21,8 °C 10,4 °C 59 % 77 % 1015,8 hPa 0,0 l/m² 21,3 km/h (4 Bft) W-SW 244 ° 0 min 0 W/m² 6,5 °C 3,4 °C 25,7 km/h (4 Bft)
13.10.2024 19:14 21,8 °C 10,4 °C 59 % 77 % 1015,9 hPa 0,0 l/m² 22,9 km/h (4 Bft) W 259 ° 0 min 0 W/m² 6,5 °C 2,9 °C 29,0 km/h (5 Bft)
13.10.2024 19:15 21,8 °C 10,4 °C 59 % 77 % 1015,8 hPa 0,0 l/m² 23,8 km/h (4 Bft) SW 232 ° 0 min 0 W/m² 6,5 °C 2,7 °C 29,0 km/h (5 Bft)
13.10.2024 19:16 21,8 °C 10,4 °C 59 % 77 % 1015,8 hPa 0,0 l/m² 17,5 km/h (3 Bft) SW 230 ° 0 min 0 W/m² 6,5 °C 4,7 °C 24,1 km/h (4 Bft)
13.10.2024 19:17 21,8 °C 10,4 °C 59 % 77 % 1015,8 hPa 0,0 l/m² 18,3 km/h (3 Bft) W-SW 240 ° 0 min 0 W/m² 6,5 °C 4,4 °C 24,1 km/h (4 Bft)
13.10.2024 19:18 21,8 °C 10,4 °C 59 % 77 % 1015,8 hPa 0,0 l/m² 21,5 km/h (4 Bft) W-SW 250 ° 0 min 0 W/m² 6,5 °C 3,3 °C 24,1 km/h (4 Bft)
13.10.2024 19:19 21,8 °C 10,3 °C 59 % 77 % 1015,8 hPa 0,0 l/m² 17,5 km/h (3 Bft) SW 235 ° 0 min 0 W/m² 6,4 °C 4,5 °C 25,7 km/h (4 Bft)
13.10.2024 19:21 21,8 °C 10,3 °C 60 % 77 % 1015,8 hPa 0,0 l/m² 18,6 km/h (3 Bft) W-SW 249 ° 0 min 0 W/m² 6,4 °C 4,1 °C 24,1 km/h (4 Bft)
13.10.2024 19:23 21,8 °C 10,3 °C 59 % 77 % 1015,9 hPa 0,0 l/m² 20,8 km/h (4 Bft) W-SW 240 ° 0 min 0 W/m² 6,4 °C 3,4 °C 25,7 km/h (4 Bft)
13.10.2024 19:24 21,8 °C 10,3 °C 60 % 77 % 1015,9 hPa 0,0 l/m² 18,2 km/h (3 Bft) W-SW 238 ° 0 min 0 W/m² 6,4 °C 4,3 °C 24,1 km/h (4 Bft)
13.10.2024 19:25 21,9 °C 10,3 °C 60 % 77 % 1015,9 hPa 0,0 l/m² 17,1 km/h (3 Bft) W 259 ° 0 min 0 W/m² 6,4 °C 4,7 °C 19,3 km/h (3 Bft)
13.10.2024 19:27 21,8 °C 10,2 °C 60 % 77 % 1015,8 hPa 0,0 l/m² 18,2 km/h (3 Bft) SW 235 ° 0 min 0 W/m² 6,4 °C 4,2 °C 24,1 km/h (4 Bft)
13.10.2024 19:28 21,8 °C 10,3 °C 60 % 77 % 1015,8 hPa 0,0 l/m² 18,3 km/h (3 Bft) W-SW 248 ° 0 min 0 W/m² 6,4 °C 4,2 °C 27,4 km/h (5 Bft)
13.10.2024 19:29 21,9 °C 10,2 °C 60 % 77 % 1015,9 hPa 0,0 l/m² 17,2 km/h (3 Bft) W-SW 238 ° 0 min 0 W/m² 6,4 °C 4,5 °C 22,5 km/h (4 Bft)
13.10.2024 19:31 21,9 °C 10,2 °C 60 % 78 % 1015,9 hPa 0,0 l/m² 15,4 km/h (3 Bft) S-SW 211 ° 0 min 0 W/m² 6,5 °C 5,2 °C 22,5 km/h (4 Bft)
13.10.2024 19:33 21,8 °C 10,2 °C 60 % 78 % 1015,9 hPa 0,0 l/m² 17,2 km/h (3 Bft) W-SW 250 ° 0 min 0 W/m² 6,5 °C 4,5 °C 22,5 km/h (4 Bft)
13.10.2024 19:34 21,9 °C 10,1 °C 60 % 78 % 1015,9 hPa 0,0 l/m² 16,6 km/h (3 Bft) W-SW 244 ° 0 min 0 W/m² 6,4 °C 4,6 °C 22,5 km/h (4 Bft)
13.10.2024 19:35 21,9 °C 10,1 °C 60 % 78 % 1015,9 hPa 0,0 l/m² 16,4 km/h (3 Bft) SW 236 ° 0 min 0 W/m² 6,4 °C 4,7 °C 20,9 km/h (4 Bft)
13.10.2024 19:36 21,9 °C 10,1 °C 60 % 78 % 1016,0 hPa 0,0 l/m² 17,5 km/h (3 Bft) W 271 ° 0 min 0 W/m² 6,4 °C 4,3 °C 22,5 km/h (4 Bft)
13.10.2024 19:37 21,9 °C 10,1 °C 60 % 78 % 1016,0 hPa 0,0 l/m² 16,6 km/h (3 Bft) W-SW 248 ° 0 min 0 W/m² 6,4 °C 4,6 °C 20,9 km/h (4 Bft)
13.10.2024 19:38 21,8 °C 10,1 °C 60 % 78 % 1016,0 hPa 0,0 l/m² 20,3 km/h (4 Bft) W-SW 238 ° 0 min 0 W/m² 6,4 °C 3,3 °C 24,1 km/h (4 Bft)
13.10.2024 19:39 21,9 °C 10,1 °C 60 % 78 % 1016,0 hPa 0,0 l/m² 16,5 km/h (3 Bft) W-SW 243 ° 0 min 0 W/m² 6,4 °C 4,7 °C 22,5 km/h (4 Bft)
13.10.2024 19:40 21,9 °C 10,1 °C 60 % 78 % 1016,1 hPa 0,0 l/m² 17,2 km/h (3 Bft) SW 236 ° 0 min 0 W/m² 6,4 °C 4,4 °C 22,5 km/h (4 Bft)
13.10.2024 19:42 21,9 °C 10,0 °C 60 % 78 % 1016,2 hPa 0,0 l/m² 16,2 km/h (3 Bft) SW 228 ° 0 min 0 W/m² 6,3 °C 4,6 °C 22,5 km/h (4 Bft)
13.10.2024 19:43 21,9 °C 10,0 °C 60 % 79 % 1016,1 hPa 0,0 l/m² 19,2 km/h (3 Bft) W-SW 257 ° 0 min 0 W/m² 6,5 °C 3,6 °C 22,5 km/h (4 Bft)
13.10.2024 19:44 21,9 °C 10,0 °C 60 % 79 % 1016,1 hPa 0,0 l/m² 17,0 km/h (3 Bft) W-SW 256 ° 0 min 0 W/m² 6,5 °C 4,3 °C 19,3 km/h (3 Bft)
13.10.2024 19:45 21,9 °C 10,0 °C 60 % 79 % 1016,1 hPa 0,0 l/m² 17,9 km/h (3 Bft) W-SW 248 ° 0 min 0 W/m² 6,5 °C 4,0 °C 20,9 km/h (4 Bft)
13.10.2024 19:46 21,9 °C 10,0 °C 60 % 79 % 1016,1 hPa 0,0 l/m² 17,8 km/h (3 Bft) W-SW 242 ° 0 min 0 W/m² 6,5 °C 4,0 °C 20,9 km/h (4 Bft)
13.10.2024 19:47 21,9 °C 9,9 °C 60 % 79 % 1016,2 hPa 0,0 l/m² 16,5 km/h (3 Bft) SW 223 ° 0 min 0 W/m² 6,4 °C 4,4 °C 20,9 km/h (4 Bft)
13.10.2024 19:48 21,9 °C 9,9 °C 60 % 79 % 1016,1 hPa 0,0 l/m² 15,6 km/h (3 Bft) W-SW 251 ° 0 min 0 W/m² 6,4 °C 4,8 °C 20,9 km/h (4 Bft)
13.10.2024 19:49 21,9 °C 9,9 °C 60 % 79 % 1016,2 hPa 0,0 l/m² 15,0 km/h (3 Bft) SW 226 ° 0 min 0 W/m² 6,4 °C 5,0 °C 20,9 km/h (4 Bft)
13.10.2024 19:50 21,9 °C 9,9 °C 60 % 79 % 1016,0 hPa 0,0 l/m² 17,6 km/h (3 Bft) SW 230 ° 0 min 0 W/m² 6,4 °C 4,0 °C 20,9 km/h (4 Bft)
13.10.2024 19:52 21,9 °C 9,9 °C 60 % 79 % 1016,2 hPa 0,0 l/m² 15,6 km/h (3 Bft) SW 229 ° 0 min 0 W/m² 6,4 °C 4,8 °C 17,7 km/h (3 Bft)
13.10.2024 19:53 21,9 °C 9,9 °C 60 % 79 % 1016,2 hPa 0,0 l/m² 15,6 km/h (3 Bft) W-SW 248 ° 0 min 0 W/m² 6,4 °C 4,8 °C 20,9 km/h (4 Bft)
13.10.2024 19:54 21,9 °C 9,8 °C 60 % 79 % 1016,2 hPa 0,0 l/m² 16,3 km/h (3 Bft) W-SW 254 ° 0 min 0 W/m² 6,3 °C 4,4 °C 19,3 km/h (3 Bft)
13.10.2024 19:55 21,9 °C 9,8 °C 60 % 79 % 1016,2 hPa 0,0 l/m² 15,3 km/h (3 Bft) W-SW 246 ° 0 min 0 W/m² 6,3 °C 4,8 °C 20,9 km/h (4 Bft)
13.10.2024 19:56 21,9 °C 9,8 °C 60 % 80 % 1016,2 hPa 0,0 l/m² 15,3 km/h (3 Bft) W-SW 238 ° 0 min 0 W/m² 6,5 °C 4,8 °C 19,3 km/h (3 Bft)
13.10.2024 19:57 21,9 °C 9,8 °C 60 % 80 % 1016,2 hPa 0,0 l/m² 15,4 km/h (3 Bft) W-SW 243 ° 0 min 0 W/m² 6,5 °C 4,7 °C 19,3 km/h (3 Bft)
13.10.2024 19:58 21,9 °C 9,8 °C 60 % 80 % 1016,3 hPa 0,0 l/m² 16,1 km/h (3 Bft) SW 229 ° 0 min 0 W/m² 6,5 °C 4,4 °C 20,9 km/h (4 Bft)
13.10.2024 19:59 21,9 °C 9,8 °C 60 % 80 % 1016,3 hPa 0,0 l/m² 11,6 km/h (2 Bft) W-SW 237 ° 0 min 0 W/m² 6,5 °C 6,5 °C 17,7 km/h (3 Bft)
13.10.2024 20:01 21,9 °C 9,7 °C 60 % 80 % 1016,2 hPa 0,0 l/m² 14,8 km/h (3 Bft) SW 225 ° 0 min 0 W/m² 6,4 °C 4,9 °C 25,7 km/h (4 Bft)
13.10.2024 20:03 21,9 °C 9,7 °C 60 % 80 % 1016,2 hPa 0,0 l/m² 16,4 km/h (3 Bft) SW 229 ° 0 min 0 W/m² 6,4 °C 4,2 °C 20,9 km/h (4 Bft)
13.10.2024 20:04 21,9 °C 9,7 °C 60 % 80 % 1016,3 hPa 0,0 l/m² 15,9 km/h (3 Bft) SW 232 ° 0 min 0 W/m² 6,4 °C 4,4 °C 20,9 km/h (4 Bft)
13.10.2024 20:05 21,9 °C 9,7 °C 60 % 80 % 1016,2 hPa 0,0 l/m² 17,1 km/h (3 Bft) W-SW 237 ° 0 min 0 W/m² 6,4 °C 3,9 °C 22,5 km/h (4 Bft)
13.10.2024 20:06 21,9 °C 9,7 °C 60 % 80 % 1016,4 hPa 0,0 l/m² 15,8 km/h (3 Bft) W-SW 238 ° 0 min 0 W/m² 6,4 °C 4,4 °C 19,3 km/h (3 Bft)
13.10.2024 20:07 21,9 °C 9,7 °C 60 % 80 % 1016,3 hPa 0,0 l/m² 15,3 km/h (3 Bft) SW 234 ° 0 min 0 W/m² 6,4 °C 4,6 °C 20,9 km/h (4 Bft)
13.10.2024 20:08 21,9 °C 9,7 °C 60 % 80 % 1016,3 hPa 0,0 l/m² 15,6 km/h (3 Bft) W 262 ° 0 min 0 W/m² 6,4 °C 4,5 °C 20,9 km/h (4 Bft)
13.10.2024 20:09 21,9 °C 9,7 °C 60 % 80 % 1016,4 hPa 0,0 l/m² 15,2 km/h (3 Bft) SW 232 ° 0 min 0 W/m² 6,4 °C 4,7 °C 19,3 km/h (3 Bft)
13.10.2024 20:10 21,9 °C 9,7 °C 60 % 80 % 1016,3 hPa 0,0 l/m² 14,7 km/h (3 Bft) SW 227 ° 0 min 0 W/m² 6,4 °C 4,9 °C 19,3 km/h (3 Bft)
13.10.2024 20:12 21,9 °C 9,7 °C 60 % 80 % 1016,3 hPa 0,0 l/m² 12,3 km/h (2 Bft) SW 231 ° 0 min 0 W/m² 6,4 °C 6,0 °C 17,7 km/h (3 Bft)
13.10.2024 20:13 21,9 °C 9,7 °C 60 % 80 % 1016,4 hPa 0,0 l/m² 14,1 km/h (3 Bft) SW 236 ° 0 min 0 W/m² 6,4 °C 5,2 °C 17,7 km/h (3 Bft)
13.10.2024 20:14 21,9 °C 9,6 °C 60 % 80 % 1016,2 hPa 0,0 l/m² 13,8 km/h (3 Bft) SW 230 ° 0 min 0 W/m² 6,3 °C 5,2 °C 19,3 km/h (3 Bft)
13.10.2024 20:15 21,9 °C 9,6 °C 60 % 80 % 1016,3 hPa 0,0 l/m² 16,3 km/h (3 Bft) W-SW 242 ° 0 min 0 W/m² 6,3 °C 4,1 °C 20,9 km/h (4 Bft)
13.10.2024 20:16 21,9 °C 9,6 °C 60 % 80 % 1016,4 hPa 0,0 l/m² 15,7 km/h (3 Bft) W-SW 237 ° 0 min 0 W/m² 6,3 °C 4,4 °C 19,3 km/h (3 Bft)
13.10.2024 20:17 21,9 °C 9,6 °C 60 % 80 % 1016,3 hPa 0,0 l/m² 15,5 km/h (3 Bft) SW 233 ° 0 min 0 W/m² 6,3 °C 4,4 °C 22,5 km/h (4 Bft)
13.10.2024 20:18 21,9 °C 9,6 °C 60 % 81 % 1016,4 hPa 0,0 l/m² 14,0 km/h (3 Bft) SW 225 ° 0 min 0 W/m² 6,5 °C 5,1 °C 19,3 km/h (3 Bft)
13.10.2024 20:19 21,9 °C 9,6 °C 60 % 81 % 1016,4 hPa 0,0 l/m² 14,4 km/h (3 Bft) SW 221 ° 0 min 0 W/m² 6,5 °C 4,9 °C 19,3 km/h (3 Bft)
13.10.2024 20:21 21,9 °C 9,6 °C 60 % 81 % 1016,4 hPa 0,0 l/m² 13,9 km/h (3 Bft) SW 231 ° 0 min 0 W/m² 6,5 °C 5,1 °C 19,3 km/h (3 Bft)
13.10.2024 20:23 21,9 °C 9,6 °C 60 % 81 % 1016,4 hPa 0,0 l/m² 12,2 km/h (2 Bft) W-SW 246 ° 0 min 0 W/m² 6,5 °C 6,0 °C 16,1 km/h (3 Bft)
13.10.2024 20:24 21,9 °C 9,6 °C 60 % 81 % 1016,5 hPa 0,0 l/m² 12,1 km/h (2 Bft) SW 220 ° 0 min 0 W/m² 6,5 °C 6,0 °C 16,1 km/h (3 Bft)
13.10.2024 20:25 21,9 °C 9,6 °C 60 % 81 % 1016,4 hPa 0,0 l/m² 11,0 km/h (2 Bft) SW 232 ° 0 min 0 W/m² 6,5 °C 6,6 °C 14,5 km/h (3 Bft)
13.10.2024 20:26 21,9 °C 9,6 °C 60 % 81 % 1016,5 hPa 0,0 l/m² 11,2 km/h (2 Bft) SW 232 ° 0 min 0 W/m² 6,5 °C 6,5 °C 16,1 km/h (3 Bft)
13.10.2024 20:27 21,9 °C 9,5 °C 60 % 81 % 1016,5 hPa 0,0 l/m² 14,5 km/h (3 Bft) W-SW 247 ° 0 min 0 W/m² 6,4 °C 4,7 °C 19,3 km/h (3 Bft)
13.10.2024 20:28 21,9 °C 9,5 °C 60 % 81 % 1016,6 hPa 0,0 l/m² 12,4 km/h (2 Bft) W-SW 255 ° 0 min 0 W/m² 6,4 °C 5,7 °C 17,7 km/h (3 Bft)
13.10.2024 20:29 21,9 °C 9,5 °C 60 % 81 % 1016,6 hPa 0,0 l/m² 11,5 km/h (2 Bft) W-SW 237 ° 0 min 0 W/m² 6,4 °C 6,2 °C 16,1 km/h (3 Bft)
13.10.2024 20:31 21,9 °C 9,5 °C 60 % 81 % 1016,6 hPa 0,0 l/m² 13,6 km/h (3 Bft) SW 225 ° 0 min 0 W/m² 6,4 °C 5,2 °C 17,7 km/h (3 Bft)
13.10.2024 20:33 21,9 °C 9,4 °C 60 % 81 % 1016,5 hPa 0,0 l/m² 9,9 km/h (2 Bft) SW 232 ° 0 min 0 W/m² 6,3 °C 7,0 °C 14,5 km/h (3 Bft)
13.10.2024 20:34 21,9 °C 9,4 °C 60 % 82 % 1016,6 hPa 0,0 l/m² 10,3 km/h (2 Bft) SW 232 ° 0 min 0 W/m² 6,5 °C 6,8 °C 16,1 km/h (3 Bft)
13.10.2024 20:35 21,9 °C 9,4 °C 60 % 82 % 1016,7 hPa 0,0 l/m² 12,7 km/h (3 Bft) W-SW 245 ° 0 min 0 W/m² 6,5 °C 5,5 °C 16,1 km/h (3 Bft)
13.10.2024 20:36 21,9 °C 9,4 °C 60 % 82 % 1016,7 hPa 0,0 l/m² 12,4 km/h (2 Bft) SW 224 ° 0 min 0 W/m² 6,5 °C 5,6 °C 16,1 km/h (3 Bft)
13.10.2024 20:37 22,0 °C 9,4 °C 60 % 82 % 1016,7 hPa 0,0 l/m² 11,3 km/h (2 Bft) SW 236 ° 0 min 0 W/m² 6,5 °C 6,2 °C 16,1 km/h (3 Bft)
13.10.2024 20:38 21,9 °C 9,3 °C 60 % 82 % 1016,7 hPa 0,0 l/m² 13,6 km/h (3 Bft) W-SW 240 ° 0 min 0 W/m² 6,4 °C 4,9 °C 17,7 km/h (3 Bft)
13.10.2024 20:39 21,9 °C 9,4 °C 60 % 82 % 1016,7 hPa 0,0 l/m² 11,0 km/h (2 Bft) W-SW 243 ° 0 min 0 W/m² 6,5 °C 6,4 °C 16,1 km/h (3 Bft)
13.10.2024 20:41 21,9 °C 9,3 °C 60 % 82 % 1016,7 hPa 0,0 l/m² 11,5 km/h (2 Bft) W-SW 251 ° 0 min 0 W/m² 6,4 °C 6,0 °C 16,1 km/h (3 Bft)
13.10.2024 20:43 21,9 °C 9,3 °C 60 % 82 % 1016,7 hPa 0,0 l/m² 12,9 km/h (3 Bft) W-SW 238 ° 0 min 0 W/m² 6,4 °C 5,3 °C 16,1 km/h (3 Bft)
13.10.2024 20:44 22,0 °C 9,4 °C 60 % 82 % 1016,9 hPa 0,0 l/m² 10,0 km/h (2 Bft) SW 231 ° 0 min 0 W/m² 6,5 °C 6,9 °C 16,1 km/h (3 Bft)
13.10.2024 20:45 21,9 °C 9,4 °C 60 % 82 % 1016,9 hPa 0,0 l/m² 11,2 km/h (2 Bft) W-SW 244 ° 0 min 0 W/m² 6,5 °C 6,2 °C 16,1 km/h (3 Bft)
13.10.2024 20:46 22,0 °C 9,4 °C 60 % 82 % 1016,8 hPa 0,0 l/m² 8,7 km/h (2 Bft) W-SW 240 ° 0 min 0 W/m² 6,5 °C 7,7 °C 12,9 km/h (3 Bft)
13.10.2024 20:47 21,9 °C 9,4 °C 60 % 82 % 1016,7 hPa 0,0 l/m² 10,7 km/h (2 Bft) SW 224 ° 0 min 0 W/m² 6,5 °C 6,5 °C 12,9 km/h (3 Bft)
13.10.2024 20:48 22,0 °C 9,4 °C 60 % 82 % 1016,7 hPa 0,0 l/m² 10,2 km/h (2 Bft) SW 232 ° 0 min 0 W/m² 6,5 °C 6,8 °C 12,9 km/h (3 Bft)
13.10.2024 20:49 22,0 °C 9,4 °C 60 % 82 % 1016,7 hPa 0,0 l/m² 10,6 km/h (2 Bft) SW 229 ° 0 min 0 W/m² 6,5 °C 6,6 °C 14,5 km/h (3 Bft)
13.10.2024 20:51 22,0 °C 9,4 °C 60 % 82 % 1016,8 hPa 0,0 l/m² 8,8 km/h (2 Bft) SW 231 ° 0 min 0 W/m² 6,5 °C 7,7 °C 16,1 km/h (3 Bft)
13.10.2024 20:53 22,0 °C 9,4 °C 60 % 82 % 1016,8 hPa 0,0 l/m² 5,7 km/h (2 Bft) SW 229 ° 0 min 0 W/m² 6,5 °C 9,4 °C 8,0 km/h (2 Bft)
13.10.2024 20:54 22,0 °C 9,4 °C 60 % 82 % 1016,9 hPa 0,0 l/m² 6,7 km/h (2 Bft) SW 229 ° 0 min 0 W/m² 6,5 °C 9,2 °C 8,0 km/h (2 Bft)
13.10.2024 20:55 22,0 °C 9,4 °C 60 % 82 % 1016,8 hPa 0,0 l/m² 5,5 km/h (2 Bft) SW 229 ° 0 min 0 W/m² 6,5 °C 9,4 °C 9,7 km/h (2 Bft)
13.10.2024 20:56 22,0 °C 9,3 °C 60 % 82 % 1016,8 hPa 0,0 l/m² 6,8 km/h (2 Bft) SW 227 ° 0 min 0 W/m² 6,4 °C 9,0 °C 8,0 km/h (2 Bft)
13.10.2024 20:58 22,0 °C 9,3 °C 60 % 82 % 1016,9 hPa 0,0 l/m² 7,2 km/h (2 Bft) SW 224 ° 0 min 0 W/m² 6,4 °C 8,7 °C 12,9 km/h (3 Bft)
13.10.2024 20:59 22,0 °C 9,3 °C 60 % 82 % 1016,9 hPa 0,0 l/m² 11,1 km/h (2 Bft) SW 221 ° 0 min 0 W/m² 6,4 °C 6,2 °C 14,5 km/h (3 Bft)
13.10.2024 21:01 22,0 °C 9,3 °C 60 % 83 % 1016,9 hPa 0,0 l/m² 9,6 km/h (2 Bft) SW 227 ° 0 min 0 W/m² 6,6 °C 7,1 °C 12,9 km/h (3 Bft)
13.10.2024 21:03 22,0 °C 9,3 °C 60 % 83 % 1016,9 hPa 0,0 l/m² 9,3 km/h (2 Bft) SW 218 ° 0 min 0 W/m² 6,6 °C 7,3 °C 11,3 km/h (2 Bft)
13.10.2024 21:04 22,0 °C 9,3 °C 60 % 83 % 1016,9 hPa 0,0 l/m² 9,0 km/h (2 Bft) SW 229 ° 0 min 0 W/m² 6,6 °C 7,4 °C 11,3 km/h (2 Bft)
13.10.2024 21:05 22,0 °C 9,3 °C 60 % 83 % 1016,9 hPa 0,0 l/m² 11,3 km/h (2 Bft) SW 225 ° 0 min 0 W/m² 6,6 °C 6,1 °C 14,5 km/h (3 Bft)
13.10.2024 21:06 22,0 °C 9,3 °C 60 % 83 % 1016,9 hPa 0,0 l/m² 11,2 km/h (2 Bft) W-SW 242 ° 0 min 0 W/m² 6,6 °C 6,1 °C 14,5 km/h (3 Bft)
13.10.2024 21:07 22,0 °C 9,3 °C 60 % 83 % 1016,9 hPa 0,0 l/m² 8,7 km/h (2 Bft) SW 226 ° 0 min 0 W/m² 6,6 °C 7,6 °C 11,3 km/h (2 Bft)
13.10.2024 21:08 22,0 °C 9,3 °C 60 % 83 % 1016,9 hPa 0,0 l/m² 7,4 km/h (2 Bft) SW 228 ° 0 min 0 W/m² 6,6 °C 8,6 °C 11,3 km/h (2 Bft)
13.10.2024 21:09 22,0 °C 9,3 °C 60 % 83 % 1017,0 hPa 0,0 l/m² 10,6 km/h (2 Bft) SW 232 ° 0 min 0 W/m² 6,6 °C 6,5 °C 14,5 km/h (3 Bft)
13.10.2024 21:11 22,0 °C 9,4 °C 60 % 83 % 1017,0 hPa 0,0 l/m² 10,9 km/h (2 Bft) SW 233 ° 0 min 0 W/m² 6,7 °C 6,4 °C 16,1 km/h (3 Bft)
13.10.2024 21:13 22,0 °C 9,3 °C 60 % 83 % 1016,9 hPa 0,0 l/m² 10,5 km/h (2 Bft) S-SW 213 ° 0 min 0 W/m² 6,6 °C 6,5 °C 14,5 km/h (3 Bft)
13.10.2024 21:14 22,0 °C 9,3 °C 60 % 83 % 1016,8 hPa 0,0 l/m² 12,6 km/h (3 Bft) SW 217 ° 0 min 0 W/m² 6,6 °C 5,4 °C 14,5 km/h (3 Bft)
13.10.2024 21:15 22,0 °C 9,3 °C 60 % 83 % 1016,9 hPa 0,0 l/m² 11,3 km/h (2 Bft) SW 214 ° 0 min 0 W/m² 6,6 °C 6,1 °C 12,9 km/h (3 Bft)
13.10.2024 21:16 22,1 °C 9,3 °C 60 % 83 % 1016,9 hPa 0,0 l/m² 10,7 km/h (2 Bft) SW 221 ° 0 min 0 W/m² 6,6 °C 6,4 °C 12,9 km/h (3 Bft)
13.10.2024 21:17 22,0 °C 9,3 °C 60 % 83 % 1016,9 hPa 0,0 l/m² 11,5 km/h (2 Bft) SW 217 ° 0 min 0 W/m² 6,6 °C 6,0 °C 14,5 km/h (3 Bft)
13.10.2024 21:18 22,1 °C 9,3 °C 60 % 83 % 1017,0 hPa 0,0 l/m² 11,2 km/h (2 Bft) SW 221 ° 0 min 0 W/m² 6,6 °C 6,1 °C 12,9 km/h (3 Bft)
13.10.2024 21:19 22,0 °C 9,2 °C 60 % 83 % 1016,9 hPa 0,0 l/m² 10,8 km/h (2 Bft) SW 223 ° 0 min 0 W/m² 6,5 °C 6,2 °C 12,9 km/h (3 Bft)
13.10.2024 21:21 22,0 °C 9,2 °C 60 % 83 % 1017,0 hPa 0,0 l/m² 11,2 km/h (2 Bft) SW 218 ° 0 min 0 W/m² 6,5 °C 6,0 °C 14,5 km/h (3 Bft)
13.10.2024 21:23 22,0 °C 9,1 °C 60 % 83 % 1017,1 hPa 0,0 l/m² 11,4 km/h (2 Bft) SW 220 ° 0 min 0 W/m² 6,4 °C 5,8 °C 19,3 km/h (3 Bft)
13.10.2024 21:24 22,0 °C 9,1 °C 60 % 83 % 1017,1 hPa 0,0 l/m² 11,4 km/h (2 Bft) SW 225 ° 0 min 0 W/m² 6,4 °C 5,8 °C 14,5 km/h (3 Bft)
13.10.2024 21:25 22,0 °C 9,1 °C 60 % 83 % 1017,1 hPa 0,0 l/m² 10,2 km/h (2 Bft) SW 236 ° 0 min 0 W/m² 6,4 °C 6,5 °C 12,9 km/h (3 Bft)
13.10.2024 21:26 22,1 °C 9,1 °C 60 % 84 % 1017,2 hPa 0,0 l/m² 8,7 km/h (2 Bft) W-SW 243 ° 0 min 0 W/m² 6,5 °C 7,4 °C 12,9 km/h (3 Bft)
13.10.2024 21:27 22,0 °C 9,1 °C 60 % 84 % 1017,1 hPa 0,0 l/m² 10,5 km/h (2 Bft) SW 224 ° 0 min 0 W/m² 6,5 °C 6,3 °C 17,7 km/h (3 Bft)
13.10.2024 21:28 22,0 °C 9,1 °C 60 % 84 % 1017,2 hPa 0,0 l/m² 8,0 km/h (2 Bft) SW 228 ° 0 min 0 W/m² 6,5 °C 7,9 °C 11,3 km/h (2 Bft)
13.10.2024 21:29 22,1 °C 9,1 °C 60 % 84 % 1017,1 hPa 0,0 l/m² 6,6 km/h (2 Bft) SW 229 ° 0 min 0 W/m² 6,5 °C 9,0 °C 9,7 km/h (2 Bft)
13.10.2024 21:31 22,1 °C 9,1 °C 60 % 84 % 1017,2 hPa 0,0 l/m² 7,9 km/h (2 Bft) W-SW 248 ° 0 min 0 W/m² 6,5 °C 8,0 °C 16,1 km/h (3 Bft)
13.10.2024 21:33 22,0 °C 9,2 °C 60 % 84 % 1017,3 hPa 0,0 l/m² 10,5 km/h (2 Bft) W-SW 248 ° 0 min 0 W/m² 6,6 °C 6,4 °C 16,1 km/h (3 Bft)
13.10.2024 21:34 22,0 °C 9,2 °C 60 % 84 % 1017,3 hPa 0,0 l/m² 12,9 km/h (3 Bft) SW 229 ° 0 min 0 W/m² 6,6 °C 5,1 °C 16,1 km/h (3 Bft)
13.10.2024 21:35 22,0 °C 9,2 °C 60 % 84 % 1017,3 hPa 0,0 l/m² 10,5 km/h (2 Bft) W-SW 240 ° 0 min 0 W/m² 6,6 °C 6,4 °C 14,5 km/h (3 Bft)
13.10.2024 21:36 22,0 °C 9,2 °C 60 % 84 % 1017,2 hPa 0,0 l/m² 12,6 km/h (3 Bft) W-SW 240 ° 0 min 0 W/m² 6,6 °C 5,3 °C 16,1 km/h (3 Bft)
13.10.2024 21:37 22,0 °C 9,3 °C 60 % 84 % 1017,3 hPa 0,0 l/m² 10,6 km/h (2 Bft) SW 234 ° 0 min 0 W/m² 6,7 °C 6,5 °C 16,1 km/h (3 Bft)
13.10.2024 21:38 22,0 °C 9,3 °C 60 % 84 % 1017,2 hPa 0,0 l/m² 10,3 km/h (2 Bft) W-SW 238 ° 0 min 0 W/m² 6,7 °C 6,6 °C 16,1 km/h (3 Bft)
13.10.2024 21:39 22,1 °C 9,3 °C 60 % 84 % 1017,3 hPa 0,0 l/m² 15,5 km/h (3 Bft) SW 231 ° 0 min 0 W/m² 6,7 °C 4,1 °C 19,3 km/h (3 Bft)
13.10.2024 21:40 22,0 °C 9,3 °C 60 % 84 % 1017,3 hPa 0,0 l/m² 11,1 km/h (2 Bft) W-SW 252 ° 0 min 0 W/m² 6,7 °C 6,2 °C 16,1 km/h (3 Bft)
13.10.2024 21:42 22,0 °C 9,3 °C 60 % 84 % 1017,2 hPa 0,0 l/m² 13,9 km/h (3 Bft) SW 223 ° 0 min 0 W/m² 6,7 °C 4,8 °C 17,7 km/h (3 Bft)
13.10.2024 21:44 22,0 °C 9,3 °C 60 % 83 % 1017,3 hPa 0,0 l/m² 14,1 km/h (3 Bft) SW 223 ° 0 min 0 W/m² 6,6 °C 4,7 °C 19,3 km/h (3 Bft)
13.10.2024 21:46 22,0 °C 9,3 °C 60 % 83 % 1017,4 hPa 0,0 l/m² 12,9 km/h (3 Bft) SW 231 ° 0 min 0 W/m² 6,6 °C 5,3 °C 20,9 km/h (4 Bft)
13.10.2024 21:48 22,1 °C 9,2 °C 60 % 83 % 1017,3 hPa 0,0 l/m² 14,0 km/h (3 Bft) SW 221 ° 0 min 0 W/m² 6,5 °C 4,6 °C 20,9 km/h (4 Bft)
13.10.2024 21:49 22,0 °C 9,2 °C 60 % 83 % 1017,4 hPa 0,0 l/m² 13,4 km/h (3 Bft) SW 234 ° 0 min 0 W/m² 6,5 °C 4,9 °C 17,7 km/h (3 Bft)
13.10.2024 21:51 22,0 °C 9,2 °C 60 % 83 % 1017,3 hPa 0,0 l/m² 13,7 km/h (3 Bft) W-SW 242 ° 0 min 0 W/m² 6,5 °C 4,8 °C 19,3 km/h (3 Bft)
13.10.2024 21:53 22,1 °C 9,2 °C 60 % 83 % 1017,4 hPa 0,0 l/m² 15,4 km/h (3 Bft) SW 234 ° 0 min 0 W/m² 6,5 °C 4,0 °C 22,5 km/h (4 Bft)
13.10.2024 21:54 22,1 °C 9,2 °C 60 % 83 % 1017,4 hPa 0,0 l/m² 12,1 km/h (2 Bft) SW 225 ° 0 min 0 W/m² 6,5 °C 5,5 °C 14,5 km/h (3 Bft)
13.10.2024 21:55 22,0 °C 9,2 °C 60 % 83 % 1017,5 hPa 0,0 l/m² 11,2 km/h (2 Bft) W-SW 240 ° 0 min 0 W/m² 6,5 °C 6,0 °C 14,5 km/h (3 Bft)
13.10.2024 21:56 22,1 °C 9,1 °C 60 % 83 % 1017,5 hPa 0,0 l/m² 14,2 km/h (3 Bft) SW 229 ° 0 min 0 W/m² 6,4 °C 4,4 °C 17,7 km/h (3 Bft)
13.10.2024 21:57 22,0 °C 9,1 °C 60 % 83 % 1017,4 hPa 0,0 l/m² 14,1 km/h (3 Bft) SW 227 ° 0 min 0 W/m² 6,4 °C 4,4 °C 17,7 km/h (3 Bft)
13.10.2024 21:58 22,0 °C 9,1 °C 60 % 83 % 1017,4 hPa 0,0 l/m² 13,0 km/h (3 Bft) SW 232 ° 0 min 0 W/m² 6,4 °C 5,0 °C 19,3 km/h (3 Bft)
13.10.2024 21:59 22,0 °C 9,1 °C 60 % 83 % 1017,4 hPa 0,0 l/m² 12,2 km/h (2 Bft) W-SW 240 ° 0 min 0 W/m² 6,4 °C 5,4 °C 17,7 km/h (3 Bft)
13.10.2024 22:01 22,0 °C 9,1 °C 60 % 83 % 1017,5 hPa 0,0 l/m² 13,9 km/h (3 Bft) SW 221 ° 0 min 0 W/m² 6,4 °C 4,5 °C 22,5 km/h (4 Bft)
13.10.2024 22:03 22,0 °C 9,1 °C 60 % 84 % 1017,5 hPa 0,0 l/m² 14,5 km/h (3 Bft) SW 225 ° 0 min 0 W/m² 6,5 °C 4,3 °C 19,3 km/h (3 Bft)
13.10.2024 22:04 22,0 °C 9,1 °C 60 % 84 % 1017,5 hPa 0,0 l/m² 15,5 km/h (3 Bft) W-SW 244 ° 0 min 0 W/m² 6,5 °C 3,8 °C 22,5 km/h (4 Bft)
13.10.2024 22:05 22,0 °C 9,1 °C 60 % 84 % 1017,5 hPa 0,0 l/m² 13,1 km/h (3 Bft) SW 227 ° 0 min 0 W/m² 6,5 °C 4,9 °C 17,7 km/h (3 Bft)
13.10.2024 22:06 22,0 °C 9,1 °C 60 % 83 % 1017,5 hPa 0,0 l/m² 13,6 km/h (3 Bft) SW 223 ° 0 min 0 W/m² 6,4 °C 4,7 °C 17,7 km/h (3 Bft)
13.10.2024 22:07 22,0 °C 9,1 °C 60 % 83 % 1017,5 hPa 0,0 l/m² 14,1 km/h (3 Bft) SW 226 ° 0 min 0 W/m² 6,4 °C 4,4 °C 19,3 km/h (3 Bft)
13.10.2024 22:08 22,0 °C 9,1 °C 60 % 83 % 1017,5 hPa 0,0 l/m² 18,0 km/h (3 Bft) SW 223 ° 0 min 0 W/m² 6,4 °C 2,8 °C 24,1 km/h (4 Bft)
13.10.2024 22:09 22,0 °C 9,1 °C 60 % 84 % 1017,6 hPa 0,0 l/m² 16,9 km/h (3 Bft) SW 214 ° 0 min 0 W/m² 6,5 °C 3,3 °C 22,5 km/h (4 Bft)
13.10.2024 22:11 22,0 °C 9,1 °C 60 % 84 % 1017,6 hPa 0,0 l/m² 15,2 km/h (3 Bft) SW 217 ° 0 min 0 W/m² 6,5 °C 4,0 °C 20,9 km/h (4 Bft)
13.10.2024 22:13 21,9 °C 9,0 °C 60 % 84 % 1017,6 hPa 0,0 l/m² 15,4 km/h (3 Bft) SW 225 ° 0 min 0 W/m² 6,4 °C 3,7 °C 20,9 km/h (4 Bft)
13.10.2024 22:14 22,0 °C 9,0 °C 60 % 83 % 1017,6 hPa 0,0 l/m² 15,7 km/h (3 Bft) SW 229 ° 0 min 0 W/m² 6,3 °C 3,6 °C 22,5 km/h (4 Bft)
13.10.2024 22:15 21,9 °C 9,0 °C 60 % 84 % 1017,6 hPa 0,0 l/m² 16,3 km/h (3 Bft) SW 218 ° 0 min 0 W/m² 6,4 °C 3,4 °C 20,9 km/h (4 Bft)
13.10.2024 22:16 21,9 °C 9,1 °C 60 % 84 % 1017,5 hPa 0,0 l/m² 14,0 km/h (3 Bft) SW 224 ° 0 min 0 W/m² 6,5 °C 4,5 °C 17,7 km/h (3 Bft)
13.10.2024 22:17 21,9 °C 9,0 °C 60 % 84 % 1017,6 hPa 0,0 l/m² 13,0 km/h (3 Bft) SW 217 ° 0 min 0 W/m² 6,4 °C 4,9 °C 19,3 km/h (3 Bft)
13.10.2024 22:18 21,9 °C 9,0 °C 60 % 84 % 1017,6 hPa 0,0 l/m² 15,4 km/h (3 Bft) W-SW 243 ° 0 min 0 W/m² 6,4 °C 3,7 °C 19,3 km/h (3 Bft)
13.10.2024 22:19 21,9 °C 9,0 °C 60 % 84 % 1017,7 hPa 0,0 l/m² 8,2 km/h (2 Bft) SW 215 ° 0 min 0 W/m² 6,4 °C 7,7 °C 11,3 km/h (2 Bft)
13.10.2024 22:20 21,9 °C 8,9 °C 60 % 84 % 1017,7 hPa 0,0 l/m² 10,8 km/h (2 Bft) SW 227 ° 0 min 0 W/m² 6,3 °C 5,9 °C 14,5 km/h (3 Bft)
13.10.2024 22:22 21,9 °C 8,9 °C 60 % 84 % 1017,6 hPa 0,0 l/m² 11,0 km/h (2 Bft) SW 219 ° 0 min 0 W/m² 6,3 °C 5,8 °C 16,1 km/h (3 Bft)
13.10.2024 22:23 21,9 °C 8,9 °C 60 % 84 % 1017,7 hPa 0,0 l/m² 15,0 km/h (3 Bft) SW 227 ° 0 min 0 W/m² 6,3 °C 3,8 °C 17,7 km/h (3 Bft)
13.10.2024 22:24 21,9 °C 8,9 °C 60 % 84 % 1017,7 hPa 0,0 l/m² 12,5 km/h (2 Bft) SW 220 ° 0 min 0 W/m² 6,3 °C 5,0 °C 17,7 km/h (3 Bft)
13.10.2024 22:25 21,9 °C 8,9 °C 60 % 84 % 1017,7 hPa 0,0 l/m² 10,2 km/h (2 Bft) SW 223 ° 0 min 0 W/m² 6,3 °C 6,3 °C 12,9 km/h (3 Bft)
13.10.2024 22:26 21,9 °C 8,9 °C 60 % 84 % 1017,8 hPa 0,0 l/m² 9,6 km/h (2 Bft) SW 227 ° 0 min 0 W/m² 6,3 °C 6,6 °C 16,1 km/h (3 Bft)
13.10.2024 22:27 21,9 °C 8,9 °C 60 % 84 % 1017,8 hPa 0,0 l/m² 8,9 km/h (2 Bft) SW 215 ° 0 min 0 W/m² 6,3 °C 7,1 °C 14,5 km/h (3 Bft)
13.10.2024 22:28 21,9 °C 8,8 °C 60 % 84 % 1017,9 hPa 0,0 l/m² 12,6 km/h (3 Bft) W-SW 240 ° 0 min 0 W/m² 6,2 °C 4,8 °C 17,7 km/h (3 Bft)
13.10.2024 22:29 21,9 °C 8,8 °C 60 % 84 % 1017,8 hPa 0,0 l/m² 11,4 km/h (2 Bft) SW 232 ° 0 min 0 W/m² 6,2 °C 5,5 °C 14,5 km/h (3 Bft)
13.10.2024 22:31 21,9 °C 8,8 °C 60 % 84 % 1017,8 hPa 0,0 l/m² 12,6 km/h (3 Bft) SW 236 ° 0 min 0 W/m² 6,2 °C 4,8 °C 17,7 km/h (3 Bft)
13.10.2024 22:33 21,9 °C 8,8 °C 60 % 84 % 1017,9 hPa 0,0 l/m² 14,3 km/h (3 Bft) SW 227 ° 0 min 0 W/m² 6,2 °C 4,0 °C 20,9 km/h (4 Bft)
13.10.2024 22:34 21,9 °C 8,8 °C 60 % 84 % 1018,0 hPa 0,0 l/m² 12,2 km/h (2 Bft) SW 233 ° 0 min 0 W/m² 6,2 °C 5,0 °C 17,7 km/h (3 Bft)
13.10.2024 22:35 21,9 °C 8,8 °C 60 % 84 % 1018,0 hPa 0,0 l/m² 13,4 km/h (3 Bft) W-SW 237 ° 0 min 0 W/m² 6,2 °C 4,4 °C 17,7 km/h (3 Bft)
13.10.2024 22:36 21,9 °C 8,8 °C 60 % 84 % 1018,0 hPa 0,0 l/m² 11,4 km/h (2 Bft) SW 231 ° 0 min 0 W/m² 6,2 °C 5,5 °C 17,7 km/h (3 Bft)
13.10.2024 22:37 21,8 °C 8,8 °C 60 % 84 % 1018,1 hPa 0,0 l/m² 13,7 km/h (3 Bft) SW 221 ° 0 min 0 W/m² 6,2 °C 4,3 °C 19,3 km/h (3 Bft)
13.10.2024 22:38 21,9 °C 8,9 °C 60 % 84 % 1018,1 hPa 0,0 l/m² 16,4 km/h (3 Bft) SW 215 ° 0 min 0 W/m² 6,3 °C 3,2 °C 20,9 km/h (4 Bft)
13.10.2024 22:39 21,8 °C 8,8 °C 60 % 84 % 1018,1 hPa 0,0 l/m² 12,0 km/h (2 Bft) SW 223 ° 0 min 0 W/m² 6,2 °C 5,1 °C 17,7 km/h (3 Bft)
13.10.2024 22:41 21,8 °C 8,8 °C 60 % 84 % 1018,3 hPa 0,0 l/m² 14,1 km/h (3 Bft) SW 215 ° 0 min 0 W/m² 6,2 °C 4,1 °C 19,3 km/h (3 Bft)
13.10.2024 22:43 21,9 °C 8,9 °C 60 % 84 % 1018,2 hPa 0,0 l/m² 16,4 km/h (3 Bft) SW 222 ° 0 min 0 W/m² 6,3 °C 3,2 °C 22,5 km/h (4 Bft)
13.10.2024 22:44 21,8 °C 8,8 °C 60 % 84 % 1018,2 hPa 0,0 l/m² 16,3 km/h (3 Bft) SW 224 ° 0 min 0 W/m² 6,2 °C 3,1 °C 19,3 km/h (3 Bft)
13.10.2024 22:45 21,9 °C 8,9 °C 60 % 84 % 1018,3 hPa 0,0 l/m² 16,9 km/h (3 Bft) SW 221 ° 0 min 0 W/m² 6,3 °C 3,0 °C 20,9 km/h (4 Bft)
13.10.2024 22:46 21,8 °C 8,9 °C 60 % 84 % 1018,2 hPa 0,0 l/m² 18,0 km/h (3 Bft) SW 225 ° 0 min 0 W/m² 6,3 °C 2,6 °C 22,5 km/h (4 Bft)
13.10.2024 22:47 21,8 °C 8,9 °C 60 % 84 % 1018,3 hPa 0,0 l/m² 16,4 km/h (3 Bft) SW 219 ° 0 min 0 W/m² 6,3 °C 3,2 °C 19,3 km/h (3 Bft)
13.10.2024 22:48 21,8 °C 8,9 °C 60 % 85 % 1018,3 hPa 0,0 l/m² 15,5 km/h (3 Bft) SW 227 ° 0 min 0 W/m² 6,5 °C 3,6 °C 20,9 km/h (4 Bft)
13.10.2024 22:49 21,8 °C 9,0 °C 60 % 85 % 1018,3 hPa 0,0 l/m² 13,9 km/h (3 Bft) SW 232 ° 0 min 0 W/m² 6,6 °C 4,4 °C 17,7 km/h (3 Bft)
13.10.2024 22:51 21,8 °C 9,1 °C 60 % 84 % 1018,3 hPa 0,0 l/m² 15,2 km/h (3 Bft) SW 227 ° 0 min 0 W/m² 6,5 °C 4,0 °C 22,5 km/h (4 Bft)
13.10.2024 22:53 21,8 °C 9,1 °C 60 % 84 % 1018,3 hPa 0,0 l/m² 17,0 km/h (3 Bft) SW 223 ° 0 min 0 W/m² 6,5 °C 3,2 °C 22,5 km/h (4 Bft)
13.10.2024 22:54 21,8 °C 9,1 °C 60 % 84 % 1018,3 hPa 0,0 l/m² 16,8 km/h (3 Bft) SW 217 ° 0 min 0 W/m² 6,5 °C 3,3 °C 24,1 km/h (4 Bft)
13.10.2024 22:55 21,8 °C 9,1 °C 60 % 84 % 1018,3 hPa 0,0 l/m² 14,0 km/h (3 Bft) S-SW 213 ° 0 min 0 W/m² 6,5 °C 4,5 °C 20,9 km/h (4 Bft)
13.10.2024 22:56 21,8 °C 9,1 °C 60 % 84 % 1018,3 hPa 0,0 l/m² 13,6 km/h (3 Bft) SW 217 ° 0 min 0 W/m² 6,5 °C 4,7 °C 16,1 km/h (3 Bft)
13.10.2024 22:57 21,8 °C 9,2 °C 60 % 84 % 1018,3 hPa 0,0 l/m² 13,4 km/h (3 Bft) SW 234 ° 0 min 0 W/m² 6,6 °C 4,9 °C 19,3 km/h (3 Bft)
13.10.2024 22:58 21,8 °C 9,2 °C 60 % 84 % 1018,3 hPa 0,0 l/m² 11,6 km/h (2 Bft) SW 236 ° 0 min 0 W/m² 6,6 °C 5,8 °C 16,1 km/h (3 Bft)
13.10.2024 22:59 21,8 °C 9,2 °C 60 % 84 % 1018,4 hPa 0,0 l/m² 10,1 km/h (2 Bft) SW 215 ° 0 min 0 W/m² 6,6 °C 6,7 °C 16,1 km/h (3 Bft)
13.10.2024 23:01 21,8 °C 9,2 °C 60 % 84 % 1018,4 hPa 0,0 l/m² 11,3 km/h (2 Bft) SW 232 ° 0 min 0 W/m² 6,6 °C 6,0 °C 17,7 km/h (3 Bft)
13.10.2024 23:03 21,8 °C 9,2 °C 60 % 84 % 1018,4 hPa 0,0 l/m² 12,5 km/h (2 Bft) SW 234 ° 0 min 0 W/m² 6,6 °C 5,3 °C 19,3 km/h (3 Bft)
13.10.2024 23:04 21,8 °C 9,2 °C 60 % 84 % 1018,5 hPa 0,0 l/m² 11,3 km/h (2 Bft) SW 230 ° 0 min 0 W/m² 6,6 °C 6,0 °C 16,1 km/h (3 Bft)
13.10.2024 23:05 21,8 °C 9,2 °C 60 % 83 % 1018,4 hPa 0,0 l/m² 10,9 km/h (2 Bft) SW 232 ° 0 min 0 W/m² 6,5 °C 6,2 °C 16,1 km/h (3 Bft)
13.10.2024 23:06 21,8 °C 9,2 °C 60 % 83 % 1018,4 hPa 0,0 l/m² 12,1 km/h (2 Bft) W-SW 243 ° 0 min 0 W/m² 6,5 °C 5,5 °C 17,7 km/h (3 Bft)
13.10.2024 23:07 21,8 °C 9,2 °C 60 % 83 % 1018,4 hPa 0,0 l/m² 9,8 km/h (2 Bft) SW 228 ° 0 min 0 W/m² 6,5 °C 6,8 °C 14,5 km/h (3 Bft)
13.10.2024 23:08 21,8 °C 9,1 °C 60 % 83 % 1018,4 hPa 0,0 l/m² 11,4 km/h (2 Bft) W-SW 242 ° 0 min 0 W/m² 6,4 °C 5,8 °C 17,7 km/h (3 Bft)
13.10.2024 23:09 21,8 °C 9,1 °C 60 % 83 % 1018,4 hPa 0,0 l/m² 14,3 km/h (3 Bft) W-SW 241 ° 0 min 0 W/m² 6,4 °C 4,4 °C 19,3 km/h (3 Bft)
13.10.2024 23:11 21,8 °C 9,1 °C 60 % 83 % 1018,4 hPa 0,0 l/m² 14,0 km/h (3 Bft) SW 234 ° 0 min 0 W/m² 6,4 °C 4,5 °C 20,9 km/h (4 Bft)
13.10.2024 23:13 21,8 °C 9,0 °C 60 % 83 % 1018,4 hPa 0,0 l/m² 12,8 km/h (3 Bft) SW 227 ° 0 min 0 W/m² 6,3 °C 5,0 °C 17,7 km/h (3 Bft)
13.10.2024 23:14 21,8 °C 9,0 °C 60 % 84 % 1018,4 hPa 0,0 l/m² 13,4 km/h (3 Bft) W-SW 242 ° 0 min 0 W/m² 6,4 °C 4,7 °C 16,1 km/h (3 Bft)
13.10.2024 23:15 21,8 °C 8,9 °C 60 % 84 % 1018,5 hPa 0,0 l/m² 13,4 km/h (3 Bft) W-SW 242 ° 0 min 0 W/m² 6,3 °C 4,5 °C 16,1 km/h (3 Bft)
13.10.2024 23:16 21,8 °C 8,9 °C 60 % 84 % 1018,5 hPa 0,0 l/m² 12,9 km/h (3 Bft) W-SW 247 ° 0 min 0 W/m² 6,3 °C 4,8 °C 17,7 km/h (3 Bft)
13.10.2024 23:17 21,8 °C 8,9 °C 60 % 84 % 1018,5 hPa 0,0 l/m² 12,9 km/h (3 Bft) SW 225 ° 0 min 0 W/m² 6,3 °C 4,8 °C 19,3 km/h (3 Bft)
13.10.2024 23:23 21,8 °C 8,8 °C 60 % 84 % 1018,5 hPa 0,0 l/m² 13,3 km/h (3 Bft) W-SW 254 ° 0 min 0 W/m² 6,2 °C 4,5 °C 16,1 km/h (3 Bft)
13.10.2024 23:25 21,8 °C 8,8 °C 60 % 84 % 1018,5 hPa 0,0 l/m² 11,2 km/h (2 Bft) SW 232 ° 0 min 0 W/m² 6,2 °C 5,6 °C 16,1 km/h (3 Bft)
13.10.2024 23:27 21,8 °C 8,8 °C 60 % 84 % 1018,5 hPa 0,0 l/m² 13,7 km/h (3 Bft) W-SW 243 ° 0 min 0 W/m² 6,2 °C 4,3 °C 17,7 km/h (3 Bft)
13.10.2024 23:29 21,8 °C 8,8 °C 60 % 84 % 1018,5 hPa 0,0 l/m² 10,0 km/h (2 Bft) SW 234 ° 0 min 0 W/m² 6,2 °C 6,3 °C 14,5 km/h (3 Bft)
13.10.2024 23:30 21,8 °C 8,8 °C 60 % 84 % 1018,6 hPa 0,0 l/m² 9,5 km/h (2 Bft) SW 236 ° 0 min 0 W/m² 6,2 °C 6,6 °C 12,9 km/h (3 Bft)
13.10.2024 23:31 21,7 °C 8,8 °C 60 % 84 % 1018,5 hPa 0,0 l/m² 8,9 km/h (2 Bft) SW 230 ° 0 min 0 W/m² 6,2 °C 7,0 °C 11,3 km/h (2 Bft)
13.10.2024 23:32 21,7 °C 8,7 °C 60 % 84 % 1018,5 hPa 0,0 l/m² 8,8 km/h (2 Bft) W-SW 250 ° 0 min 0 W/m² 6,2 °C 6,9 °C 11,3 km/h (2 Bft)
13.10.2024 23:35 21,8 °C 8,7 °C 60 % 85 % 1018,5 hPa 0,0 l/m² 9,6 km/h (2 Bft) SW 228 ° 0 min 0 W/m² 6,3 °C 6,4 °C 16,1 km/h (3 Bft)
13.10.2024 23:36 21,7 °C 8,7 °C 60 % 85 % 1018,6 hPa 0,0 l/m² 10,2 km/h (2 Bft) SW 229 ° 0 min 0 W/m² 6,3 °C 6,0 °C 12,9 km/h (3 Bft)
13.10.2024 23:38 21,7 °C 8,7 °C 60 % 85 % 1018,5 hPa 0,0 l/m² 10,7 km/h (2 Bft) S-SW 212 ° 0 min 0 W/m² 6,3 °C 5,7 °C 16,1 km/h (3 Bft)
13.10.2024 23:40 21,7 °C 8,7 °C 60 % 85 % 1018,6 hPa 0,0 l/m² 8,6 km/h (2 Bft) SW 231 ° 0 min 0 W/m² 6,3 °C 7,1 °C 14,5 km/h (3 Bft)
13.10.2024 23:41 21,8 °C 8,7 °C 60 % 85 % 1018,6 hPa 0,0 l/m² 7,6 km/h (2 Bft) SW 219 ° 0 min 0 W/m² 6,3 °C 7,8 °C 11,3 km/h (2 Bft)
13.10.2024 23:42 21,8 °C 8,6 °C 60 % 85 % 1018,6 hPa 0,0 l/m² 9,2 km/h (2 Bft) SW 223 ° 0 min 0 W/m² 6,2 °C 6,6 °C 14,5 km/h (3 Bft)
13.10.2024 23:44 21,7 °C 8,6 °C 60 % 85 % 1018,7 hPa 0,0 l/m² 12,2 km/h (2 Bft) SW 220 ° 0 min 0 W/m² 6,2 °C 4,8 °C 17,7 km/h (3 Bft)
13.10.2024 23:46 21,7 °C 8,6 °C 60 % 85 % 1018,7 hPa 0,0 l/m² 11,2 km/h (2 Bft) SW 214 ° 0 min 0 W/m² 6,2 °C 5,3 °C 16,1 km/h (3 Bft)
13.10.2024 23:48 21,7 °C 8,6 °C 60 % 85 % 1018,5 hPa 0,0 l/m² 11,7 km/h (2 Bft) SW 226 ° 0 min 0 W/m² 6,2 °C 5,1 °C 16,1 km/h (3 Bft)
13.10.2024 23:50 21,7 °C 8,6 °C 60 % 85 % 1018,6 hPa 0,0 l/m² 11,8 km/h (2 Bft) SW 222 ° 0 min 0 W/m² 6,2 °C 5,0 °C 16,1 km/h (3 Bft)
13.10.2024 23:51 21,7 °C 8,6 °C 60 % 85 % 1018,7 hPa 0,0 l/m² 13,5 km/h (3 Bft) SW 223 ° 0 min 0 W/m² 6,2 °C 4,1 °C 17,7 km/h (3 Bft)
13.10.2024 23:52 21,7 °C 8,6 °C 60 % 85 % 1018,7 hPa 0,0 l/m² 11,5 km/h (2 Bft) S-SW 209 ° 0 min 0 W/m² 6,2 °C 5,2 °C 14,5 km/h (3 Bft)
13.10.2024 23:54 21,7 °C 8,6 °C 60 % 85 % 1018,7 hPa 0,0 l/m² 12,2 km/h (2 Bft) SW 219 ° 0 min 0 W/m² 6,2 °C 4,8 °C 17,7 km/h (3 Bft)
13.10.2024 23:56 21,7 °C 8,6 °C 60 % 85 % 1018,8 hPa 0,0 l/m² 11,8 km/h (2 Bft) SW 225 ° 0 min 0 W/m² 6,2 °C 5,0 °C 17,7 km/h (3 Bft)
13.10.2024 23:58 21,7 °C 8,6 °C 60 % 85 % 1018,7 hPa 0,0 l/m² 10,0 km/h (2 Bft) SW 223 ° 0 min 0 W/m² 6,2 °C 6,0 °C 16,1 km/h (3 Bft)
_ Min-Zeit 08:03 23:58 12:15 15:34 05:24 - 01:52 - - - - 09:38 11:39 01:52
Minimum _ 21,2 °C 8,6 °C 54 % 64 % 1003,1 hPa - 0,0 km/h (0 Bft) - - - - 5,6 °C 0,6 °C 0,0 km/h (0 Bft)
_ Max-Zeit 13:03 15:18 09:14 01:16 23:56 06:20 12:36 - - 15:46 11:55 05:50 04:51 15:04
Maximum _ 22,7 °C 13,6 °C 62 % 89 % 1018,8 hPa 0,6 l/m² 42,8 km/h
W-SW (6 Bft)
- - 3 min 664 W/m² 10,9 °C 12,3 °C 62,8 km/h
W-SW (7 Bft)
Durchschnitt _ 21,9 °C 11,1 °C 59 % 78 % 1010,2 hPa #1,0 l/m² 18,9 km/h (3 Bft) W-SW - #8:36 h 123 W/m² 7,4 °C 5,8 °C 26,2 km/h (4 Bft)
© 2009 Mathias Hoßbach